MPMG - Transparência

Contra-cheque - Remuneração de todos os servidores ativos - Pré Resolução CNMP 200/2019

Período: 2016 - Fevereiro

Ordem Matrícula Nome Cargo Efetivo Situação Unidade Administrativa Rendimentos Descontos Rendimento Líquido Total Indenizações Outras Remunerações Retroativas/Temporárias Data de Referência
Remuneração Básica Remuneração Eventual ou Temporária Total de Rendimentos Brutos Obrigatórios/Legais Total de Descontos
Remuneração do Cargo Efetivo Outras Verbas Remuneratórias Função de Confiança ou Cargo em Comissão Gratificação Natalina Férias Abono de Permanência Contribuição Previdenciária Imposto de Renda Retenção por Teto Constitucional
1 498900 ABDON MARCIO BARBOSA DA SILVA OFICIAL DO MP ATIVO ABRE CAMPO - COMARCA; ABRE CAMPO-PJ-01PJ 3.916,07 234,96 0,00 0,00 0,00 0,00 4.151,03 707,70 114,05 0,00 821,75 3.329,28 1.006,36 2.282,64 29/02/2016
2 177800 ADALBERTO MENEZES FARIA SAMORA OFICIAL DO MP ATIVO BELO HORIZONTE - COMARCA; CGMP-DIVIS DE APOIO FISC ORIENTACAO FUNCIONAL 7.579,95 3.072,95 0,00 0,00 4.438,71 0,00 15.091,61 1.464,77 2.773,75 0,00 4.238,52 10.853,09 1.431,00 0,00 29/02/2016
3 306400 ADALBERTO MOREIRA GONCALVES ANALISTA DO MP ATIVO BELO HORIZONTE - COMARCA; BH-24PJ JUIZO REGIONAL DO BARREIRO 10.576,63 2.115,33 0,00 0,00 4.230,65 0,00 16.922,61 1.396,12 3.400,42 0,00 4.796,54 12.126,07 799,00 0,00 29/02/2016
4 179300 ADENISE AUXILIADORA SOUZA SAD OFICIAL DO MP ATIVO BARBACENA - COMARCA; BARBACENA-PJ-06PJ 9.920,24 2.976,07 0,00 0,00 0,00 0,00 12.896,31 1.418,59 2.182,74 0,00 3.601,33 9.294,98 799,00 0,00 29/02/2016
5 77700 ADIL EXPEDITO DE OLIVEIRA JUNIOR ASSESSOR ATIVO BELO HORIZONTE - COMARCA; ASSESSORIA PSICOSSOCIAL 0,00 6.761,44 8.451,80 0,00 0,00 1.673,46 16.886,70 1.673,46 3.314,28 0,00 4.987,74 11.898,96 799,00 0,00 29/02/2016
6 272200 ADILSON BATISTA ORNELAS OFICIAL DO MP ATIVO LAVRAS - COMARCA; LAVRAS-PJ-SECRETARIA 4.175,17 835,03 0,00 0,00 0,00 0,00 5.010,20 551,12 239,19 0,00 790,31 4.219,89 799,00 0,00 29/02/2016
7 380100 ADILSON GONCALVES DE MELO JUNIOR ANALISTA DO MP ATIVO ARAXÁ - COMARCA; ARAXA-PJ-05PJ 5.988,29 767,73 0,00 0,00 0,00 0,00 6.756,02 928,95 628,81 0,00 1.557,76 5.198,26 799,00 0,00 29/02/2016
8 148800 ADILSON JANUARIO OFICIAL DO MP ATIVO BELO HORIZONTE - COMARCA; BH-22PJ PES COM DEF E IDOSOS-SECRETARIA 8.260,73 8.150,59 0,00 0,00 0,00 0,00 16.411,32 3.847,60 2.957,16 0,00 6.804,76 9.606,56 799,00 15.183,96 29/02/2016
9 322601 ADMILSON SILVEIRA ANALISTA DO MP ATIVO SAO JOAO DO PARAISO COMARCA; SAO JOAO DO PARAISO-PJ-UNPJ 5.307,28 0,00 0,00 0,00 0,00 0,00 5.307,28 620,62 429,60 0,00 1.050,22 4.257,06 799,00 334,72 29/02/2016
10 333700 ADRIANA ABRITTA TEIXEIRA OFICIAL DO MP ATIVO BELO HORIZONTE - COMARCA; DIRET DE PESSOAL DO MINISTERIO PUBLICO - DPMP 6.973,67 1.394,73 0,00 0,00 0,00 0,00 8.368,40 1.206,48 1.178,81 0,00 2.385,29 5.983,11 799,00 2.599,60 29/02/2016
11 468500 ADRIANA APARECIDA FIRMINO ANALISTA DO MP ATIVO CARATINGA - COMARCA; CARATINGA-PJ-04PJ 7.435,23 743,52 0,00 0,00 0,00 0,00 8.178,75 1.076,73 1.080,25 0,00 2.156,98 6.021,77 1.431,00 1.609,77 29/02/2016
12 326100 ADRIANA AUGUSTA AMARAL BELO OFICIAL DO MP ATIVO BARBACENA - COMARCA; BARBACENA-PJ-08PJ 6.973,67 1.394,73 0,00 0,00 2.789,47 0,00 11.157,87 1.206,48 1.841,64 0,00 3.048,12 8.109,75 1.431,00 2.599,60 29/02/2016
13 605700 ADRIANA COSTA LIRA OFICIAL DO MP ATIVO BELO HORIZONTE - COMARCA; DIRET DE FORMACAO, APERFEIC. E POS-GRADUACAO 3.792,57 0,00 0,00 0,00 0,00 0,00 3.792,57 493,64 151,51 0,00 645,15 3.147,42 799,00 695,08 29/02/2016
14 541100 ADRIANA CRISTINA DE OLIVEIRA OFICIAL DO MP ATIVO GUAPÉ - COMARCA; GUAPE-PJ-UNPJ 3.445,03 0,00 0,00 0,00 0,00 0,00 3.445,03 378,95 76,67 0,00 455,62 2.989,41 1.431,00 0,00 29/02/2016
15 254800 ADRIANA DAS GRACAS FERNANDES ANALISTA DO MP ATIVO UBERABA - COMARCA; UBERABA-PJ-07PJ 8.529,72 6.011,42 0,00 0,00 0,00 0,00 14.541,14 2.234,00 2.531,78 0,00 4.765,78 9.775,36 799,00 2.274,80 29/02/2016
16 246900 ADRIANA DE ALMEIDA ANTONINI ASSESSOR ATIVO BELO HORIZONTE - COMARCA; EXTINTA - SECRETARIA ADMINISTRATIVA 0,00 500,12 2.500,62 0,00 0,00 0,00 3.000,74 417,97 152,47 0,00 570,44 2.430,30 799,00 0,00 29/02/2016
17 217400 ADRIANA DE CARVALHO CATAO BRAGA ASSESSOR ATIVO BELO HORIZONTE - COMARCA; EXTINTA - DIRETORIA DE CONTRATOS E CONVÊNIOS 0,00 1.992,45 6.641,51 0,00 0,00 0,00 8.633,96 570,88 1.567,71 0,00 2.138,59 6.495,37 799,00 0,00 29/02/2016
18 434600 ADRIANA FERREIRA DA SILVA ANALISTA DO MP ATIVO BELO HORIZONTE - COMARCA; BH-14PJ DEFESA CONSUMIDOR-GAB 112PJ 8.451,80 845,18 0,00 0,00 0,00 0,00 9.296,98 1.022,67 1.406,08 0,00 2.428,75 6.868,23 799,00 0,00 29/02/2016
19 499800 ADRIANA FERREIRA TIAGO OFICIAL DO MP ATIVO SALINAS - COMARCA; SALINAS-PJ-02PJ 4.668,87 280,13 0,00 0,00 0,00 0,00 4.949,00 793,83 354,91 0,00 1.148,74 3.800,26 820,76 2.267,65 29/02/2016
20 543400 ADRIANA GUIMARAES NUNES DE PAULA ANALISTA DO MP ATIVO PATROCÍNIO - COMARCA; PATROCINIO-PJ-01PJ 4.674,13 0,00 0,00 0,00 0,00 0,00 4.674,13 642,69 270,94 0,00 913,63 3.760,50 799,00 0,00 29/02/2016
21 471500 ADRIANA HORTA DE CARVALHO RODRIGUES DE SOUSA ANALISTA DO MP ATIVO BELO HORIZONTE - COMARCA; GRUPO ESP PROM PROC JUST DEF PROB ADM PAT PUB 7.435,23 743,52 0,00 0,00 0,00 0,00 8.178,75 1.017,70 1.080,25 0,00 2.097,95 6.080,80 613,00 1.073,18 29/02/2016
22 86400 ADRIANA MOREIRA CALDEIRA BRANT OFICIAL DO MP ATIVO BELO HORIZONTE - COMARCA; EXTINTA-TUTELA DAS FUNDACOES-21 PJ- GABINETE 10.243,18 5.121,59 0,00 0,00 5.121,59 0,00 20.486,36 1.849,98 4.247,47 0,00 6.097,45 14.388,91 799,00 1.453,23 29/02/2016
23 480700 ADRIANA MOREIRA DE AVELLAR CEZILIO OFICIAL DO MP ATIVO BELO HORIZONTE - COMARCA; EXTINTA - DIVISAO DE MATERIAL DE CONSUMO 3.213,37 242,61 0,00 0,00 0,00 0,00 3.455,98 471,48 52,60 0,00 524,08 2.931,90 1.431,00 0,00 29/02/2016
24 326000 ADRIANA PEREIRA CARNEIRO RESENDE OFICIAL DO MP ATIVO BELO HORIZONTE - COMARCA; CAO-DIREITOS HUMANOS E APOIO COMUNITARIO 6.641,51 1.328,30 0,00 0,00 0,00 0,00 7.969,81 1.117,68 976,98 0,00 2.094,66 5.875,15 799,00 2.190,90 29/02/2016
25 502200 ADRIANA PETRUCCI DAVINA OFICIAL DO MP ATIVO PATROCÍNIO - COMARCA; PATROCINIO-PJ-01PJ 4.668,87 280,13 0,00 0,00 0,00 0,00 4.949,00 843,72 354,91 0,00 1.198,63 3.750,37 799,00 2.721,18 29/02/2016
26 201900 ADRIANA REIS PIMENTA OFICIAL DO MP ATIVO TEÓFILO OTONI - COMARCA; TEOFILO OTONI-PJ-03PJ 9.920,24 2.976,07 0,00 0,00 0,00 0,00 12.896,31 1.418,59 2.287,01 0,00 3.705,60 9.190,71 799,00 0,00 29/02/2016
27 278700 ADRIANA RODRIGUES PINTO COELHO AMARAL ANALISTA DO MP ATIVO BELO HORIZONTE - COMARCA; ASSESS TECNICA DA CORREGEDORIA-GERAL DO MP 11.643,70 2.328,74 0,00 0,00 0,00 0,00 13.972,44 2.100,38 2.446,12 0,00 4.546,50 9.425,94 1.301,04 5.121,92 29/02/2016
28 468000 ADRIANA SANTOS DE SANTANA MOREIRA ANALISTA DO MP ATIVO ARAÇUAÍ - COMARCA; ARACUAI-PJ-01PJ 5.563,04 2.230,57 0,00 0,00 0,00 0,00 7.793,61 1.163,83 877,22 0,00 2.041,05 5.752,56 1.431,00 914,52 29/02/2016
29 194700 ADRIANA TSUKIDE OFICIAL DO MP ATIVO UBERABA - COMARCA; COORD REG BACIAS PARANAIBA BAIXO RIO GRANDE 9.920,24 2.976,07 0,00 0,00 0,00 0,00 12.896,31 1.418,59 2.234,88 0,00 3.653,47 9.242,84 799,00 0,00 29/02/2016
30 206400 ADRIANE MENDES DE SOUZA ANALISTA DO MP ATIVO BELO HORIZONTE - COMARCA; BH-23PJ CIVEL-FISC AC POL PUB II 9.686,90 6.808,08 0,00 0,00 0,00 0,00 16.494,98 2.588,95 2.996,79 0,00 5.585,74 10.909,24 799,00 3.111,64 29/02/2016
31 465500 ADRIANO CASSIANO MATOS ANALISTA DO MP ATIVO ARAXÁ - COMARCA; ARAXA-PJ-02PJ 5.449,79 685,78 0,00 0,00 0,00 0,00 6.135,57 993,12 589,73 0,00 1.582,85 4.552,72 1.165,53 1.484,76 29/02/2016
32 500500 ADRIANO DE ALMEIDA SILVA OFICIAL DO MP ATIVO UBERABA - COMARCA; UBERABA-PJ-12PJ 3.769,78 280,13 0,00 0,00 0,00 0,00 4.049,91 793,83 171,03 0,00 964,86 3.085,05 799,00 2.267,65 29/02/2016
33 187200 ADRIANO DE FREITAS MARON OFICIAL DO MP ATIVO PONTE NOVA - COMARCA; PONTE NOVA-PJ-03PJ 4.842,96 5.948,18 0,00 0,00 0,00 0,00 10.791,14 1.611,47 1.693,35 0,00 3.304,82 7.486,32 799,00 1.266,27 29/02/2016
34 477900 ADRIANO FERREIRA DE ALMEIDA OFICIAL DO MP ATIVO MONTES CLAROS - COMARCA; MONTES CLAROS-PJ-04PJ 5.139,92 513,99 0,00 0,00 0,00 0,00 5.653,91 621,93 410,75 0,00 1.032,68 4.621,23 799,00 0,00 29/02/2016
35 269101 ADRIANO PEREIRA SILVA ANALISTA DO MP ATIVO UBERABA - COMARCA; UBERABA-PJ-02PJ 7.435,23 743,52 0,00 0,00 0,00 0,00 8.178,75 1.135,75 975,98 0,00 2.111,73 6.067,02 2.063,00 2.146,36 29/02/2016
36 414200 ADRIANO RODRIGUES FERNANDES ANALISTA DO MP ATIVO CARANDAÍ - COMARCA; CARANDAI-PJ-UNPJ 6.973,67 697,37 0,00 0,00 0,00 0,00 7.671,04 885,87 851,72 0,00 1.737,59 5.933,45 799,00 382,41 29/02/2016
37 536700 ADRIELLE COSTA MARIA OFICIAL DO MP ATIVO SERRO - COMARCA; SERRO-PJ-SECRETARIA 3.445,03 0,00 0,00 0,00 0,00 0,00 3.445,03 378,95 105,11 0,00 484,06 2.960,97 799,00 0,00 29/02/2016
38 514300 ADRIENE DAMASCENO BRAGA ANALISTA DO MP ATIVO ALFENAS - COMARCA; ALFENAS-PJ-03PJ 7.200,74 432,04 0,00 0,00 0,00 0,00 7.632,78 970,03 998,76 0,00 1.968,79 5.663,99 799,00 1.185,56 29/02/2016
39 254600 ADRIENE DOMINGUES COSTA ANALISTA DO MP ATIVO BELO HORIZONTE - COMARCA; PROC. JUSTICA DIR. DIFUSOS E COLETIVOS-SEC 10.243,18 2.048,64 0,00 0,00 0,00 0,00 12.291,82 1.479,99 2.139,06 0,00 3.619,05 8.672,77 0,00 1.162,59 29/02/2016
40 252001 ADRIENE GOMES BARRETO ANALISTA DO MP ATIVO BELO HORIZONTE - COMARCA; BH-19PJ SAUDE-SECRETARIA 150PJ 9.011,08 2.703,32 0,00 0,00 0,00 0,00 11.714,40 1.410,45 1.997,74 0,00 3.408,19 8.306,21 799,00 1.107,90 29/02/2016
41 118100 AGENOR ALCIR RODRIGUES DA SILVA OFICIAL DO MP ATIVO SÃO JOÃO NEPOMUCENO - COMARCA; SAO JOAO NEPOMUCENO-PJ-01PJ 12.598,78 10.079,02 0,00 0,00 0,00 0,00 22.677,80 3.208,96 4.681,03 0,00 7.889,99 14.787,81 799,00 6.494,52 29/02/2016
42 302500 AGENOR JOSE DA SILVA JUNIOR ANALISTA DO MP ATIVO JUIZ DE FORA - COMARCA; JUIZ DE FORA-PJ-07PJ 8.038,24 2.115,33 0,00 0,00 0,00 0,00 10.153,57 1.396,12 1.434,66 0,00 2.830,78 7.322,79 4.861,81 372,42 29/02/2016
43 357500 AILSON WAGNER DE ALENCAR SILVA OFICIAL DO MP ATIVO BELO HORIZONTE - COMARCA; DIRETORIA DO COLEGIO E DA CAMARA DE PJ 6.432,09 1.929,63 0,00 0,00 0,00 0,00 8.361,72 1.006,79 1.020,76 0,00 2.027,55 6.334,17 799,00 790,92 29/02/2016
44 366400 AILTON ALEXSSANDRO ALVES OFICIAL DO MP ATIVO PARÁ DE MINAS - COMARCA; PARA DE MINAS-PJ-05PJ 4.513,84 1.809,88 0,00 0,00 0,00 0,00 6.323,72 944,34 632,42 0,00 1.576,76 4.746,96 799,00 742,05 29/02/2016
45 318900 AILTON DE CASTRO RIBEIRO JUNIOR OFICIAL DO MP ATIVO POUSO ALEGRE - COMARCA; POUSO ALEGRE-PJ-03PJ 6.641,51 2.503,12 0,00 0,00 0,00 0,00 9.144,63 959,61 1.247,91 0,00 2.207,52 6.937,11 799,00 753,90 29/02/2016
46 464400 ALAN MONTEIRO GASPAR ANALISTA DO MP ATIVO SETE LAGOAS - COMARCA; SETE LAGOAS-PJ-03PJ 7.435,23 743,52 0,00 0,00 0,00 0,00 8.178,75 981,68 1.132,39 0,00 2.114,07 6.064,68 799,00 745,68 29/02/2016
47 492000 ALANA DE CASTRO FREITAS OFICIAL DO MP ATIVO BOM SUCESSO - COMARCA; BOM SUCESSO-PJ-UNPJ 4.241,01 254,46 0,00 0,00 0,00 0,00 4.495,47 608,17 264,09 0,00 872,26 3.623,21 799,00 1.033,32 29/02/2016
48 306700 ALANA MARCIA DE OLIVEIRA OFICIAL DO MP ATIVO BELO HORIZONTE - COMARCA; DIRETORIA DE ADMINISTRACAO FINANCEIRA 5.047,55 1.328,30 0,00 0,00 0,00 0,00 6.375,85 876,68 642,91 0,00 1.519,59 4.856,26 799,00 0,00 29/02/2016
49 324500 ALANMAR COUTINHO COSTA OFICIAL DO MP ATIVO LEOPOLDINA - COMARCA; LEOPOLDINA-PJ-02PJ 4.440,42 1.168,53 0,00 0,00 0,00 0,00 5.608,95 771,23 169,67 0,00 940,90 4.668,05 799,00 0,00 29/02/2016
50 508200 ALBERTO DA SILVA VIEIRA ASSESSOR ATIVO BELO HORIZONTE - COMARCA; ASSESS ESPECIAL DO PGJ ATUACAO JUNTO A PGJAA 0,00 0,00 9.304,45 0,00 0,00 0,00 9.304,45 570,88 1.647,82 0,00 2.218,70 7.085,75 799,00 0,00 29/02/2016
51 407300 ALBERTO LUIZ SOARES DE OLIVEIRA ANALISTA DO MP ATIVO BELO HORIZONTE - COMARCA; SUPERINTENDÊNCIA DE ENGENHARIA E ARQUITETURA 8.451,80 845,18 0,00 0,00 3.098,99 0,00 12.395,97 1.022,67 2.258,30 0,00 3.280,97 9.115,00 799,00 0,00 29/02/2016
52 118200 ALBERTO PEREIRA DA COSTA OFICIAL DO MP ATIVO DORES DO INDAIÁ - COMARCA; DORES DO INDAIA-PJ-UNPJ 10.576,63 8.461,30 0,00 0,00 0,00 0,00 19.037,93 2.094,17 3.685,90 0,00 5.780,07 13.257,86 799,00 0,00 29/02/2016
53 282400 ALCILENE MARISE DE ARAUJO ANALISTA DO MP ATIVO BELO HORIZONTE - COMARCA; BH-23PJ INF-FISC MED SOC FEC 11.643,70 2.328,74 0,00 0,00 0,00 0,00 13.972,44 2.100,38 2.446,12 0,00 4.546,50 9.425,94 799,00 5.548,75 29/02/2016
54 112600 ALCIONE DA MOTA JARDIM OFICIAL DO MP ATIVO BELO HORIZONTE - COMARCA; CAO-CRIANCAS E ADOLESCENTES 8.727,00 4.363,50 0,00 0,00 0,00 0,00 13.090,50 1.576,19 2.282,40 0,00 3.858,59 9.231,91 799,00 1.238,40 29/02/2016
55 396400 ALCIONE DE FREITAS E SILVA ANALISTA DO MP ATIVO BELO HORIZONTE - COMARCA; ASSESS JUR DO CONS SUPERIOR DO MINISTERIO PUB 9.011,08 2.703,32 0,00 0,00 3.904,80 0,00 15.619,20 1.410,45 3.071,56 0,00 4.482,01 11.137,19 799,00 1.107,90 29/02/2016
56 161600 ALCIONE NERY SOUZA ASSESSOR ATIVO BELO HORIZONTE - COMARCA; GRUPO ESPECIAL DE DEFESA DA FAUNA 0,00 2.656,60 6.641,51 0,00 0,00 0,00 9.298,11 570,88 1.750,35 0,00 2.321,23 6.976,88 799,00 0,00 29/02/2016
57 376000 ALDA GOMES LANA OFICIAL DO MP ATIVO BELO HORIZONTE - COMARCA; BH-18PJ VIOLENCIA DOMESTICA-SECRETARIA 5.590,52 603,29 0,00 0,00 0,00 0,00 6.193,81 729,98 528,92 0,00 1.258,90 4.934,91 799,00 0,00 29/02/2016
58 148000 ALDA MARTINS SIMOES OFICIAL DO MP ATIVO BELO HORIZONTE - COMARCA; BH-23PJ CIVEL- FISC ENT AB POL 8.682,24 4.657,48 0,00 0,00 5.433,73 0,00 18.773,45 2.450,45 3.800,23 0,00 6.250,68 12.522,77 1.431,00 5.975,60 29/02/2016
59 318400 ALDO CREPALDI JUNIOR OFICIAL DO MP ATIVO BELO HORIZONTE - COMARCA; EXTINTA - DIVISAO DE MATERIAL DE CONSUMO 6.641,51 1.328,30 0,00 0,00 0,00 0,00 7.969,81 1.117,68 1.616,36 0,00 2.734,04 5.235,77 5.493,81 4.698,77 29/02/2016
60 604500 ALENIZE APARECIDA RODRIGUES HENRIQUE OFICIAL DO MP ATIVO RIO NOVO - COMARCA; RIO NOVO-PJ-UNPJ 3.445,03 0,00 0,00 0,00 0,00 0,00 3.445,03 483,15 105,11 0,00 588,26 2.856,77 799,00 947,25 29/02/2016
61 197900 ALESSA DE SOUSA E SILVA OFICIAL DO MP ATIVO OLIVEIRA - COMARCA; OLIVEIRA-PJ-02PJ 10.243,18 3.072,95 0,00 0,00 0,00 0,00 13.316,13 1.464,77 2.285,49 0,00 3.750,26 9.565,87 925,00 0,00 29/02/2016
62 428500 ALESSANDRA ALVES DINIZ OFICIAL DO MP ATIVO BELO HORIZONTE - COMARCA; CENTRAL DE APOIO TECNICO-SECRETARIA 4.379,06 1.751,62 0,00 0,00 0,00 0,00 6.130,68 674,37 631,13 0,00 1.305,50 4.825,18 799,00 0,00 29/02/2016
63 286801 ALESSANDRA BOTELHO JUNQUEIRA DE MENEZES ANALISTA DO MP ATIVO PASSOS - COMARCA; PASSOS-PJ-05PJ 8.727,00 2.618,10 0,00 0,00 0,00 0,00 11.345,10 1.247,96 1.750,94 0,00 2.998,90 8.346,20 2.063,00 0,00 29/02/2016
64 307000 ALESSANDRA CRISTINA SANTOS MENDES ANALISTA DO MP ATIVO BELO HORIZONTE - COMARCA; BH-18PJ VIOLENCIA DOMESTICA 8.185,27 1.637,05 0,00 0,00 3.274,11 0,00 13.096,43 1.080,46 2.382,89 0,00 3.463,35 9.633,08 799,00 0,00 29/02/2016
65 264400 ALESSANDRA DE SOUZA SANTOS ANALISTA DO MP ATIVO BELO HORIZONTE - COMARCA; ASSESS TECNICA DA CORREGEDORIA-GERAL DO MP 12.022,83 3.606,85 0,00 0,00 0,00 0,00 15.629,68 1.936,13 2.956,01 0,00 4.892,14 10.737,54 799,00 2.135,77 29/02/2016
66 441500 ALESSANDRA DRUMMOND DE FIGUEIREDO ROSSI ANALISTA DO MP ATIVO BELO HORIZONTE - COMARCA; DIRETORIA DE PROJETOS DE EDIFICACOES 7.435,23 743,52 0,00 0,00 0,00 0,00 8.178,75 1.179,14 1.132,39 0,00 2.311,53 5.867,22 799,00 2.540,72 29/02/2016
67 524000 ALESSANDRA LUCIOLI DE BARROS GUERRA ANALISTA DO MP ATIVO BELO HORIZONTE - COMARCA; BH-19PJ SAUDE--SECRETARIA 5.233,51 398,49 0,00 0,00 0,00 0,00 5.632,00 774,40 328,86 0,00 1.103,26 4.528,74 799,00 0,00 29/02/2016
68 479900 ALESSANDRA MARA ANDRADE DE FARIA OFICIAL DO MP ATIVO UBERABA - COMARCA; UBERABA-PJ-09PJ 5.139,92 513,99 0,00 0,00 0,00 0,00 5.653,91 621,93 514,43 0,00 1.136,36 4.517,55 799,00 0,00 29/02/2016
69 226700 ALESSANDRA MARA VASCONCELOS REZENDE OFICIAL DO MP ATIVO CONSELHEIRO LAFAIETE - COMARCA; CONSELHEIRO LAFAIETE-PJ-07PJ 6.973,67 2.092,10 0,00 0,00 0,00 0,00 9.065,77 1.150,65 1.349,49 0,00 2.500,14 6.565,63 799,00 1.394,74 29/02/2016
70 112100 ALESSANDRA MARCIA FERREIRA OFICIAL DO MP ATIVO BELO HORIZONTE - COMARCA; BELO HORIZONTE- SECRETARIA DAS PROMOTORIAS 8.185,27 4.092,64 0,00 0,00 0,00 0,00 12.277,91 1.350,57 2.083,52 0,00 3.434,09 8.843,82 799,00 0,00 29/02/2016
71 196500 ALESSANDRA MARIA RIBEIRO LUCIANO OFICIAL DO MP ATIVO RIO PARANAÍBA - COMARCA; RIO PARANAIBA-PJ-UNPJ 10.243,18 3.072,95 0,00 0,00 0,00 0,00 13.316,13 1.603,31 2.337,63 0,00 3.940,94 9.375,19 1.431,00 1.259,46 29/02/2016
72 91400 ALESSANDRA MENDES VASCONCELOS DE SOUZA OFICIAL DO MP ATIVO BELO HORIZONTE - COMARCA; BH-23PJ INF-FISC MED SOC AB 13.616,17 6.808,08 0,00 0,00 0,00 0,00 20.424,25 2.588,95 4.129,47 0,00 6.718,42 13.705,83 799,00 3.111,64 29/02/2016
73 384900 ALESSANDRA RODRIGUES ANALISTA DO MP ATIVO VISCONDE DO RIO BRANCO - COMARCA; VISCONDE DO RIO BRANCO-PJ-03PJ 9.011,08 901,11 0,00 0,00 0,00 0,00 9.912,19 1.193,46 1.400,24 0,00 2.593,70 7.318,49 1.431,00 937,47 29/02/2016
74 390000 ALESSANDRA SPADANO MASSARA VASCONCELOS OFICIAL DO MP ATIVO BETIM - COMARCA; BETIM-PJ-10PJ 6.032,93 603,29 0,00 0,00 0,00 0,00 6.636,22 930,68 754,86 0,00 1.685,54 4.950,68 799,00 1.824,51 29/02/2016
75 426500 ALESSANDRO CAMPOS DE PAIVA COORDENADOR/ANALISTA ATIVO BELO HORIZONTE - COMARCA; DIRETORIA DE PUBLICIDADE INSTITUCIONAL 0,00 1.092,10 10.921,00 0,00 0,00 0,00 12.013,10 1.055,97 2.143,85 0,00 3.199,82 8.813,28 799,00 0,00 29/02/2016
76 623400 ALESSANDRO DE OLIVEIRA REZENDE ANALISTA DO MP ATIVO BELO HORIZONTE - COMARCA; DIVISAO DE MEMORIA INSTITUCIONAL 5.307,28 0,00 0,00 0,00 0,00 0,00 5.307,28 657,44 429,60 0,00 1.087,04 4.220,24 799,00 669,44 29/02/2016
77 420600 ALESSANDRO SILVA OFICIAL DO MP ATIVO VISCONDE DO RIO BRANCO - COMARCA; VISCONDE DO RIO BRANCO-PJ-02PJ 4.111,94 1.541,98 0,00 0,00 0,00 0,00 5.653,92 961,17 188,75 0,00 1.149,92 4.504,00 799,00 2.055,96 29/02/2016
78 375301 ALETHEIA PATRICIA ASSIS MORAIS MOREIRA ANALISTA DO MP ATIVO ITABIRA - COMARCA; ITABIRA-PJ-02PJ 6.432,09 0,00 0,00 0,00 0,00 0,00 6.432,09 707,53 652,76 0,00 1.360,29 5.071,80 1.431,00 0,00 29/02/2016
79 382300 ALEX CARVALHO LIMA ANALISTA DO MP ATIVO UBERLÂNDIA - COMARCA; UBERLANDIA-PJ-14PJ 7.091,14 901,11 0,00 0,00 0,00 0,00 7.992,25 1.193,46 883,47 0,00 2.076,93 5.915,32 799,00 937,47 29/02/2016
80 195201 ALEX DE CASTRO PEREIRA ANALISTA DO MP ATIVO UBERABA - COMARCA; UBERABA-PJ-09PJ 11.643,70 3.493,11 0,00 0,00 0,00 0,00 15.136,81 2.275,41 2.783,24 0,00 5.058,65 10.078,16 799,00 5.548,76 29/02/2016
81 358900 ALEX DE PAULA LANZA ASSESSOR ATIVO BELO HORIZONTE - COMARCA; DIRETORIA DE IMPRENSA 0,00 0,00 6.641,51 0,00 2.213,84 0,00 8.855,35 570,88 1.628,59 0,00 2.199,47 6.655,88 799,00 0,00 29/02/2016
82 178400 ALEX RODRIGO SALDANHA GUIMARAES OFICIAL DO MP ATIVO BELO HORIZONTE - COMARCA; DIRETORIA DE SISTEMAS DE INFORMACAO 4.977,82 1.493,35 0,00 0,00 0,00 0,00 6.471,17 711,83 714,46 0,00 1.426,29 5.044,88 799,00 0,00 29/02/2016
83 289200 ALEX SANDRO PEREIRA DE MATOS OFICIAL DO MP ATIVO BELO HORIZONTE - COMARCA; PROCON-MG-SECRETARIA DE FISCALIZACOES 3.783,14 1.935,42 0,00 0,00 0,00 0,00 5.718,56 657,07 522,55 0,00 1.179,62 4.538,94 799,00 0,00 29/02/2016
84 413500 ALEX VILELA OLIVEIRA ANALISTA DO MP ATIVO GOVERNADOR VALADARES - COMARCA; COORD REG PJ DEF EDU DIR CRIANCA ADOL RIODOCE 6.807,06 872,70 0,00 0,00 3.199,90 0,00 10.879,66 1.055,97 1.832,15 0,00 2.888,12 7.991,54 799,00 0,00 29/02/2016
85 264300 ALEXANDRA FATIMA SARAIVA SOARES ANALISTA DO MP ATIVO BELO HORIZONTE - COMARCA; CENTRAL DE APOIO TECN-SETOR DE MEIO AMBIENTE 12.022,83 2.404,57 0,00 0,00 0,00 0,00 14.427,40 1.787,20 2.661,75 0,00 4.448,95 9.978,45 799,00 1.819,84 29/02/2016
86 488000 ALEXANDRA LARA PAIS DE CARVALHO ANALISTA DO MP ATIVO GUANHÃES - COMARCA; GUANHAES-PJ-SECRETARIA 6.641,51 398,49 0,00 0,00 0,00 0,00 7.040,00 774,40 697,27 0,00 1.471,67 5.568,33 2.063,00 0,00 29/02/2016
87 256300 ALEXANDRA SANTOS GOMES OFICIAL DO MP ATIVO BELO HORIZONTE - COMARCA; EXTINTA - DIVISÃO DE COMPRAS 6.432,09 1.286,42 0,00 0,00 0,00 0,00 7.718,51 849,04 1.019,74 0,00 1.868,78 5.849,73 799,00 0,00 29/02/2016
88 403300 ALEXANDRE AUGUSTO RODRIGUES ANALISTA DO MP ATIVO ÁGUAS FORMOSAS - COMARCA; AGUAS FORMOSAS-PJ-UNPJ 6.041,54 767,73 0,00 0,00 0,00 0,00 6.809,27 1.104,69 747,73 0,00 1.852,42 4.956,85 799,00 1.597,62 29/02/2016
89 640900 ALEXANDRE BARBOSA MASCARENHAS ANALISTA DO MP ATIVO BETIM - COMARCA; BETIM-PJ-01PJ 4.668,87 0,00 0,00 0,00 0,00 0,00 4.668,87 513,58 183,18 0,00 696,76 3.972,11 1.431,00 0,00 29/02/2016
90 311700 ALEXANDRE BARCELOS RESENDE OFICIAL DO MP ATIVO BELO HORIZONTE - COMARCA; BH-07PJ 03 TRIBUNAL DO JURI-GAB 109PJ 5.307,28 530,73 0,00 0,00 0,00 0,00 5.838,01 702,93 559,49 0,00 1.262,42 4.575,59 799,00 552,30 29/02/2016
91 285600 ALEXANDRE CAMPOS DE OLIVEIRA OFICIAL DO MP ATIVO UBERABA - COMARCA; COORD REG BACIAS PARANAIBA BAIXO RIO GRANDE 7.200,74 1.440,15 0,00 0,00 0,00 0,00 8.640,89 1.070,39 1.089,09 0,00 2.159,48 6.481,41 2.063,00 1.089,92 29/02/2016
92 509200 ALEXANDRE CAPUANO DE REZENDE ANALISTA DO MP ATIVO BELO HORIZONTE - COMARCA; GABINETE DE PROCURADOR DE JUSTIÇA - SALA 715 7.200,74 432,04 0,00 0,00 0,00 0,00 7.632,78 1.100,44 946,62 0,00 2.047,06 5.585,72 799,00 2.371,12 29/02/2016
93 229400 ALEXANDRE CARLOS BOTREL DIRETOR/OFICIAL ATIVO BELO HORIZONTE - COMARCA; SUPERINTENDENCIA DOS ORGAOS COLEGIADOS 0,00 2.831,04 14.155,19 0,00 0,00 0,00 16.986,23 1.151,96 3.485,06 0,00 4.637,02 12.349,21 799,00 0,00 29/02/2016
94 411900 ALEXANDRE CARVALHO SANTOS RIBEIRO ANALISTA DO MP ATIVO SÃO JOÃO DEL REI - COMARCA; SAO JOAO DEL REI-PJ-02PJ 8.727,00 872,70 0,00 0,00 3.199,90 0,00 12.799,60 1.155,87 2.360,14 0,00 3.516,01 9.283,59 2.602,36 1.116,44 29/02/2016
95 641600 ALEXANDRE DA SILVA ASSUNCAO OFICIAL DO MP ATIVO BELO HORIZONTE - COMARCA; BH-17PJ PATRIMONIO PUBLICO-SECRETARIA 3.030,62 0,00 0,00 0,00 0,00 0,00 3.030,62 333,37 59,49 0,00 392,86 2.637,76 799,00 0,00 29/02/2016
96 201200 ALEXANDRE DE ALENCAR CORDEIRO OFICIAL DO MP ATIVO ÁGUAS FORMOSAS - COMARCA; AGUAS FORMOSAS-PJ-UNPJ 4.977,82 1.991,13 0,00 0,00 0,00 0,00 6.968,95 766,58 836,29 0,00 1.602,87 5.366,08 799,00 0,00 29/02/2016
97 288200 ALEXANDRE DE VASCONCELOS COSTA KER ANALISTA DO MP ATIVO BELO HORIZONTE - COMARCA; BH-03PJ EMPRESARIAL-SECRETARIA 8.038,24 2.115,33 0,00 0,00 0,00 0,00 10.153,57 1.396,12 1.486,80 0,00 2.882,92 7.270,65 799,00 0,00 29/02/2016
98 445000 ALEXANDRE DIOGENES OLIVEIRA ANALISTA DO MP ATIVO SALINAS - COMARCA; SALINAS-PJ-02PJ 8.185,27 818,53 0,00 0,00 3.001,27 0,00 12.005,07 1.262,68 2.159,67 0,00 3.422,35 8.582,72 799,00 2.475,12 29/02/2016
99 463400 ALEXANDRE LEAL WINKELSTROTER ANALISTA DO MP ATIVO TEÓFILO OTONI - COMARCA; TEOFILO OTONI-PJ-04PJ 5.449,79 685,78 0,00 0,00 2.514,52 0,00 8.650,09 993,12 1.229,09 0,00 2.222,21 6.427,88 799,00 1.484,76 29/02/2016
100 615700 ALEXANDRE LUIZ DE CASTRO MACIEL ANALISTA DO MP ATIVO IBIRITÉ - COMARCA; IBIRITE-PJ-02PJ 4.245,82 0,00 0,00 0,00 0,00 0,00 4.245,82 583,80 194,50 0,00 778,30 3.467,52 799,00 0,00 29/02/2016
101 356900 ALEXANDRE MOISES MENDONCA E ARAUJO OFICIAL DO MP ATIVO UBERABA - COMARCA; UBERABA-PJ-13PJ 4.977,82 497,78 0,00 0,00 0,00 0,00 5.475,60 602,32 470,79 0,00 1.073,11 4.402,49 799,00 0,00 29/02/2016
102 633300 ALEXANDRE NONATO MARTINS OFICIAL DO MP ATIVO IGARAPÉ - COMARCA; IGARAPE-PJ-02PJ 3.030,62 0,00 0,00 0,00 0,00 0,00 3.030,62 333,37 45,27 0,00 378,64 2.651,98 799,00 0,00 29/02/2016
103 469900 ALEXANDRE PEREIRA GUEDES ANALISTA DO MP ATIVO CATAGUASES - COMARCA; CATAGUASES-PJ-03PJ 5.908,67 743,52 0,00 0,00 0,00 0,00 6.652,19 1.017,70 712,59 0,00 1.730,29 4.921,90 799,00 1.073,18 29/02/2016
104 208700 ALEXANDRE RESENDE FRAGA ANALISTA DO MP ATIVO BELO HORIZONTE - COMARCA; BH-19PJ SAUDE 15.298,25 4.589,48 0,00 0,00 0,00 0,00 19.887,73 2.668,73 3.865,51 0,00 6.534,24 13.353,49 2.063,00 4.373,40 29/02/2016
105 216401 ALEXANDRE RIBEIRO DE LIMA MAIORINO ANALISTA DO MP ATIVO UBERABA - COMARCA; UBERABA-PJ-03PJ 10.576,63 3.172,99 0,00 0,00 0,00 0,00 13.749,62 1.512,46 2.443,72 0,00 3.956,18 9.793,44 799,00 0,00 29/02/2016
106 475100 ALEXANDRE TEOTONIO COSTA ANALISTA DO MP ATIVO ARAGUARI - COMARCA; ARAGUARI-PJ-01PJ 7.435,23 743,52 0,00 0,00 0,00 0,00 8.178,75 1.017,70 1.028,12 0,00 2.045,82 6.132,93 1.431,00 1.073,18 29/02/2016
107 339000 ALEXANDRE VITOR CARDOSO OFICIAL DO MP ATIVO BELO HORIZONTE - COMARCA; BH-18PJ DIREITOS HUMANOS-SECRETARIA 4.977,82 995,56 0,00 0,00 0,00 0,00 5.973,38 998,75 436,21 0,00 1.434,96 4.538,42 799,00 3.106,16 29/02/2016
108 623100 ALEXSANDER BATISTA AGUIAR ANALISTA DO MP ATIVO BELO HORIZONTE - COMARCA; DIRETORIA DE SUPORTE E MANUTENCAO 5.307,28 0,00 0,00 0,00 0,00 0,00 5.307,28 657,44 341,34 0,00 998,78 4.308,50 799,00 725,23 29/02/2016
109 513300 ALFSON MIRANDA BRAGA ANALISTA DO MP ATIVO BELO HORIZONTE - COMARCA; BH-12PJ JUIZO CRIMINAL-GAB 092PJ 7.200,74 432,04 0,00 0,00 0,00 0,00 7.632,78 1.035,23 998,76 0,00 2.033,99 5.598,79 799,00 1.975,93 29/02/2016
110 618400 ALICE MAGALHAES MACEDO DE CARVALHO ANALISTA DO MP ATIVO AÇUCENA - COMARCA; ACUCENA-PJ-UNPJ 5.307,28 0,00 0,00 0,00 0,00 0,00 5.307,28 583,80 429,60 0,00 1.013,40 4.293,88 799,00 0,00 29/02/2016
111 471000 ALICE TITONELI MOREIRA ANALISTA DO MP ATIVO MIRADOURO - COMARCA; MIRADOURO-PJ-UNPJ 7.435,23 743,52 0,00 0,00 0,00 0,00 8.178,75 981,68 1.080,25 0,00 2.061,93 6.116,82 1.431,00 745,68 29/02/2016
112 622400 ALINE BALBINO PORTUGAL ANALISTA DO MP ATIVO TRÊS PONTAS - COMARCA; TRES PONTAS-PJ-03PJ 5.307,28 0,00 0,00 0,00 0,00 0,00 5.307,28 675,85 429,60 0,00 1.105,45 4.201,83 799,00 836,80 29/02/2016
113 373000 ALINE BOTELHO RESENDE OFICIAL DO MP ATIVO PASSA QUATRO - COMARCA; PASSA QUATRO-PJ-SECRETARIA 5.842,66 584,27 0,00 0,00 0,00 0,00 6.426,93 706,96 703,63 0,00 1.410,59 5.016,34 799,00 0,00 29/02/2016
114 407700 ALINE CRISTINA RODRIGUES PEREIRA ANALISTA DO MP ATIVO BELO HORIZONTE - COMARCA; DIRETORIA DE PROJETOS DE EDIFICACOES 6.973,67 697,37 0,00 0,00 0,00 0,00 7.671,04 885,87 1.008,13 0,00 1.894,00 5.777,04 2.063,00 382,41 29/02/2016
115 193100 ALINE CRISTINA SENA OLIVEIRA OFICIAL DO MP ATIVO UBERLÂNDIA - COMARCA; UBERLANDIA-PJ-03PJ 9.920,24 4.150,89 0,00 0,00 0,00 0,00 14.071,13 1.808,62 2.557,95 0,00 4.366,57 9.704,56 799,00 3.545,73 29/02/2016
116 554200 ALINE CRISTINA SILVA SOUZA OFICIAL DO MP ATIVO TIROS - COMARCA; TIROS-PJ-UNPJ 3.792,57 0,00 0,00 0,00 0,00 0,00 3.792,57 417,18 151,51 0,00 568,69 3.223,88 799,00 0,00 29/02/2016
117 505500 ALINE DA CUNHA MARREIROS OLIVEIRA ANALISTA DO MP ATIVO CARANGOLA - COMARCA; CARANGOLA-PJ-03PJ 7.200,74 432,04 0,00 0,00 0,00 0,00 7.632,78 1.165,64 946,62 0,00 2.112,26 5.520,52 799,00 2.963,90 29/02/2016
118 433500 ALINE DE MELO QUEIROZ OFICIAL DO MP ATIVO BELO HORIZONTE - COMARCA; EXTINTO-PROCON ESTADUAL-RELACOES INSTITUCIONA 5.480,05 1.722,83 0,00 0,00 0,00 0,00 7.202,88 725,81 929,08 0,00 1.654,89 5.547,99 799,00 570,15 29/02/2016
119 542700 ALINE DE SOUSA ALBINO ANALISTA DO MP ATIVO CARMO DO PARANAÍBA - COMARCA; CARMO DO PARANAIBA-PJ-01PJ 5.842,66 0,00 0,00 0,00 1.947,55 0,00 7.790,21 642,69 1.096,21 0,00 1.738,90 6.051,31 799,00 0,00 29/02/2016
120 330000 ALINE DIORIO MAYRINK OFICIAL DO MP ATIVO BELO HORIZONTE - COMARCA; SUPERINTENDENCIA DE RECURSOS HUMANOS 4.139,68 530,73 0,00 0,00 0,00 0,00 4.670,41 642,18 270,22 0,00 912,40 3.758,01 799,00 0,00 29/02/2016
121 499000 ALINE FERREIRA LOPES NEIVA ANALISTA DO MP ATIVO TEÓFILO OTONI - COMARCA; COORD. DE DEF. DO PAT. PUBLICO-JEQUIT./MUCURI 7.200,74 432,04 0,00 0,00 0,00 0,00 7.632,78 1.230,85 946,62 0,00 2.177,47 5.455,31 1.620,60 3.556,68 29/02/2016
122 405300 ALINE LAIA CARDOZO ANALISTA DO MP ATIVO BELO HORIZONTE - COMARCA; EXTINTA - DIRETORIA DE CONTRATOS E CONVÊNIOS 7.091,14 901,11 0,00 0,00 3.304,06 0,00 11.296,31 1.193,46 1.937,28 0,00 3.130,74 8.165,57 799,00 937,47 29/02/2016
123 278200 ALINE MARCIA FARIA BARBOSA OFICIAL DO MP ATIVO BARBACENA - COMARCA; BARBACENA-PJ-SECRETARIA 3.783,14 995,56 0,00 0,00 0,00 0,00 4.778,70 657,07 178,13 0,00 835,20 3.943,50 799,00 0,00 29/02/2016
124 389000 ALINE NERI NOBRE ANALISTA DO MP ATIVO MONTES CLAROS - COMARCA; COORD REG PJ DEF EDUC DIR CRIANCA ADOL NORTE 9.011,08 1.802,22 0,00 0,00 0,00 0,00 10.813,30 1.189,46 1.777,20 0,00 2.966,66 7.846,64 799,00 0,00 29/02/2016
125 294600 ALINE PATRICIA SILVA VIEIRA OFICIAL DO MP ATIVO UBERLÂNDIA - COMARCA; UBERLANDIA-PJ-03PJ 7.200,74 2.614,97 0,00 0,00 0,00 0,00 9.815,71 1.070,39 1.464,30 0,00 2.534,69 7.281,02 2.063,00 1.089,92 29/02/2016
126 420000 ALINE RODRIGUES CAMOROPIN ANALISTA DO MP ATIVO SABARÁ - COMARCA; SABARA-PJ-02PJ 6.867,60 872,70 0,00 0,00 0,00 0,00 7.740,30 1.155,87 968,83 0,00 2.124,70 5.615,60 799,00 908,16 29/02/2016
127 408300 ALINE SILVA ARAUJO DE PAULA ANALISTA DO MP ATIVO SÃO SEBASTIÃO DO PARAÍSO - COMARCA; SAO SEBASTIAO DO PARAISO-PJ-02PJ 8.727,00 872,70 0,00 0,00 0,00 0,00 9.599,70 1.055,97 1.480,17 0,00 2.536,14 7.063,56 799,00 0,00 29/02/2016
128 425400 ALINE TRINDADE DE FREITAS CAMPOS OFICIAL DO MP ATIVO BELO HORIZONTE - COMARCA; BH-14PJ DEFESA CONSUMIDOR-SECRETARIA 4.274,44 548,01 0,00 0,00 0,00 0,00 4.822,45 663,09 299,73 0,00 962,82 3.859,63 799,00 0,00 29/02/2016
129 517200 ALISSOM PEREIRA DA SILVA ANALISTA DO MP ATIVO BORDA DA MATA - COMARCA; BORDA DA MATA-PJ-UNPJ 7.200,74 432,04 0,00 0,00 0,00 0,00 7.632,78 839,61 998,76 0,00 1.838,37 5.794,41 799,00 0,00 29/02/2016
130 442400 ALISSON LABRE ANALISTA DO MP ATIVO VARGINHA - COMARCA; VARGINHA-PJ-02PJ 8.185,27 818,53 0,00 0,00 0,00 0,00 9.003,80 1.262,68 1.334,32 0,00 2.597,00 6.406,80 799,00 2.475,12 29/02/2016
131 612900 ALLAN VINICIUS VIEIRA ARAUJO OFICIAL DO MP ATIVO BELO HORIZONTE - COMARCA; BH-09PJ AUDITORIA MILITAR-SECRETARIA 3.445,03 0,00 0,00 0,00 0,00 0,00 3.445,03 590,82 105,11 0,00 695,93 2.749,10 799,00 1.926,08 29/02/2016
132 349000 ALLEC RODRIGUES VIEIRA ASSESSOR/OFICIAL ATIVO BELO HORIZONTE - COMARCA; COORD DE INCLUSAO E MOBILIZACAO SOCIAIS 0,00 930,45 9.304,45 0,00 0,00 0,00 10.234,90 1.125,84 1.635,63 0,00 2.761,47 7.473,43 799,00 0,00 29/02/2016
133 297300 ALLYSON SALIBA MONTEIRO LAIZO ANALISTA DO MP ATIVO CONSELHEIRO LAFAIETE - COMARCA; CONSELHEIRO LAFAIETE-PJ-03PJ 8.937,32 2.328,74 0,00 0,00 4.657,48 0,00 15.923,54 1.682,35 3.086,95 0,00 4.769,30 11.154,24 799,00 1.321,62 29/02/2016
134 303700 ALMIR LOPES LOURES ANALISTA DO MP ATIVO BELO HORIZONTE - COMARCA; CENTRAL DE APOIO TECN-SETOR DE MEIO AMBIENTE 11.643,70 2.328,74 0,00 0,00 0,00 0,00 13.972,44 1.536,97 2.446,12 0,00 3.983,09 9.989,35 799,00 0,00 29/02/2016
135 515900 ALTAIR NEVES JUNIOR OFICIAL DO MP ATIVO BELO HORIZONTE - COMARCA; BH-03PJ EMPRESARIAL-SECRETARIA 4.668,87 280,13 0,00 0,00 0,00 0,00 4.949,00 644,17 354,91 0,00 999,08 3.949,92 799,00 907,06 29/02/2016
136 233300 ALVARINDO BATISTA COORDENADOR/ANALISTA ATIVO BELO HORIZONTE - COMARCA; DIVISAO DE MULTIMIDIA 13.616,17 4.644,71 0,00 0,00 0,00 0,00 18.260,88 2.071,16 3.658,12 0,00 5.729,28 12.531,60 799,00 2.696,76 29/02/2016
137 274100 ALYSSON CARVALHO VIDAL DE LACERDA OFICIAL DO MP ATIVO MANHUAÇU - COMARCA; MANHUACU-PJ-01PJ 5.707,05 1.487,05 0,00 0,00 0,00 0,00 7.194,10 1.074,31 839,12 0,00 1.913,43 5.280,67 799,00 844,17 29/02/2016
138 621000 AMANDA BASTOS ALVES ANALISTA DO MP ATIVO BELO HORIZONTE - COMARCA; ASSESS TECNICO-JUR JUNTO AS PROC. DE JUST 4.820,91 0,00 0,00 0,00 0,00 0,00 4.820,91 630,64 329,26 0,00 959,90 3.861,01 799,00 962,92 29/02/2016
139 521700 AMANDA CRISTINA AGUIAR MACHADO OFICIAL DO MP ATIVO CONGONHAS - COMARCA; CONGONHAS-PJ-01PJ 3.557,16 213,43 0,00 0,00 0,00 0,00 3.770,59 414,76 120,14 0,00 534,90 3.235,69 799,00 0,00 29/02/2016
140 613400 AMANDA DE ASSIS IUNES SANTOS ANALISTA DO MP ATIVO CONSELHEIRO LAFAIETE - COMARCA; CONSELHEIRO LAFAIETE-PJ-08PJ 4.820,91 0,00 0,00 0,00 1.606,97 0,00 6.427,88 530,30 752,47 0,00 1.282,77 5.145,11 1.431,00 0,00 29/02/2016
141 520800 AMANDA DE SOUZA MACHADO ANALISTA DO MP ATIVO BAEPENDI - COMARCA; BAEPENDI-PJ-UNPJ 6.641,51 398,49 0,00 0,00 0,00 0,00 7.040,00 774,40 749,41 0,00 1.523,81 5.516,19 1.431,00 0,00 29/02/2016
142 543100 AMANDA VIEIRA FREITAS BRESSANE ANALISTA DO MP ATIVO PARAGUAÇU - COMARCA; PARAGUACU-PJ-UNPJ 5.307,28 0,00 0,00 0,00 0,00 0,00 5.307,28 583,80 384,00 0,00 967,80 4.339,48 799,00 0,00 29/02/2016
143 434400 AMARILIS ASSIS SIMAO CURCIO ANALISTA DO MP ATIVO MANHUAÇU - COMARCA; MANHUACU-PJ-01PJ 8.185,27 818,53 0,00 0,00 0,00 0,00 9.003,80 990,42 1.334,32 0,00 2.324,74 6.679,06 1.431,00 0,00 29/02/2016
144 273700 AMBROLINA CARNEIRO DE VASCONCELOS OFICIAL DO MP ATIVO FRUTAL - COMARCA; FRUTAL-PJ-01PJ 6.973,67 3.486,84 0,00 0,00 0,00 0,00 10.460,51 1.150,66 1.638,71 0,00 2.789,37 7.671,14 799,00 0,00 29/02/2016
145 58000 AMELIA GUARIZE DE CASTRO OFICIAL DO MP ATIVO JUIZ DE FORA - COMARCA; JUIZ DE FORA-PJ-SECRETARIA 3.397,63 4.932,06 0,00 0,00 3.470,70 1.145,33 12.945,72 1.145,33 2.375,75 0,00 3.521,08 9.424,64 799,00 0,00 29/02/2016
146 324301 AMERICA SUELI FERREIRA DA SILVA ANALISTA DO MP ATIVO MONTE CARMELO - COMARCA; MONTE CARMELO-PJ-02PJ 7.435,23 743,52 0,00 0,00 0,00 0,00 8.178,75 981,68 1.080,25 0,00 2.061,93 6.116,82 1.431,00 745,68 29/02/2016
147 273300 AMUJACY DE BRITO ASSIZ OFICIAL DO MP ATIVO BELO HORIZONTE - COMARCA; BH-12PJ JUIZO CRIMINAL-SECRETARIA 5.472,56 1.440,15 0,00 0,00 0,00 0,00 6.912,71 950,50 561,70 0,00 1.512,20 5.400,51 1.768,07 0,00 29/02/2016
148 482200 ANA ALICE LOPES ACHTSCHIN ANALISTA DO MP ATIVO BELO HORIZONTE - COMARCA; PROC JUST RECURSOS ESP E EXTRAORD CRIMINAIS 5.908,67 743,52 0,00 0,00 0,00 0,00 6.652,19 899,66 712,59 0,00 1.612,25 5.039,94 799,00 0,00 29/02/2016
149 490400 ANA AMELIA PAULINO GARCIA OFICIAL DO MP ATIVO CONTAGEM - COMARCA; CONTAGEM-PJ-13PJ 4.668,87 280,13 0,00 0,00 0,00 0,00 4.949,00 544,39 354,91 0,00 899,30 4.049,70 799,00 0,00 29/02/2016
150 279100 ANA CAROLINA ARAUJO PEREIRA ANALISTA DO MP ATIVO BELO HORIZONTE - COMARCA; DIRETORIA DE PROJETOS DE EDIFICACOES 8.937,32 2.328,74 0,00 0,00 0,00 0,00 11.266,06 1.682,35 1.754,00 0,00 3.436,35 7.829,71 1.431,00 1.321,62 29/02/2016
151 359400 ANA CAROLINA DE ABREU FARIA ASSESSOR ATIVO BELO HORIZONTE - COMARCA; DIVISAO DE CONTROLE IMOBILIARIO 0,00 0,00 6.641,51 0,00 0,00 0,00 6.641,51 570,88 1.019,79 0,00 1.590,67 5.050,84 799,00 0,00 29/02/2016
152 408500 ANA CAROLINA DE CASTRO CARVALHO ANALISTA DO MP ATIVO BARBACENA - COMARCA; BARBACENA-PJ-SECRETARIA 7.127,05 872,70 0,00 0,00 0,00 0,00 7.999,75 1.055,97 1.040,18 0,00 2.096,15 5.903,60 799,00 0,00 29/02/2016
153 420200 ANA CAROLINA FERNANDES SILVA ANALISTA DO MP ATIVO BELO HORIZONTE - COMARCA; GABINETE DE PROCURADOR DE JUSTIÇA - SALA 708 8.185,27 818,53 0,00 0,00 0,00 0,00 9.003,80 990,42 1.334,32 0,00 2.324,74 6.679,06 799,00 0,00 29/02/2016
154 522100 ANA CAROLINA FERNANDINO VIDAL PEREIRA SANTOS OFICIAL DO MP ATIVO BELO HORIZONTE - COMARCA; EXTINTA - SECRETARIA ADMINISTRATIVA 4.241,01 254,46 0,00 0,00 0,00 0,00 4.495,47 494,50 264,09 0,00 758,59 3.736,88 799,00 0,00 29/02/2016
155 502400 ANA CAROLINA GONCALVES FERNANDES ANALISTA DO MP ATIVO GRAO MOGOL - COMARCA; GRAO MOGOL-PJ-UNPJ 6.731,41 432,04 0,00 0,00 0,00 0,00 7.163,45 1.165,64 869,70 0,00 2.035,34 5.128,11 799,00 2.963,90 29/02/2016
156 529900 ANA CAROLINA GONCALVES PECANHA CHEQUER ANALISTA DO MP ATIVO MANHUAÇU - COMARCA; MANHUACU-PJ-04PJ 5.842,66 0,00 0,00 0,00 0,00 0,00 5.842,66 642,69 560,63 0,00 1.203,32 4.639,34 799,00 0,00 29/02/2016
157 431900 ANA CAROLINA MOTTA GUATIMOSIM ANALISTA DO MP ATIVO BELO HORIZONTE - COMARCA; GABINETE DE PROCURADOR DE JUSTIÇA - SALA 1006 8.185,27 818,53 0,00 0,00 0,00 0,00 9.003,80 990,42 1.334,32 0,00 2.324,74 6.679,06 799,00 0,00 29/02/2016
158 490600 ANA CAROLINA XAVIER GODOY ANALISTA DO MP ATIVO BELO HORIZONTE - COMARCA; BH-18PJ VIOLENCIA DOMESTICA 7.200,74 432,04 0,00 0,00 0,00 0,00 7.632,78 839,61 998,76 0,00 1.838,37 5.794,41 799,00 0,00 29/02/2016
159 600300 ANA CAROLINE PEREIRA DINIZ ANALISTA DO MP ATIVO BELO HORIZONTE - COMARCA; COMB CRIMES PRAT POR AG POL MUN-SECRETARIA 4.781,20 0,00 0,00 0,00 0,00 0,00 4.781,20 996,04 295,03 0,00 1.291,07 3.490,13 1.431,00 3.212,28 29/02/2016
160 615800 ANA CAROLINE PEREIRA OLIVEIRA OFICIAL DO MP ATIVO ALFENAS - COMARCA; ALFENAS-PJ-06PJ 3.445,03 0,00 0,00 0,00 0,00 0,00 3.445,03 378,95 105,11 0,00 484,06 2.960,97 799,00 0,00 29/02/2016
161 324800 ANA CECILIA MENDES DA SILVA OFICIAL DO MP ATIVO OURO FINO - COMARCA; OURO FINO-PJ-01PJ 6.973,67 2.092,10 0,00 0,00 3.021,92 0,00 12.087,69 1.707,71 2.128,38 0,00 3.836,09 8.251,60 1.431,00 6.458,86 29/02/2016
162 441300 ANA CLAUDIA ALKIMIM MIRANDA BOMTEMPO ANALISTA DO MP ATIVO MONTES CLAROS - COMARCA; MONTES CLAROS-PJ-11PJ 8.185,27 818,53 0,00 0,00 0,00 0,00 9.003,80 1.444,19 1.230,05 0,00 2.674,24 6.329,56 1.431,00 4.125,20 29/02/2016
163 604900 ANA CLAUDIA OLIVEIRA DE MIRANDA OFICIAL DO MP ATIVO PONTE NOVA - COMARCA; PONTE NOVA-PJ-04PJ 3.129,28 0,00 0,00 0,00 1.043,09 0,00 4.172,37 365,92 190,98 0,00 556,90 3.615,47 799,00 197,32 29/02/2016
164 379300 ANA CRISTINA ALVES FLAVIO ANALISTA DO MP ATIVO SÃO GOTARDO - COMARCA; SAO GOTARDO-PJ-01PJ 9.011,08 901,11 0,00 0,00 0,00 0,00 9.912,19 1.193,46 1.452,37 0,00 2.645,83 7.266,36 5.493,81 1.309,89 29/02/2016
165 461200 ANA CRISTINA ALVES PASCHOAL ANALISTA DO MP ATIVO SANTA LUZIA - COMARCA; SANTA LUZIA-PJ-03PJ 6.671,95 446,11 0,00 0,00 0,00 0,00 7.118,06 948,97 849,70 0,00 1.798,67 5.319,39 799,00 745,68 29/02/2016
166 514100 ANA CRISTINA ARAUJO ASSUNCAO ANALISTA DO MP ATIVO BELO HORIZONTE - COMARCA; ASSESS JUR DO CONS SUPERIOR DO MINISTERIO PUB 7.200,74 432,04 0,00 0,00 0,00 0,00 7.632,78 970,03 946,62 0,00 1.916,65 5.716,13 1.431,00 1.185,56 29/02/2016
167 113400 ANA CRISTINA BRAGA ALBUQUERQUE ANALISTA DO MP ATIVO BELO HORIZONTE - COMARCA; ASSESS ESP ADM E FINANCEIRA DO PGJ ADJ ADM 24.459,17 12.229,59 0,00 0,00 0,00 0,00 36.688,76 3.351,82 6.588,44 6.217,65 16.157,91 20.530,85 799,00 0,00 29/02/2016
168 233800 ANA CRISTINA BRAGA SOARES RIOS OFICIAL DO MP ATIVO CONTAGEM - COMARCA; CONTAGEM-PJ-SECRETARIA 7.200,74 1.440,15 0,00 0,00 0,00 0,00 8.640,89 950,50 1.245,50 0,00 2.196,00 6.444,89 799,00 0,00 29/02/2016
169 186400 ANA CRISTINA DE AZEVEDO LOPES OFICIAL DO MP ATIVO UBÁ - COMARCA; UBA-PJ-01PJ 7.340,98 2.976,07 0,00 0,00 0,00 0,00 10.317,05 1.418,59 1.525,58 0,00 2.944,17 7.372,88 799,00 0,00 29/02/2016
170 465100 ANA CRISTINA DE OLIVEIRA GUIMARAES ANALISTA DO MP ATIVO BRASÓPOLIS - COMARCA; BRASOPOLIS-PJ-UNPJ 7.435,23 743,52 0,00 0,00 0,00 0,00 8.178,75 1.076,73 1.080,25 0,00 2.156,98 6.021,77 1.431,00 1.609,77 29/02/2016
171 500600 ANA CRISTINA LATADO SUDARIO ANALISTA DO MP ATIVO UBERLÂNDIA - COMARCA; UBERLANDIA-PJ-09PJ 7.200,74 432,04 0,00 0,00 0,00 0,00 7.632,78 1.165,64 998,76 0,00 2.164,40 5.468,38 799,00 2.963,90 29/02/2016
172 331400 ANA CRISTINA RIBEIRO ALVES OFICIAL DO MP ATIVO BAMBUÍ - COMARCA; BAMBUI-PJ-UNPJ 6.229,29 1.245,86 0,00 0,00 0,00 0,00 7.475,15 822,27 960,18 0,00 1.782,45 5.692,70 799,00 0,00 29/02/2016
173 249300 ANA ELOINA MARTINS DO PINHO OFICIAL DO MP ATIVO BETIM - COMARCA; BETIM-PJ-08PJ 5.931,10 2.378,16 0,00 0,00 0,00 0,00 8.309,26 1.276,54 1.051,81 0,00 2.328,35 5.980,91 799,00 1.299,52 29/02/2016
174 257400 ANA FLAVIA CAMBRAIA ANALISTA DO MP ATIVO BELO HORIZONTE - COMARCA; BH-19PJ SAUDE-SECRETARIA 150PJ 12.022,83 2.404,57 0,00 0,00 0,00 0,00 14.427,40 1.787,20 2.609,61 0,00 4.396,81 10.030,59 799,00 1.819,84 29/02/2016
175 248201 ANA FLAVIA DE MORAIS SOUZA ANALISTA DO MP ATIVO DIVINÓPOLIS - COMARCA; DIVINOPOLIS-PJ-01PJ 5.995,08 1.487,05 0,00 0,00 0,00 0,00 7.482,13 1.074,31 866,19 0,00 1.940,50 5.541,63 1.431,00 844,17 29/02/2016
176 621100 ANA FLAVIA DINIZ TEODORO OFICIAL DO MP ATIVO SANTA LUZIA - COMARCA; SANTA LUZIA-PJ-06PJ 3.129,28 0,00 0,00 0,00 0,00 0,00 3.129,28 409,33 66,08 0,00 475,41 2.653,87 2.050,71 656,14 29/02/2016
177 238600 ANA FLAVIA FRANCO OFICIAL DO MP ATIVO BELO HORIZONTE - COMARCA; DIRETORIA DE PESSOAL ADMINISTRATIVO - DPAD 8.727,00 2.618,10 0,00 0,00 0,00 0,00 11.345,10 1.821,79 1.907,35 0,00 3.729,14 7.615,96 799,00 5.216,62 29/02/2016
178 402900 ANA FLAVIA PORTES DE CARVALHO ANALISTA DO MP ATIVO BELO HORIZONTE - COMARCA; DIRET DE PLANOS PROJETOS E PROGRAMAS INST 7.091,14 901,11 0,00 0,00 0,00 0,00 7.992,25 1.193,46 976,53 0,00 2.169,99 5.822,26 799,00 937,47 29/02/2016
179 382700 ANA KARENINA SALDANHA GONTIJO ANALISTA DO MP ATIVO BELO HORIZONTE - COMARCA; ASSESS TECNICO-JUR JUNTO AS PROC. DE JUST 7.677,29 767,73 0,00 0,00 0,00 0,00 8.445,02 928,95 1.197,56 0,00 2.126,51 6.318,51 1.431,00 0,00 29/02/2016
180 620500 ANA KARINE DE ANDRADE OLIVEIRA ANALISTA DO MP ATIVO RIBEIRÃO DAS NEVES - COMARCA; RIBEIRAO DAS NEVES-PJ-10PJ 4.198,39 0,00 0,00 0,00 0,00 0,00 4.198,39 630,64 195,41 0,00 826,05 3.372,34 799,00 962,92 29/02/2016
181 220000 ANA LUCIA AMORIM OFICIAL DO MP ATIVO MARTINHO CAMPOS - COMARCA; MARTINHO CAMPOS-PJ-SECRETARIA 8.451,80 4.225,90 0,00 0,00 0,00 0,00 12.677,70 1.394,55 2.233,51 0,00 3.628,06 9.049,64 799,00 0,00 29/02/2016
182 462200 ANA LUCIA ANDRADE TOMICH OTTONI ANALISTA DO MP ATIVO TEÓFILO OTONI - COMARCA; TEOFILO OTONI-PJ-06PJ 7.435,23 743,52 0,00 0,00 0,00 0,00 8.178,75 1.076,73 1.028,12 0,00 2.104,85 6.073,90 799,00 1.609,77 29/02/2016
183 504100 ANA LUCIA CATAO DE CARVALHO OFICIAL DO MP ATIVO BELO HORIZONTE - COMARCA; BH-09PJ AUDITORIA MILITAR 4.369,17 280,13 0,00 0,00 0,00 0,00 4.649,30 793,83 244,82 0,00 1.038,65 3.610,65 2.063,00 2.418,83 29/02/2016
184 274700 ANA LUCIA DE ALENCAR BRAGATO OFICIAL DO MP ATIVO UBERABA - COMARCA; UBERABA-PJ-07PJ 6.973,67 1.394,73 0,00 0,00 0,00 0,00 8.368,40 920,52 1.126,67 0,00 2.047,19 6.321,21 799,00 0,00 29/02/2016
185 509400 ANA LUCIA DORNELAS MALLOSTO ANALISTA DO MP ATIVO JUIZ DE FORA - COMARCA; JUIZ DE FORA-PJ-18PJ 6.641,51 398,49 0,00 0,00 0,00 0,00 7.040,00 1.058,24 801,54 0,00 1.859,78 5.180,22 799,00 2.580,36 29/02/2016
186 524600 ANA LUCIA DOS SANTOS FERNANDES COELHO ASSESSOR ATIVO BELO HORIZONTE - COMARCA; COORD ESTADUAL DE DEFESA DA EDUCACAO 0,00 0,00 3.975,17 0,00 0,00 0,00 3.975,17 547,16 314,95 0,00 862,11 3.113,06 799,00 0,00 29/02/2016
187 302600 ANA LUCIA LOPES SANTOS OFICIAL DO MP ATIVO BELO HORIZONTE - COMARCA; PROCON-MG-SECRETARIA DE FISCALIZACOES 5.944,54 2.412,91 0,00 0,00 0,00 0,00 8.357,45 1.314,46 1.363,90 0,00 2.678,36 5.679,09 799,00 3.581,20 29/02/2016
188 493400 ANA LUISA NOGUEIRA MOREIRA ANALISTA DO MP ATIVO BELO HORIZONTE - COMARCA; TRIBUNAL DO JURI-07 PJ-02 TRIBUNAL 7.200,74 432,04 0,00 0,00 2.544,26 0,00 10.177,04 839,61 1.698,43 0,00 2.538,04 7.639,00 4.861,81 372,42 29/02/2016
189 389300 ANA LUISA REUTER LIMA ANALISTA DO MP ATIVO BELO HORIZONTE - COMARCA; DIRETORIA DE SISTEMAS DE INFORMACAO 5.851,07 743,52 0,00 0,00 0,00 0,00 6.594,59 984,78 696,75 0,00 1.681,53 4.913,06 799,00 773,82 29/02/2016
190 480600 ANA LUIZA FERNANDES FRAGA E GRECO OFICIAL DO MP ATIVO SANTO ANTÔNIO DO MONTE - COMARCA; SANTO ANTONIO DO MONTE-PJ-UNPJ 4.379,06 437,91 0,00 0,00 0,00 0,00 4.816,97 529,87 328,47 0,00 858,34 3.958,63 799,00 0,00 29/02/2016
191 517800 ANA LUIZA MAGALHAES CIRINO PIOTO DE MELO OFICIAL DO MP ATIVO BELO HORIZONTE - COMARCA; DIVISAO DE MANUTENCAO PREDIAL 3.916,07 234,96 0,00 0,00 1.383,68 0,00 5.534,71 456,61 527,12 0,00 983,73 4.550,98 799,00 0,00 29/02/2016
192 481400 ANA MARCIA CANDIDA FERREIRA OFICIAL DO MP ATIVO BRUMADINHO - COMARCA; BRUMADINHO-PJ-01PJ 4.043,58 404,36 0,00 0,00 0,00 0,00 4.447,94 489,27 254,57 0,00 743,84 3.704,10 799,00 0,00 29/02/2016
193 556400 ANA MARIA OLIVEIRA SOUZA OFICIAL DO MP ATIVO ITAPECERICA - COMARCA; ITAPECERICA-PJ-UNPJ 3.445,03 0,00 0,00 0,00 0,00 0,00 3.445,03 378,95 105,11 0,00 484,06 2.960,97 2.866,02 103,35 29/02/2016
194 409600 ANA OLIVIA FARIA ROSENBURG ANALISTA DO MP ATIVO BELO HORIZONTE - COMARCA; DIRETORIA DO COLEGIO E DA CAMARA DE PJ 8.727,00 1.745,40 0,00 0,00 0,00 0,00 10.472,40 1.151,96 1.693,76 0,00 2.845,72 7.626,68 799,00 0,00 29/02/2016
195 461500 ANA PAULA ALVES CARVALHO ANALISTA DO MP ATIVO UBERLÂNDIA - COMARCA; UBERLANDIA-PJ-08PJ 7.435,23 743,52 0,00 0,00 0,00 0,00 8.178,75 1.076,73 1.132,39 0,00 2.209,12 5.969,63 1.431,00 1.609,77 29/02/2016
196 523200 ANA PAULA ALVES DA SILVA OFICIAL DO MP ATIVO GOVERNADOR VALADARES - COMARCA; GOVERNADOR VALADARES-PJ-10PJ 4.241,01 254,46 0,00 0,00 0,00 0,00 4.495,47 494,50 264,09 0,00 758,59 3.736,88 1.431,00 0,00 29/02/2016
197 381200 ANA PAULA BARROS PEREIRA ANALISTA DO MP ATIVO BELO HORIZONTE - COMARCA; PROC JUST RECURSOS ESP E EXTRAORD CRIMINAIS 9.011,08 901,11 0,00 0,00 3.304,06 0,00 13.216,25 1.193,46 2.465,27 0,00 3.658,73 9.557,52 799,00 937,47 29/02/2016
198 227200 ANA PAULA DA SILVA CAMPOLINA ANALISTA DO MP ATIVO BELO HORIZONTE - COMARCA; SUPERINTENDENCIA DE FINANCAS 13.616,17 5.446,47 0,00 0,00 0,00 0,00 19.062,64 2.416,36 3.796,22 0,00 6.212,58 12.850,06 799,00 2.904,20 29/02/2016
199 84200 ANA PAULA DE SOUZA ROCHA OFICIAL DO MP ATIVO BELO HORIZONTE - COMARCA; ASSESS ESP ADM E FINANCEIRA DO PGJ ADJ ADM 22.988,40 11.494,20 0,00 0,00 10.157,04 0,00 44.639,64 3.351,82 9.277,36 4.011,49 16.640,67 27.998,97 799,00 0,00 29/02/2016
200 278500 ANA PAULA DIAS CAPANEMA COORDENADOR/OFICIAL ATIVO BELO HORIZONTE - COMARCA; EXTINTA - DIRETORIA DE MATERIAL E PATRIMONIO 0,00 2.184,20 10.921,00 0,00 0,00 0,00 13.105,20 920,52 2.481,43 0,00 3.401,95 9.703,25 799,00 0,00 29/02/2016
201 327300 ANA PAULA GARCIA MAXIMO OFICIAL DO MP ATIVO UNAÍ - COMARCA; UNAI-PJ-01PJ 5.301,33 2.092,10 0,00 0,00 0,00 0,00 7.393,43 1.307,02 733,18 0,00 2.040,20 5.353,23 799,00 2.816,20 29/02/2016
202 270000 ANA PAULA GOULART CRUZ DE MAGALHAES ANALISTA DO MP ATIVO BELO HORIZONTE - COMARCA; COMB CRIMES PRAT POR AG POL MUN-ASSESSORIA 8.583,56 1.860,89 0,00 0,00 3.721,78 0,00 14.166,23 1.344,36 2.688,60 0,00 4.032,96 10.133,27 799,00 1.056,12 29/02/2016
203 262100 ANA PAULA KOMATSUZAKI ABIJAUDI ANALISTA DO MP ATIVO BELO HORIZONTE - COMARCA; BH-17PJ PATRIMONIO PUBLICO-SECRETARIA 12.022,83 4.809,13 0,00 0,00 0,00 0,00 16.831,96 2.068,39 3.145,99 0,00 5.214,38 11.617,58 799,00 1.971,48 29/02/2016
204 278900 ANA PAULA MOREIRA GURGEL ANALISTA DO MP ATIVO BELO HORIZONTE - COMARCA; SUPERINTENDENCIA DE RECURSOS HUMANOS 11.643,70 3.493,11 0,00 0,00 0,00 0,00 15.136,81 1.665,05 2.835,37 0,00 4.500,42 10.636,39 799,00 0,00 29/02/2016
205 425701 ANA PAULA ROCHA ASSESSOR/ANALISTA ATIVO BELO HORIZONTE - COMARCA; SUPERINTENDENCIA DE COMUNICACAO INTEGRADA 0,00 0,00 6.641,51 0,00 0,00 0,00 6.641,51 565,39 801,57 0,00 1.366,96 5.274,55 799,00 0,00 29/02/2016
206 395601 ANA PAULA SALGE OLIVEIRA ANALISTA DO MP ATIVO UBERABA - COMARCA; COORD REG PP TRIANGULO MINEIRO UBERABA 7.200,74 1.440,15 0,00 0,00 0,00 0,00 8.640,89 950,50 1.245,50 0,00 2.196,00 6.444,89 799,00 0,00 29/02/2016
207 473200 ANA PAULA SCOTTON BRASIL ANALISTA DO MP ATIVO JUIZ DE FORA - COMARCA; JUIZ DE FORA-PJ-09PJ 5.908,67 446,11 0,00 0,00 0,00 0,00 6.354,78 921,63 639,79 0,00 1.561,42 4.793,36 799,00 497,12 29/02/2016
208 633600 ANA PAULA SILVA FERNANDES OFICIAL DO MP ATIVO CATAGUASES - COMARCA; CATAGUASES-PJ-04PJ 2.727,56 0,00 0,00 0,00 0,00 0,00 2.727,56 333,37 36,76 0,00 370,13 2.357,43 799,00 0,00 29/02/2016
209 470900 ANA PAULA VALADARES ANALISTA DO MP ATIVO PITANGUI - COMARCA; PITANGUI-PJ-01PJ 5.908,67 743,52 0,00 0,00 0,00 0,00 6.652,19 981,68 608,31 0,00 1.589,99 5.062,20 799,00 745,68 29/02/2016
210 447000 ANA PAULA VALENTIM DE ARAUJO ANALISTA DO MP ATIVO BELO HORIZONTE - COMARCA; COMB CRIMES PRAT POR AG POL MUN-SECRETARIA 6.549,52 818,53 0,00 0,00 0,00 0,00 7.368,05 1.171,92 884,49 0,00 2.056,41 5.311,64 799,00 1.650,08 29/02/2016
211 604200 ANA PAULA VIANA E SILVA OFICIAL DO MP ATIVO BELO HORIZONTE - COMARCA; BH-17PJ PATRIMONIO PUBLICO-SECRETARIA 3.792,57 0,00 0,00 0,00 0,00 0,00 3.792,57 531,87 151,51 0,00 683,38 3.109,19 1.431,00 1.042,62 29/02/2016
212 505400 ANA PAULA VIEIRA SOUTO OFICIAL DO MP ATIVO ALMENARA - COMARCA; COORD. PAT. PUBLICO-MUCURI/JEQUIT - ALMENARA 3.062,35 1.174,82 0,00 0,00 0,00 0,00 4.237,17 992,53 168,34 0,00 1.160,87 3.076,30 799,00 3.932,05 29/02/2016
213 280200 ANA RACHEL BRANDAO LADEIRA ROLAND COORDENADOR/ANALISTA ATIVO BELO HORIZONTE - COMARCA; ASSESSORIA JURIDICO-ADMINISTRATIVA 0,00 2.831,04 14.155,19 0,00 0,00 0,00 16.986,23 1.536,97 3.379,19 0,00 4.916,16 12.070,07 799,00 0,00 29/02/2016
214 601200 ANA REGINA RIBEIRO ANALISTA DO MP ATIVO BELO HORIZONTE - COMARCA; EXTINTA - DIVISAO DE SERVICOS GERAIS 5.307,28 0,00 0,00 0,00 0,00 0,00 5.307,28 851,30 429,60 0,00 1.280,90 4.026,38 799,00 2.431,85 29/02/2016
215 384700 ANA RODRIGUES PEREIRA MARRA ANALISTA DO MP ATIVO COROMANDEL - COMARCA; COROMANDEL-PJ-SECRETARIA 6.973,67 697,37 0,00 0,00 0,00 0,00 7.671,04 843,81 955,99 0,00 1.799,80 5.871,24 799,00 0,00 29/02/2016
216 232700 ANA SILVIA SEMBLANO NAKAMURA ASSESSOR/OFICIAL ATIVO BELO HORIZONTE - COMARCA; CENT DE APOIO TEC-SETOR DEF,IDOSO E INFANC 0,00 1.690,36 8.451,80 0,00 0,00 0,00 10.142,16 981,45 1.649,84 0,00 2.631,29 7.510,87 799,00 0,00 29/02/2016
217 326700 ANA TERCIA DE FATIMA COSTA OFICIAL DO MP ATIVO NOVA SERRANA - COMARCA; NOVA SERRANA-PJ-01PJ 4.888,39 1.286,42 0,00 0,00 0,00 849,04 7.023,85 849,04 776,58 0,00 1.625,62 5.398,23 799,00 0,00 29/02/2016
218 602100 ANACLETO FRANCISCO MARCIER PIMENTA OFICIAL DO MP ATIVO SÃO JOÃO DEL REI - COMARCA; SAO JOAO DEL REI-PJ-01PJ 3.445,03 0,00 0,00 0,00 0,00 0,00 3.445,03 517,88 44,50 0,00 562,38 2.882,65 1.431,00 1.263,00 29/02/2016
219 310400 ANADEJE DO CARMO DINIZ ARAUJO OFICIAL DO MP ATIVO BELO HORIZONTE - COMARCA; CENT DE ATENDIMENTO E ORIENTACAO DE PESSOAL 4.888,39 1.286,42 0,00 0,00 0,00 0,00 6.174,81 849,04 595,23 0,00 1.444,27 4.730,54 799,00 0,00 29/02/2016
220 337000 ANAILDES MARIA MENDES OFICIAL DO MP ATIVO JANAÚBA - COMARCA; JANAUBA-PJ-02PJ 4.033,53 2.001,32 0,00 0,00 0,00 0,00 6.034,85 700,56 597,57 0,00 1.298,13 4.736,72 1.431,00 0,00 29/02/2016
221 192900 ANATALIA CERQUEIRA LIMA PERES OFICIAL DO MP ATIVO UBERABA - COMARCA; COORD REG SAUDE MACROR SANIT TRIANGULO SUL 6.254,33 2.535,54 0,00 0,00 0,00 0,00 8.789,87 1.208,61 1.215,49 0,00 2.424,10 6.365,77 799,00 0,00 29/02/2016
222 377400 ANDEIRSON DA MATTA BARBOSA ANALISTA DO MP ATIVO POUSO ALEGRE - COMARCA; POUSO ALEGRE-PJ-01PJ 7.677,29 767,73 0,00 0,00 0,00 0,00 8.445,02 928,95 1.197,56 0,00 2.126,51 6.318,51 4.177,01 309,65 29/02/2016
223 317400 ANDERSON DA SILVA BICALHO OFICIAL DO MP ATIVO CONTAGEM - COMARCA; COORD REG DEF ORDEM ECONOMICA TRIB CONTAGEM 5.842,66 1.168,53 0,00 0,00 0,00 0,00 7.011,19 1.028,31 690,22 0,00 1.718,53 5.292,66 1.431,00 2.337,08 29/02/2016
224 506900 ANDERSON DE SOUZA DAMIANI ANALISTA DO MP ATIVO BELO HORIZONTE - COMARCA; DIRETORIA DE PAGAMENTO DE PESSOAL-DPAG 5.193,61 1.328,30 0,00 0,00 0,00 0,00 6.521,91 1.198,01 578,80 0,00 1.776,81 4.745,10 1.431,00 3.164,63 29/02/2016
225 410000 ANDERSON DE SOUZA NETO ASSESSOR ATIVO BELO HORIZONTE - COMARCA; DIRETORIA DE ADMINISTRACAO FINANCEIRA 0,00 0,00 4.175,17 0,00 0,00 0,00 4.175,17 547,16 359,95 0,00 907,11 3.268,06 799,00 0,00 29/02/2016
226 181900 ANDERSON FLAVIO DE OLIVEIRA OFICIAL DO MP ATIVO ITAGUARA - COMARCA; ITAGUARA-PJ-SECRETARIA 8.727,00 2.618,10 0,00 0,00 0,00 0,00 11.345,10 1.247,96 1.907,35 0,00 3.155,31 8.189,79 799,00 0,00 29/02/2016
227 119500 ANDERSON FUNGHI DE AZEVEDO ROCHA DIRETOR/OFICIAL ATIVO BELO HORIZONTE - COMARCA; SUPRIN DE PLANEJAMENTO E COORDENACAO 0,00 11.324,16 14.155,19 0,00 0,00 0,00 25.479,35 2.232,76 5.419,18 0,00 7.651,94 17.827,41 799,00 0,00 29/02/2016
228 333200 ANDERSON JOSE DE FREITAS OFICIAL DO MP ATIVO IPATINGA - COMARCA; IPATINGA-PJ-07PJ 4.888,39 2.226,28 0,00 0,00 0,00 0,00 7.114,67 849,04 749,41 0,00 1.598,45 5.516,22 5.493,81 372,42 29/02/2016
229 462100 ANDERSON LUIZ GUIMARAES CARDOSO ANALISTA DO MP ATIVO BARBACENA - COMARCA; BARBACENA-PJ-02PJ 5.908,67 743,52 0,00 0,00 0,00 0,00 6.652,19 981,68 712,59 0,00 1.694,27 4.957,92 799,00 745,68 29/02/2016
230 429700 ANDERSON MELO DE SOUZA OFICIAL DO MP ATIVO BELO HORIZONTE - COMARCA; DIRET DE ESTAGIOS E CONVENIOS ACADEMICOS 4.379,06 437,91 0,00 0,00 0,00 0,00 4.816,97 529,87 328,47 0,00 858,34 3.958,63 799,00 0,00 29/02/2016
231 545600 ANDERSON MENDES PROCOPIO FERREIRA ANALISTA DO MP ATIVO BELO HORIZONTE - COMARCA; BH-12PJ JUIZO CRIMINAL-GAB 089PJ 5.842,66 0,00 0,00 0,00 0,00 0,00 5.842,66 642,69 560,63 0,00 1.203,32 4.639,34 799,00 0,00 29/02/2016
232 519900 ANDERSON MOREIRA DOEHLER ANALISTA DO MP ATIVO NOVO CRUZEIRO - COMARCA; NOVO CRUZEIRO-PJ-UNPJ 6.641,51 1.328,30 0,00 0,00 0,00 0,00 7.969,81 876,68 1.081,25 0,00 1.957,93 6.011,88 799,00 0,00 29/02/2016
233 103000 ANDERSON TADEU DE DEUS ASSESSOR ATIVO BELO HORIZONTE - COMARCA; EXTINTA - DIVISAO DE TRANSPORTES 0,00 2.087,58 4.175,17 0,00 0,00 0,00 6.262,75 570,88 915,63 0,00 1.486,51 4.776,24 799,00 0,00 29/02/2016
234 309200 ANDITYAS SOARES DE MOURA COSTA MATOS ANALISTA DO MP ATIVO BELO HORIZONTE - COMARCA; GABINETE DE PROCURADOR DE JUSTIÇA - SALA 909 9.920,24 1.984,05 0,00 0,00 0,00 0,00 11.904,29 1.669,50 2.044,22 0,00 3.713,72 8.190,57 799,00 3.272,97 29/02/2016
235 613500 ANDRE AZEVEDO SOUSA ANALISTA DO MP ATIVO BELO HORIZONTE - COMARCA; CAO-CRIANCAS E ADOLESCENTES 5.307,28 0,00 0,00 0,00 0,00 0,00 5.307,28 583,80 384,00 0,00 967,80 4.339,48 799,00 0,00 29/02/2016
236 519200 ANDRE BORJA LANA ANALISTA DO MP ATIVO BELO HORIZONTE - COMARCA; DIRETORIA DE IMPRENSA 5.792,74 432,04 0,00 0,00 0,00 0,00 6.224,78 839,61 611,56 0,00 1.451,17 4.773,61 799,00 0,00 29/02/2016
237 637200 ANDRE FERNANDES DA CUNHA OFICIAL DO MP ATIVO MORADA NOVA DE MINAS - COMARCA; MORADA NOVA DE MINAS-PJ-UNPJ 3.336,37 0,00 0,00 0,00 0,00 0,00 3.336,37 367,00 90,61 0,00 457,61 2.878,76 799,00 0,00 29/02/2016
238 521900 ANDRE LUIS GOMES SILVA ANALISTA DO MP ATIVO FORMIGA - COMARCA; FORMIGA-PJ-01PJ 5.233,51 398,49 0,00 0,00 2.346,67 0,00 7.978,67 774,40 815,30 0,00 1.589,70 6.388,97 799,00 0,00 29/02/2016
239 637300 ANDRE LUIS TOLENTINO MOURA ANALISTA DO MP ATIVO VARZEA DA PALMA - COMARCA; VARZEA DA PALMA-PJ-02PJ 5.139,92 0,00 0,00 0,00 0,00 0,00 5.139,92 811,51 393,14 0,00 1.204,65 3.935,27 799,00 2.237,49 29/02/2016
240 304300 ANDRE LUIZ AVELAR ANALISTA DO MP ATIVO BELO HORIZONTE - COMARCA; DIRETORIA DE REDES E BANCOS DE DADOS 5.211,92 1.371,56 0,00 0,00 0,00 0,00 6.583,48 905,23 692,16 0,00 1.597,39 4.986,09 799,00 0,00 29/02/2016
241 397400 ANDRE PATARO MYRRHA DE PAULA E SILVA ANALISTA DO MP ATIVO BELO HORIZONTE - COMARCA; ASSESSORIA JURIDICO-ADMINISTRATIVA 9.011,08 901,11 0,00 0,00 0,00 0,00 9.912,19 1.193,46 1.556,65 0,00 2.750,11 7.162,08 1.431,00 937,47 29/02/2016
242 548500 ANDRE VINICIUS CARVALHO MEIRA ANALISTA DO MP ATIVO JUIZ DE FORA - COMARCA; JUIZ DE FORA-PJ-25PJ 5.307,28 0,00 0,00 0,00 1.769,09 0,00 7.076,37 583,80 916,10 0,00 1.499,90 5.576,47 799,00 0,00 29/02/2016
243 297200 ANDRE WILLE ROSARIO ANALISTA DO MP ATIVO BELO HORIZONTE - COMARCA; ASSESSORIA ESPECIAL DO PGJ 11.643,70 2.328,74 0,00 0,00 0,00 0,00 13.972,44 2.100,38 2.393,98 0,00 4.494,36 9.478,08 1.431,00 5.121,92 29/02/2016
244 423600 ANDREA COSTA GUALBERTO ANALISTA DO MP ATIVO GOVERNADOR VALADARES - COMARCA; COORD REG PJ DEF EDU DIR CRIANCA ADOL RIODOCE 5.916,26 4.225,90 0,00 0,00 0,00 0,00 10.142,16 1.394,55 1.484,10 0,00 2.878,65 7.263,51 799,00 0,00 29/02/2016
245 198600 ANDREA CRISTINA ANDRADE COSTA E SOUZA OFICIAL DO MP ATIVO MONTES CLAROS - COMARCA; MONTES CLAROS-PJ-SECRETARIA 10.243,18 3.072,95 0,00 0,00 0,00 0,00 13.316,13 1.603,31 2.285,49 0,00 3.888,80 9.427,33 799,00 1.259,46 29/02/2016
246 467300 ANDREA DE CASSIA PENNA ALVERNAZ ANALISTA DO MP ATIVO PONTE NOVA - COMARCA; PONTE NOVA-PJ-01PJ 7.180,80 743,52 0,00 0,00 0,00 0,00 7.924,32 1.076,73 1.010,28 0,00 2.087,01 5.837,31 799,00 1.609,77 29/02/2016
247 308000 ANDREA DE CASSIA SANTOS OLIVEIRA ANALISTA DO MP ATIVO BELO HORIZONTE - COMARCA; ASSESS TECNICO-JUR JUNTO AS PROC. DE JUST 8.038,24 2.115,33 0,00 0,00 0,00 0,00 10.153,57 1.396,12 1.486,80 0,00 2.882,92 7.270,65 2.063,00 0,00 29/02/2016
248 349500 ANDREA DE OLIVEIRA OFICIAL DO MP ATIVO IGUATAMA - COMARCA; IGUATAMA-PJ-UNPJ 6.641,51 664,15 0,00 0,00 0,00 0,00 7.305,66 1.024,54 866,56 0,00 1.891,10 5.414,56 799,00 2.008,32 29/02/2016
249 254700 ANDREA EMISE REIS DE AZEVEDO COORDENADOR/OFICIAL ATIVO BELO HORIZONTE - COMARCA; COMB CRIMES PRAT POR AG POL MUN-SECRETARIA 0,00 1.921,48 9.607,41 0,00 0,00 0,00 11.528,89 920,52 2.047,94 0,00 2.968,46 8.560,43 799,00 0,00 29/02/2016
250 287900 ANDREA FERNANDES PENA OFICIAL DO MP ATIVO MONTES CLAROS - COMARCA; MONTES CLAROS-PJ-09PJ 7.200,74 1.440,15 0,00 0,00 0,00 0,00 8.640,89 1.070,39 1.141,22 0,00 2.211,61 6.429,28 799,00 1.089,92 29/02/2016
251 300800 ANDREA FERREIRA ANALISTA DO MP ATIVO LAVRAS - COMARCA; LAVRAS-PJ-04PJ 10.243,18 2.048,64 0,00 0,00 0,00 0,00 12.291,82 1.352,10 2.139,06 0,00 3.491,16 8.800,66 799,00 0,00 29/02/2016
252 316700 ANDREA FRANCISCA DIAS DE SOUZA ASSESSOR ATIVO BELO HORIZONTE - COMARCA; BH-14PJ DEFESA CONSUMIDOR-GAB 110PJ 0,00 0,00 2.500,62 0,00 0,00 0,00 2.500,62 362,96 85,70 0,00 448,66 2.051,96 1.431,00 0,00 29/02/2016
253 395100 ANDREA LANNA MENDES NOVAIS ANALISTA DO MP ATIVO BELO HORIZONTE - COMARCA; PROMOT ESTADUAL DE DEF PATRI CULT E TUR DE MG 9.011,08 901,11 0,00 0,00 0,00 0,00 9.912,19 1.090,34 1.504,51 0,00 2.594,85 7.317,34 1.431,00 0,00 29/02/2016
254 67300 ANDREA LEAO MAGALHAES ROQUE ASSESSOR ATIVO BELO HORIZONTE - COMARCA; COORD DE CONT. DA CONSTITUCIONALIDADE-SEC 0,00 4.225,90 8.451,80 0,00 0,00 0,00 12.677,70 570,88 2.575,47 0,00 3.146,35 9.531,35 799,00 0,00 29/02/2016
255 335700 ANDREA LOPES PEREIRA ANALISTA DO MP ATIVO GOVERNADOR VALADARES - COMARCA; COORD REG DO MA DA BACIA DO RIO DOCE 8.118,27 2.115,33 0,00 0,00 4.230,65 0,00 14.464,25 1.528,17 2.724,38 0,00 4.252,55 10.211,70 799,00 1.200,42 29/02/2016
256 389200 ANDREA TUPINI DOS SANTOS TRISTAO DA ROCHA OFICIAL DO MP ATIVO BELO HORIZONTE - COMARCA; BH-13ª PJ JUÍZO DE TÓXICOS-SECRETARIA 4.379,06 437,91 0,00 0,00 1.605,66 0,00 6.422,63 529,87 699,01 0,00 1.228,88 5.193,75 799,00 0,00 29/02/2016
257 419000 ANDREIA BARBOSA DE ALMEIDA ANALISTA DO MP ATIVO BELO HORIZONTE - COMARCA; GABINETE DE PROCURADOR DE JUSTIÇA - SALA 705 8.451,80 845,18 0,00 0,00 0,00 0,00 9.296,98 1.022,67 1.406,08 0,00 2.428,75 6.868,23 1.431,00 0,00 29/02/2016
258 281501 ANDREIA CARLA COSTA FILGUEIRAS ANALISTA DO MP ATIVO VISCONDE DO RIO BRANCO - COMARCA; VISCONDE DO RIO BRANCO-PJ-02PJ 6.807,06 872,70 0,00 0,00 0,00 0,00 7.679,76 1.055,97 847,91 0,00 1.903,88 5.775,88 799,00 0,00 29/02/2016
259 477100 ANDREIA DE ALMEIDA RIBEIRO MELO OFICIAL DO MP ATIVO CONTAGEM - COMARCA; CONTAGEM-PJ-07PJ 3.921,82 482,09 0,00 0,00 0,00 0,00 4.403,91 855,66 223,50 0,00 1.079,16 3.324,75 1.431,00 2.475,72 29/02/2016
260 619000 ANDREIA FERREIRA NORONHA OFICIAL DO MP ATIVO BELO HORIZONTE - COMARCA; DIRETORIA DE SERVICO CRIMINAL 3.445,03 0,00 0,00 0,00 0,00 0,00 3.445,03 378,95 105,11 0,00 484,06 2.960,97 799,00 0,00 29/02/2016
261 424000 ANDREIA LUCIA COUTO ANALISTA DO MP ATIVO BELO HORIZONTE - COMARCA; BH-18PJ DIREITOS HUMANOS 6.807,06 872,70 0,00 0,00 0,00 0,00 7.679,76 1.055,97 952,18 0,00 2.008,15 5.671,61 799,00 0,00 29/02/2016
262 370100 ANDREIA MARIA SILVA PINTO OFICIAL DO MP ATIVO CORONEL FABRICIANO - COMARCA; CORONEL FABRICIANO-PJ-01PJ 4.902,05 622,93 0,00 0,00 2.284,07 0,00 7.809,05 825,02 1.070,85 0,00 1.895,87 5.913,18 799,00 648,00 29/02/2016
263 382100 ANDREIA NATALI PEREIRA OFICIAL DO MP ATIVO PRADOS - COMARCA; PRADOS-PJ-UNPJ 6.032,93 603,29 0,00 0,00 0,00 0,00 6.636,22 729,98 754,86 0,00 1.484,84 5.151,38 799,00 0,00 29/02/2016
264 275200 ANDREIA RIBEIRO FREITAS OFICIAL DO MP ATIVO VIÇOSA - COMARCA; VICOSA-PJ-03PJ 5.299,99 1.394,73 0,00 0,00 0,00 0,00 6.694,72 920,52 666,41 0,00 1.586,93 5.107,79 1.431,00 0,00 29/02/2016
265 352200 ANDREIA XAVIER PEREIRA OFICIAL DO MP ATIVO CLÁUDIO - COMARCA; CLAUDIO-PJ-UNPJ 6.641,51 664,15 0,00 0,00 0,00 0,00 7.305,66 1.024,54 918,70 0,00 1.943,24 5.362,42 799,00 2.008,32 29/02/2016
266 638500 ANDRESA ALVES FEITOSA CASAGRANDE ANALISTA DO MP ATIVO PERDÕES - COMARCA; PERDOES-PJ-UNPJ 5.139,92 0,00 0,00 0,00 0,00 0,00 5.139,92 565,39 393,14 0,00 958,53 4.181,39 1.431,00 0,00 29/02/2016
267 383700 ANDRESSA EDUARDO SOUZA ANALISTA DO MP ATIVO OURO BRANCO - COMARCA; OURO BRANCO-PJ-SECRETARIA 9.011,08 901,11 0,00 0,00 0,00 0,00 9.912,19 1.193,46 1.556,65 0,00 2.750,11 7.162,08 1.431,00 937,47 29/02/2016
268 426200 ANDRESSA MENDES CASAL OFICIAL DO MP ATIVO BELO HORIZONTE - COMARCA; BH-12PJ JUIZO CRIMINAL-SECRETARIA 4.820,91 482,09 0,00 0,00 1.767,67 0,00 7.070,67 656,76 1.078,04 0,00 1.734,80 5.335,87 799,00 667,56 29/02/2016
269 390100 ANDRESSA RIBEIRO PUCCI OFICIAL DO MP ATIVO UBERABA - COMARCA; UBERABA-PJ-14PJ 4.009,14 513,99 0,00 0,00 0,00 0,00 4.523,13 621,93 241,64 0,00 863,57 3.659,56 799,00 0,00 29/02/2016
270 462500 ANDREZA APARECIDA COSTA E SILVA ANALISTA DO MP ATIVO CONSELHEIRO LAFAIETE - COMARCA; CONSELHEIRO LAFAIETE-PJ-02PJ 7.435,23 743,52 0,00 0,00 2.726,25 0,00 10.905,00 1.076,73 1.882,11 0,00 2.958,84 7.946,16 799,00 1.609,77 29/02/2016
271 537800 ANDREZZA LUZIA DE OLIVEIRA ALVES ANALISTA DO MP ATIVO PATOS DE MINAS - COMARCA; COORD REG PJ DEF EDU DIR CRI ADO AL PAR NOROE 5.842,66 0,00 0,00 0,00 0,00 0,00 5.842,66 642,69 456,36 0,00 1.099,05 4.743,61 799,00 0,00 29/02/2016
272 491600 ANE PATRICIA RIBEIRO ANALISTA DO MP ATIVO SETE LAGOAS - COMARCA; SETE LAGOAS-PJ-10PJ 6.691,89 432,04 0,00 0,00 0,00 0,00 7.123,93 839,61 806,69 0,00 1.646,30 5.477,63 967,53 0,00 29/02/2016
273 465800 ANELISE GAMA ASSESSOR ATIVO BELO HORIZONTE - COMARCA; BH-18PJ VIOLENCIA DOMESTICA-SECRETARIA 0,00 0,00 4.175,17 0,00 1.391,72 0,00 5.566,89 547,16 730,79 0,00 1.277,95 4.288,94 799,00 0,00 29/02/2016
274 535200 ANELIZE FERNANDA ALVES VILARINHO OFICIAL DO MP ATIVO CAPINÓPOLIS - COMARCA; CAPINOPOLIS-PJ-UNPJ 3.445,03 0,00 0,00 0,00 0,00 0,00 3.445,03 378,95 105,11 0,00 484,06 2.960,97 799,00 0,00 29/02/2016
275 197200 ANGELA COELHO SALDANHA OFICIAL DO MP ATIVO PARÁ DE MINAS - COMARCA; PARA DE MINAS-PJ-03PJ 7.579,95 3.072,95 0,00 0,00 0,00 0,00 10.652,90 1.464,77 1.657,38 0,00 3.122,15 7.530,75 4.861,81 372,42 29/02/2016
276 307400 ANGELA CRISTINA GONCALVES MUNIZ ANALISTA DO MP ATIVO UBERLÂNDIA - COMARCA; UBERLANDIA-PJ-SEC FAMILIA 11.643,70 3.493,11 0,00 0,00 0,00 0,00 15.136,81 2.275,41 2.783,24 0,00 5.058,65 10.078,16 2.063,00 5.548,76 29/02/2016
277 191800 ANGELA MARIA DE OLIVEIRA OFICIAL DO MP ATIVO GUARANÉSIA - COMARCA; GUARANESIA-PJ-SECRETARIA 10.243,18 4.097,27 0,00 0,00 0,00 0,00 14.340,45 1.577,45 2.588,33 0,00 4.165,78 10.174,67 799,00 0,00 29/02/2016
278 69900 ANGELA MARIA DE PAULA CUNHA OFICIAL DO MP ATIVO JUIZ DE FORA - COMARCA; JUIZ DE FORA-PJ-11PJ 10.576,63 7.403,64 0,00 0,00 0,00 0,00 17.980,27 1.977,83 3.531,31 0,00 5.509,14 12.471,13 799,00 0,00 29/02/2016
279 497400 ANGELA MARIA HENRIQUES ANALISTA DO MP ATIVO BELO HORIZONTE - COMARCA; COORD REG BACIAS RIO VELHAS E PARAOPEBA 6.641,51 398,49 0,00 0,00 0,00 0,00 7.040,00 1.129,20 853,68 0,00 1.982,88 5.057,12 2.063,00 3.225,45 29/02/2016
280 260700 ANGELICA CRISTINA AZEVEDO MOREIRA MOUCO OFICIAL DO MP ATIVO UBÁ - COMARCA; UBA-PJ-02PJ 5.707,05 1.487,05 0,00 0,00 0,00 0,00 7.194,10 1.105,26 786,98 0,00 1.892,24 5.301,86 799,00 1.125,56 29/02/2016
281 334600 ANGELICA PANISSA DE FREITAS OFICIAL DO MP ATIVO GUAXUPÉ - COMARCA; GUAXUPE-PJ-02PJ 6.641,51 1.328,30 0,00 0,00 0,00 0,00 7.969,81 959,61 1.081,25 0,00 2.040,86 5.928,95 799,00 753,90 29/02/2016
282 521100 ANGELICA SALES MOREIRA OFICIAL DO MP ATIVO BELO HORIZONTE - COMARCA; BH-02PJ FAMILIA-SECRETARIA 3.085,86 234,96 0,00 0,00 0,00 0,00 3.320,82 456,61 74,83 0,00 531,44 2.789,38 799,00 0,00 29/02/2016
283 466500 ANGELLO MARQUES AGRELLI ANALISTA DO MP ATIVO MAR DE ESPANHA - COMARCA; MAR DE ESPANHA-PJ-UNPJ 7.435,23 743,52 0,00 0,00 0,00 0,00 8.178,75 981,68 1.132,39 0,00 2.114,07 6.064,68 799,00 745,68 29/02/2016
284 363300 ANGELO VERDOLIN HENRIQUES ANALISTA DO MP ATIVO SETE LAGOAS - COMARCA; SETE LAGOAS-PJ-04PJ 10.243,18 3.072,95 0,00 0,00 0,00 0,00 13.316,13 1.603,31 2.389,76 0,00 3.993,07 9.323,06 1.431,00 1.259,46 29/02/2016
285 250900 ANISIO APARECIDO SANTOS OFICIAL DO MP ATIVO MARIANA - COMARCA; MARIANA-PJ-02PJ 4.977,82 1.493,35 0,00 0,00 0,00 0,00 6.471,17 711,83 226,84 0,00 938,67 5.532,50 799,00 0,00 29/02/2016
286 253400 ANNA FLAVIA LEHMAN BATTAGLIA ASSESSOR ESPECIAL ATIVO BELO HORIZONTE - COMARCA; GABINETE DO PROCURADOR-GERAL DE JUSTICA 20.076,03 4.015,21 0,00 0,00 0,00 0,00 24.091,24 1.587,01 5.162,89 0,00 6.749,90 17.341,34 799,00 0,00 29/02/2016
287 447600 ANNGELUCE ALCANTARA DE CAMPOS OFICIAL DO MP ATIVO DIVINÓPOLIS - COMARCA; DIVINOPOLIS-PJ-10PJ 3.489,47 875,81 0,00 0,00 0,00 0,00 4.365,28 711,48 216,00 0,00 927,48 3.437,80 799,00 1.213,08 29/02/2016
288 119600 ANSELMO BORGES PARREIRAS OFICIAL DO MP ATIVO BONFIM - COMARCA; BONFIM-PJ-UNPJ 5.658,41 4.526,72 0,00 0,00 0,00 0,00 10.185,13 1.120,36 1.571,31 0,00 2.691,67 7.493,46 799,00 0,00 29/02/2016
289 630300 ANTONIA GOMES RAMALHO OFICIAL DO MP ATIVO NOVO CRUZEIRO - COMARCA; NOVO CRUZEIRO-PJ-UNPJ 3.445,03 0,00 0,00 0,00 1.148,34 0,00 4.593,37 414,81 312,11 0,00 726,92 3.866,45 799,00 362,20 29/02/2016
290 332400 ANTONIA MARIA MAMEDE OFICIAL DO MP ATIVO UBERLÂNDIA - COMARCA; COORD REG PP TRIANGULO MINEIRO UBERLANDIA 6.641,51 1.328,30 0,00 0,00 2.656,60 0,00 10.626,41 876,68 1.811,82 0,00 2.688,50 7.937,91 799,00 0,00 29/02/2016
291 401600 ANTONIO CARLOS GUEDES AROUCA ANALISTA DO MP ATIVO BELO HORIZONTE - COMARCA; EXTINTA - CAO-IDOSOS PESSOAS DEFIC-SEC ADM 8.727,00 872,70 0,00 0,00 0,00 0,00 9.599,70 1.055,97 1.480,17 0,00 2.536,14 7.063,56 799,00 0,00 29/02/2016
292 7100 ANTONIO DO NASCIMENTO OLIVEIRA ASSESSOR ATIVO BELO HORIZONTE - COMARCA; GAECO - SECRETARIA 0,00 2.250,56 2.500,62 0,00 1.583,73 0,00 6.334,91 570,88 612,63 0,00 1.183,51 5.151,40 799,00 0,00 29/02/2016
293 333900 ANTONIO GONCALVES DE SOUZA FILHO OFICIAL DO MP ATIVO BELO HORIZONTE - COMARCA; DIVISAO DE MEMORIA INSTITUCIONAL 6.641,51 1.328,30 0,00 0,00 0,00 0,00 7.969,81 1.117,68 1.081,25 0,00 2.198,93 5.770,88 799,00 2.190,90 29/02/2016
294 176100 ANTONIO MARCELO CAMPOS CAMPANELLA OFICIAL DO MP ATIVO BELO HORIZONTE - COMARCA; SUPERINTENDENCIA DE RECURSOS HUMANOS 10.243,18 4.097,27 0,00 0,00 0,00 0,00 14.340,45 1.577,45 2.640,47 0,00 4.217,92 10.122,53 1.431,00 0,00 29/02/2016
295 321001 ANTONIO OLINTO VIEIRA MACHADO ANALISTA DO MP ATIVO BELO HORIZONTE - COMARCA; CENTRAL DE APOIO TECN-SETOR DE MEIO AMBIENTE 9.011,08 901,11 0,00 0,00 0,00 0,00 9.912,19 1.090,34 1.400,24 0,00 2.490,58 7.421,61 4.763,88 363,45 29/02/2016
296 356200 ANTONIO PAULA DA SILVA OFICIAL DO MP ATIVO JUIZ DE FORA - COMARCA; JUIZ DE FORA-PJ-20PJ 5.842,66 1.168,53 0,00 0,00 2.337,06 0,00 9.348,25 771,23 1.489,32 0,00 2.260,55 7.087,70 799,00 0,00 29/02/2016
297 119900 ANTONIO RODRIGUES DE PINHO OFICIAL DO MP ATIVO GUANHÃES - COMARCA; GUANHAES-PJ-01PJ 9.920,24 4.960,12 0,00 0,00 0,00 0,00 14.880,36 1.636,84 2.616,20 0,00 4.253,04 10.627,32 799,00 0,00 29/02/2016
298 373300 ANTONIO SERGIO ANANIAS OFICIAL DO MP ATIVO AIURUOCA - COMARCA; AIURUOCA-PJ-UNPJ 5.480,05 548,01 0,00 0,00 0,00 0,00 6.028,06 725,81 501,73 0,00 1.227,54 4.800,52 799,00 570,15 29/02/2016
299 608100 ANTONIO SIDINEY VIEIRA LEMOS ANALISTA DO MP ATIVO PIRAPORA - COMARCA; PIRAPORA-PJ-01PJ 5.307,28 1.592,18 0,00 0,00 0,00 0,00 6.899,46 758,94 819,28 0,00 1.578,22 5.321,24 799,00 0,00 29/02/2016
300 374700 ANTONIO SILVA NETO OFICIAL DO MP ATIVO BELO HORIZONTE - COMARCA; GAECO - SECRETARIA 4.827,32 603,29 0,00 0,00 0,00 0,00 5.430,61 930,68 423,31 0,00 1.353,99 4.076,62 799,00 1.824,51 29/02/2016
301 636700 ANTONIUS VITORIANO FERNANDES OFICIAL DO MP ATIVO BELO HORIZONTE - COMARCA; PROCON-MG 3.030,62 0,00 0,00 0,00 1.010,21 0,00 4.040,83 333,37 172,88 0,00 506,25 3.534,58 799,00 0,00 29/02/2016
302 413200 ANY PEREIRA SILVA ANALISTA DO MP ATIVO TRÊS PONTAS - COMARCA; TRES PONTAS-PJ-01PJ 8.185,27 818,53 0,00 0,00 0,00 0,00 9.003,80 990,42 1.230,05 0,00 2.220,47 6.783,33 799,00 0,00 29/02/2016
303 151401 APARECIDA DE FATIMA MENDES DE ALMEIDA ASSESSOR ATIVO JUIZ DE FORA - COMARCA; JUIZ DE FORA-PJ-SECRETARIA 0,00 0,00 4.175,17 0,00 0,00 0,00 4.175,17 547,16 359,95 0,00 907,11 3.268,06 799,00 0,00 29/02/2016
304 329300 APARECIDA MARIA MELO DE ASSIS OFICIAL DO MP ATIVO BELO HORIZONTE - COMARCA; BH-18PJ DIREITOS HUMANOS-SECRETARIA 5.429,97 1.394,73 0,00 0,00 0,00 0,00 6.824,70 1.206,48 754,29 0,00 1.960,77 4.863,93 799,00 2.599,60 29/02/2016
305 475300 APARECIDA MARLENE FREIRE ROSA ANALISTA DO MP ATIVO BELO HORIZONTE - COMARCA; BH-02PJ FAMILIA-SECRETARIA 4.842,96 5.948,18 0,00 0,00 4.461,14 1.472,18 16.724,46 1.565,04 3.325,02 0,00 4.890,06 11.834,40 799,00 937,04 29/02/2016
306 240300 APARECIDA PEREIRA DO NASCIMENTO OFICIAL DO MP ATIVO ITURAMA - COMARCA; ITURAMA-PJ-01PJ 8.727,00 4.363,50 0,00 0,00 0,00 0,00 13.090,50 1.576,19 2.334,54 0,00 3.910,73 9.179,77 799,00 1.238,40 29/02/2016
307 354500 APARECIDA VIEIRA DE CARVALHO OFICIAL DO MP ATIVO BELO HORIZONTE - COMARCA; PROCON-MG-SEC DE EDUCACAO PARA O CONSUMO 4.762,99 513,99 0,00 0,00 0,00 0,00 5.276,98 621,93 411,26 0,00 1.033,19 4.243,79 799,00 0,00 29/02/2016
308 551000 ARACELES BICALHO FELIX ANALISTA DO MP ATIVO MANHUAÇU - COMARCA; MANHUACU-PJ-02PJ 5.842,66 0,00 0,00 0,00 0,00 0,00 5.842,66 642,69 560,63 0,00 1.203,32 4.639,34 799,00 0,00 29/02/2016
309 286200 ARACELI MEDRADO DOS SANTOS LIMA OFICIAL DO MP ATIVO PARACATU - COMARCA; PARACATU-PJ-03PJ 4.977,82 995,56 0,00 0,00 0,00 0,00 5.973,38 657,07 592,63 0,00 1.249,70 4.723,68 859,00 0,00 29/02/2016
310 189000 ARAHY MARQUES SILVA OFICIAL DO MP ATIVO BELO HORIZONTE - COMARCA; BH-15PJ M AMB 16PJ HAB URB-SECRETARIA 4.977,82 1.493,35 0,00 0,00 0,00 0,00 6.471,17 711,83 714,46 0,00 1.426,29 5.044,88 799,00 0,00 29/02/2016
311 112200 ARAQUEM AUGUSTO DE MATOS AGENTE DO MP ATIVO BELO HORIZONTE - COMARCA; COORD ESTADUAL DE DEFESA DA EDUCACAO 3.285,36 3.982,26 0,00 0,00 0,00 0,00 7.267,62 1.259,39 701,78 0,00 1.961,17 5.306,45 1.431,00 2.488,90 29/02/2016
312 280600 ARDUINO FRATTEZI ANALISTA DO MP ATIVO BELO HORIZONTE - COMARCA; CENTRAL DE APOIO TECNICO-SETOR CONTABIL 11.643,70 2.328,74 0,00 0,00 0,00 0,00 13.972,44 2.100,38 2.550,39 0,00 4.650,77 9.321,67 799,00 5.121,92 29/02/2016
313 520201 ARIANE DE FATIMA CARVALHO ALMEIDA ANALISTA DO MP ATIVO BELO HORIZONTE - COMARCA; BH-18PJ VIOLENCIA DOMESTICA-SECRETARIA 5.307,28 0,00 0,00 0,00 1.769,09 0,00 7.076,37 583,80 863,96 0,00 1.447,76 5.628,61 799,00 0,00 29/02/2016
314 537600 ARIELA FREIRE MONTIJO ANALISTA DO MP ATIVO ARCOS - COMARCA; ARCOS-PJ-01PJ 5.842,66 0,00 0,00 0,00 0,00 0,00 5.842,66 642,69 508,49 0,00 1.151,18 4.691,48 799,00 0,00 29/02/2016
315 182000 ARILSON ALEXANDRE MARTINS MAGALHAES OFICIAL DO MP ATIVO JOÃO MONLEVADE - COMARCA; JOAO MONLEVADE-PJ-01PJ 9.920,24 3.968,10 0,00 0,00 0,00 0,00 13.888,34 1.947,75 2.425,54 0,00 4.373,29 9.515,05 920,73 3.818,46 29/02/2016
316 511000 ARISLANE CAROLINA DA SILVA ANALISTA DO MP ATIVO CAMPINA VERDE - COMARCA; CAMPINA VERDE-PJ-UNPJ 7.200,74 432,04 0,00 0,00 0,00 0,00 7.632,78 1.182,91 998,76 0,00 2.181,67 5.451,11 799,00 3.120,83 29/02/2016
317 170000 ARLEY BRITES DA SILVA ASSESSOR ATIVO BELO HORIZONTE - COMARCA; EXTINTA - DIVISÃO DE MATERIAL PERMANENTE 0,00 1.252,55 4.175,17 0,00 0,00 0,00 5.427,72 570,88 304,69 0,00 875,57 4.552,15 1.431,00 0,00 29/02/2016
318 120400 ARLINDO CASSIO DA CRUZ OFICIAL DO MP ATIVO SÃO GONÇALO DO SAPUCAÍ - COMARCA; SAO GONCALO DO SAPUCAI-PJ-01PJ 15.298,25 10.708,79 0,00 0,00 0,00 0,00 26.007,04 3.489,87 5.453,03 0,00 8.942,90 17.064,14 799,00 5.719,06 29/02/2016
319 243700 ARLINDO MARCIO LACERDA OFICIAL DO MP ATIVO CONTAGEM - COMARCA; CONTAGEM-PJ-03PJ 8.451,80 3.710,36 0,00 0,00 4.054,05 0,00 16.216,21 1.208,61 3.257,73 0,00 4.466,34 11.749,87 799,00 0,00 29/02/2016
320 392100 ARNALDO DE ANDRADE OFICIAL DO MP ATIVO DIVINÓPOLIS - COMARCA; DIVINOPOLIS-PJ-02PJ 4.705,69 1.543,15 0,00 0,00 0,00 0,00 6.248,84 729,98 648,33 0,00 1.378,31 4.870,53 799,00 0,00 29/02/2016
321 642400 ARTANE INARDE DE SIQUEIRA DAMASCENO ANALISTA DO MP ATIVO BELO HORIZONTE - COMARCA; SUPERINTENDENCIA DE RECURSOS HUMANOS 5.139,92 0,00 0,00 0,00 0,00 0,00 5.139,92 801,15 393,14 0,00 1.194,29 3.945,63 799,00 2.143,28 29/02/2016
322 352801 ARTHUR JONAS MENDONCA E ARAUJO ANALISTA DO MP ATIVO UBERABA - COMARCA; UBERABA-PJ-12PJ 8.185,27 818,53 0,00 0,00 0,00 0,00 9.003,80 1.262,68 1.230,05 0,00 2.492,73 6.511,07 1.431,00 2.475,12 29/02/2016
323 302100 AUGUSTO ROUSSEAU DE CASTRO ANALISTA DO MP ATIVO CATAGUASES - COMARCA; CATAGUASES-PJ-02PJ 8.849,21 2.328,74 0,00 0,00 0,00 0,00 11.177,95 1.536,97 1.781,91 0,00 3.318,88 7.859,07 799,00 0,00 29/02/2016
324 540200 AUREA AVELAR OFICIAL DO MP ATIVO BELO HORIZONTE - COMARCA; GRUPO ESP PROM PROC JUST DEF PROB ADM PAT PUB 3.445,03 0,00 0,00 0,00 0,00 0,00 3.445,03 378,95 58,72 0,00 437,67 3.007,36 799,00 0,00 29/02/2016
325 633500 AUREA GONTIJO BIRCHAL ASSESSOR ATIVO BELO HORIZONTE - COMARCA; COORD DE GABINETE DO PGJ 0,00 0,00 6.641,51 0,00 0,00 0,00 6.641,51 570,88 1.019,79 0,00 1.590,67 5.050,84 799,00 0,00 29/02/2016
326 183200 AURELIANO MAGELA DE REZENDE COORDENADOR/OFICIAL ATIVO BELO HORIZONTE - COMARCA; COORD DE GABINETE DO PGJ 9.920,24 5.160,27 0,00 0,00 0,00 0,00 15.080,51 1.552,79 2.887,67 0,00 4.440,46 10.640,05 799,00 1.220,04 29/02/2016
327 629400 AYESKA DA COSTA VAL MOURA DABIEN OFICIAL DO MP ATIVO BELO HORIZONTE - COMARCA; BH-18PJ VIOLENCIA DOMESTICA-SECRETARIA 3.445,03 0,00 0,00 0,00 0,00 0,00 3.445,03 414,81 105,11 0,00 519,92 2.925,11 799,00 362,20 29/02/2016
328 546500 BARBARA ZACARONI GOULART OFICIAL DO MP ATIVO BETIM - COMARCA; BETIM-PJ-08PJ 3.445,03 0,00 0,00 0,00 0,00 0,00 3.445,03 378,95 105,11 0,00 484,06 2.960,97 799,00 0,00 29/02/2016
329 316500 BEATRIZ ABILVIA DA SILVA ANALISTA DO MP ATIVO GOVERNADOR VALADARES - COMARCA; GOVERNADOR VALADARES-PJ-07PJ 8.038,24 2.115,33 0,00 0,00 0,00 0,00 10.153,57 1.396,12 1.486,80 0,00 2.882,92 7.270,65 799,00 0,00 29/02/2016
330 311800 BEATRIZ APARECIDA SOARES GANEM OFICIAL DO MP ATIVO ITAMBACURI - COMARCA; ITAMBACURI-PJ-02PJ 6.973,67 2.092,10 0,00 0,00 3.021,92 0,00 12.087,69 1.046,94 2.024,10 0,00 3.071,04 9.016,65 799,00 451,92 29/02/2016
331 266800 BEATRIZ AUGUSTA VILACA GOMES DA SILVA OFICIAL DO MP ATIVO BELO HORIZONTE - COMARCA; BH-05PJ-JUÍZO SUCESSÕES-SEC 6.229,29 1.245,86 0,00 0,00 2.491,72 0,00 9.966,87 900,03 1.645,41 0,00 2.545,44 7.421,43 799,00 706,89 29/02/2016
332 235200 BEATRIZ BOTELHO BATISTA OFICIAL DO MP ATIVO BELO HORIZONTE - COMARCA; BH-21PJ TUTELA FUNDACOES-SECRETARIA 7.200,74 2.160,22 0,00 0,00 0,00 0,00 9.360,96 1.159,59 1.421,73 0,00 2.581,32 6.779,64 799,00 1.180,76 29/02/2016
333 113500 BEATRIZ DE LOURDES SOUZA ASSESSOR ATIVO BELO HORIZONTE - COMARCA; BH-02PJ FAMILIA-PROM DEC PAT 0,00 4.649,06 6.641,51 0,00 3.763,52 0,00 15.054,09 570,88 2.739,17 0,00 3.310,05 11.744,04 799,00 0,00 29/02/2016
334 182300 BEATRIZ PAULA SOUSA RAMOS OFICIAL DO MP ATIVO MARIANA - COMARCA; MARIANA-PJ-01PJ 9.920,24 3.968,10 0,00 0,00 4.629,45 0,00 18.517,79 1.947,75 3.698,63 0,00 5.646,38 12.871,41 799,00 3.818,46 29/02/2016
335 507000 BELCHIOR FRANKLIN AMARAL LEITE ANALISTA DO MP ATIVO BELO HORIZONTE - COMARCA; CENTRAL DE APOIO TECNICO 7.200,74 432,04 0,00 0,00 0,00 0,00 7.632,78 1.100,44 842,35 0,00 1.942,79 5.689,99 5.493,81 2.743,54 29/02/2016
336 345100 BENITO ELIAS RODRIGUES ANALISTA DO MP ATIVO BARBACENA - COMARCA; BARBACENA-PJ-SECRETARIA 10.243,18 1.024,32 0,00 0,00 0,00 0,00 11.267,50 1.239,43 1.888,36 0,00 3.127,79 8.139,71 799,00 0,00 29/02/2016
337 207300 BENITO VIEIRA DOS SANTOS ANALISTA DO MP ATIVO BELO HORIZONTE - COMARCA; COMB CRIMES PRAT POR AG POL MUN-ASSESSORIA 15.298,25 4.589,48 0,00 0,00 0,00 2.187,65 22.075,38 2.354,29 3.225,63 0,00 5.579,92 16.495,46 799,00 1.681,50 29/02/2016
338 480200 BERNADETE NUNES DOS SANTOS ANALISTA DO MP ATIVO GUANHÃES - COMARCA; GUANHAES-PJ-02PJ 7.435,23 1.487,05 0,00 0,00 0,00 0,00 8.922,28 981,45 1.314,37 0,00 2.295,82 6.626,46 799,00 0,00 29/02/2016
339 378400 BETANIA FARNESI DE SOUZA E SILVA OFICIAL DO MP ATIVO SETE LAGOAS - COMARCA; SETE LAGOAS-PJ-03PJ 4.608,12 1.809,88 0,00 0,00 2.614,27 0,00 9.032,27 1.099,89 1.325,13 0,00 2.425,02 6.607,25 1.431,00 2.156,22 29/02/2016
340 387400 BETANIA MENDONCA DE ASSIS ANALISTA DO MP ATIVO BELO HORIZONTE - COMARCA; BH-08PJ JUIZADO ESPECIAL-SECRETARIA 7.091,14 901,11 0,00 0,00 0,00 0,00 7.992,25 1.193,46 1.028,67 0,00 2.222,13 5.770,12 799,00 937,47 29/02/2016
341 450300 BIANCA OLIVEIRA DE ALBUQUERQUE ANALISTA DO MP ATIVO BELO HORIZONTE - COMARCA; BH-10PJ EXECUÇÃO PENAL-SECRETARIA 5.799,48 743,52 0,00 0,00 0,00 0,00 6.543,00 899,66 682,56 0,00 1.582,22 4.960,78 1.431,00 0,00 29/02/2016
342 535400 BIANCA SALOTO ROSSI ANALISTA DO MP ATIVO SANTOS DUMONT - COMARCA; SANTOS DUMONT-PJ-01PJ 5.842,66 0,00 0,00 0,00 1.947,55 0,00 7.790,21 642,69 1.096,21 0,00 1.738,90 6.051,31 799,00 0,00 29/02/2016
343 120800 BRAS MARQUES DE SOUZA ANALISTA DO MP ATIVO BELO HORIZONTE - COMARCA; EXTINTA - SUPERINTENDENCIA ADMINISTRATIVA-SAD 19.311,46 15.449,17 0,00 0,00 0,00 0,00 34.760,63 3.351,82 6.432,03 4.289,52 14.073,37 20.687,26 799,00 0,00 29/02/2016
344 460900 BRENO CRISTIANO DE SOUZA REZENDE ANALISTA DO MP ATIVO ITAÚNA - COMARCA; ITAUNA-PJ-02PJ 4.950,31 622,93 0,00 0,00 0,00 0,00 5.573,24 902,07 456,00 0,00 1.358,07 4.215,17 799,00 1.348,38 29/02/2016
345 239000 BRENO VENANCIO ROMANINI OFICIAL DO MP ATIVO BELO HORIZONTE - COMARCA; BH-20PJ ORD ECON TRIBUTARIA-SECRETARIA 6.432,09 1.286,42 0,00 0,00 0,00 0,00 7.718,51 849,04 1.019,74 0,00 1.868,78 5.849,73 799,00 0,00 29/02/2016
346 202201 BRIGITTE AMARALINA CALDAS MEDEIROS OFICIAL DO MP ATIVO NANUQUE - COMARCA; NANUQUE-PJ-01PJ 5.681,19 2.303,19 0,00 0,00 0,00 0,00 7.984,38 1.097,85 815,89 0,00 1.913,74 6.070,64 799,00 0,00 29/02/2016
347 642300 BRUNA IZABELITA DE FATIMA OLIVEIRA COSTA OFICIAL DO MP ATIVO PIUMHI - COMARCA; PIUMHI-PJ-02PJ 3.030,62 0,00 0,00 0,00 0,00 0,00 3.030,62 333,37 59,49 0,00 392,86 2.637,76 1.197,00 0,00 29/02/2016
348 513600 BRUNA KARLA MARTINS CARVALHO ANALISTA DO MP ATIVO GOVERNADOR VALADARES - COMARCA; GOVERNADOR VALADARES-PJ-01PJ 6.641,51 398,49 0,00 0,00 0,00 0,00 7.040,00 987,28 853,68 0,00 1.840,96 5.199,04 4.861,81 2.307,69 29/02/2016
349 415100 BRUNA MARIA SOARES OLIVEIRA COSTA RAMOS ANALISTA DO MP ATIVO UBÁ - COMARCA; COORD REG BACIA DO RIO PARAIBA DO SUL 7.767,03 872,70 0,00 0,00 0,00 0,00 8.639,73 1.055,97 1.216,17 0,00 2.272,14 6.367,59 799,00 0,00 29/02/2016
350 470000 BRUNA MORAES MARQUES ANALISTA DO MP ATIVO TOMBOS - COMARCA; TOMBOS-PJ-UNPJ 7.435,23 743,52 0,00 0,00 0,00 0,00 8.178,75 1.076,73 923,84 0,00 2.000,57 6.178,18 1.431,00 1.609,77 29/02/2016
351 614700 BRUNA NATTANY DE LIMA OFICIAL DO MP ATIVO MANTENA - COMARCA; MANTENA-PJ-02PJ 2.870,86 0,00 0,00 0,00 0,00 0,00 2.870,86 378,95 44,09 0,00 423,04 2.447,82 4.244,03 172,25 29/02/2016
352 631800 BRUNA RAPOSO JORGE OFICIAL DO MP ATIVO JUIZ DE FORA - COMARCA; JUIZ DE FORA-PJ-19PJ 3.445,03 0,00 0,00 0,00 0,00 0,00 3.445,03 378,95 105,11 0,00 484,06 2.960,97 799,00 0,00 29/02/2016
353 463800 BRUNO ALVES TEIXEIRA ANALISTA DO MP ATIVO UBERLÂNDIA - COMARCA; UBERLANDIA-PJ-04PJ 7.435,23 743,52 0,00 0,00 0,00 0,00 8.178,75 981,68 1.132,39 0,00 2.114,07 6.064,68 799,00 745,68 29/02/2016
354 538500 BRUNO AUGUSTO DA SILVA OFICIAL DO MP ATIVO SANTA LUZIA - COMARCA; SANTA LUZIA-PJ-03PJ 3.445,03 0,00 0,00 0,00 0,00 0,00 3.445,03 378,95 105,11 0,00 484,06 2.960,97 799,00 0,00 29/02/2016
355 318200 BRUNO BARROS DE SOUZA OFICIAL DO MP ATIVO UBÁ - COMARCA; UBA-PJ-04PJ 5.429,97 1.394,73 0,00 0,00 0,00 0,00 6.824,70 1.206,48 394,20 0,00 1.600,68 5.224,02 799,00 2.599,60 29/02/2016
356 459600 BRUNO CASTELAR LUGAO MENDES OFICIAL DO MP ATIVO GOVERNADOR VALADARES - COMARCA; GOVERNADOR VALADARES-PJ-05PJ 4.217,62 530,73 0,00 0,00 0,00 0,00 4.748,35 791,19 287,76 0,00 1.078,95 3.669,40 799,00 1.354,60 29/02/2016
357 427400 BRUNO CESAR RIBEIRO DE PAIVA ANALISTA DO MP ATIVO BELO HORIZONTE - COMARCA; ASSESS JUR DO CONS SUPERIOR DO MINISTERIO PUB 8.727,00 872,70 0,00 0,00 0,00 0,00 9.599,70 1.055,97 1.480,17 0,00 2.536,14 7.063,56 799,00 0,00 29/02/2016
358 380900 BRUNO CIRILO ANTUNES OFICIAL DO MP ATIVO VARGINHA - COMARCA; VARGINHA-PJ-05PJ 4.176,50 1.470,59 0,00 0,00 2.337,61 0,00 7.984,70 702,93 1.149,83 0,00 1.852,76 6.131,94 4.861,81 924,72 29/02/2016
359 329000 BRUNO DE MELO REIS ANALISTA DO MP ATIVO PATROCÍNIO - COMARCA; PATROCINIO-PJ-02PJ 10.576,63 2.115,33 0,00 0,00 0,00 0,00 12.691,96 1.528,17 2.184,86 0,00 3.713,03 8.978,93 799,00 1.200,42 29/02/2016
360 601700 BRUNO DIAS JUNQUEIRA PEREIRA ANALISTA DO MP ATIVO BELO HORIZONTE - COMARCA; ASSESS TECNICO-JUR JUNTO AS PROC. DE JUST 5.842,66 0,00 0,00 0,00 1.947,55 0,00 7.790,21 878,26 1.096,21 0,00 1.974,47 5.815,74 799,00 2.141,52 29/02/2016
361 378300 BRUNO HERDY LOPES DE OLIVEIRA ANALISTA DO MP ATIVO MANTENA - COMARCA; MANTENA-PJ-SECRETARIA 7.091,14 901,11 0,00 0,00 3.304,06 0,00 11.296,31 1.193,46 1.937,28 0,00 3.130,74 8.165,57 799,00 937,47 29/02/2016
362 529700 BRUNO JOSE BUENO DIAS OFICIAL DO MP ATIVO SÃO SEBASTIÃO DO PARAÍSO - COMARCA; SAO SEBASTIAO DO PARAISO-PJ-02PJ 3.792,57 0,00 0,00 0,00 0,00 0,00 3.792,57 417,18 123,07 0,00 540,25 3.252,32 1.431,00 0,00 29/02/2016
363 350100 BRUNO LAUD SERRANO DOS REIS OFICIAL DO MP ATIVO UBÁ - COMARCA; UBA-PJ-02PJ 4.717,72 1.206,59 0,00 0,00 2.413,17 0,00 8.337,48 1.015,29 1.152,31 0,00 2.167,60 6.169,88 1.431,00 1.990,38 29/02/2016
364 373800 BRUNO MARTINO DE ALBUQUERQUE ANALISTA DO MP ATIVO PONTE NOVA - COMARCA; PONTE NOVA-PJ-03PJ 7.091,14 901,11 0,00 0,00 0,00 0,00 7.992,25 1.193,46 924,39 0,00 2.117,85 5.874,40 1.431,00 937,47 29/02/2016
365 470400 BRUNO NOVAIS CABRAL ANALISTA DO MP ATIVO MUTUM - COMARCA; MUTUM-PJ-UNPJ 7.435,23 743,52 0,00 0,00 0,00 0,00 8.178,75 1.017,70 1.132,39 0,00 2.150,09 6.028,66 799,00 1.073,18 29/02/2016
366 369200 BRUNO ROBERTO DIAS DE OLIVEIRA OFICIAL DO MP ATIVO BELO HORIZONTE - COMARCA; BH-22PJ PES COM DEF E IDOSOS 6.229,29 622,93 0,00 0,00 0,00 0,00 6.852,22 753,74 807,72 0,00 1.561,46 5.290,76 799,00 0,00 29/02/2016
367 547700 BRUNO ROBERTO SOUZA GONCALVES ANALISTA DO MP ATIVO PARACATU - COMARCA; PARACATU-PJ-03PJ 5.842,66 0,00 0,00 0,00 0,00 0,00 5.842,66 642,69 560,63 0,00 1.203,32 4.639,34 799,00 0,00 29/02/2016
368 546100 BRUNO SA VIEIRA ANALISTA DO MP ATIVO ERVÁLIA - COMARCA; ERVALIA-PJ-UNPJ 5.842,66 0,00 0,00 0,00 1.947,55 0,00 7.790,21 642,69 1.096,21 0,00 1.738,90 6.051,31 799,00 0,00 29/02/2016
369 438200 BRUNO SALES PEREIRA ANALISTA DO MP ATIVO BELO HORIZONTE - COMARCA; CENTRAL DE APOIO TECNICO-SETOR CONTABIL 6.549,52 818,53 0,00 0,00 0,00 0,00 7.368,05 1.444,19 832,35 0,00 2.276,54 5.091,51 1.431,00 4.125,20 29/02/2016
370 537400 BRUNO SANT'ANA CESAR ANALISTA DO MP ATIVO CONTAGEM - COMARCA; CONTAGEM-PJ-09PJ 5.842,66 0,00 0,00 0,00 0,00 0,00 5.842,66 642,69 560,63 0,00 1.203,32 4.639,34 799,00 0,00 29/02/2016
371 405800 CAIO FERNANDO RODRIGUES DE OLIVEIRA ANALISTA DO MP ATIVO BELO HORIZONTE - COMARCA; ASSESS TECNICO-JUR JUNTO AS PROC. DE JUST 6.807,06 872,70 0,00 0,00 0,00 0,00 7.679,76 1.055,97 952,18 0,00 2.008,15 5.671,61 799,00 0,00 29/02/2016
372 530000 CAIO GUEDES DE OLIVEIRA ANALISTA DO MP ATIVO DIAMANTINA - COMARCA; DIAMANTINA-PJ-03PJ 5.842,66 0,00 0,00 0,00 1.947,55 0,00 7.790,21 642,69 1.044,07 0,00 1.686,76 6.103,45 1.431,00 0,00 29/02/2016
373 491400 CAIO MIRANDA JUNQUEIRA ANALISTA DO MP ATIVO BUENO BRANDAO - COMARCA; BUENO BRANDAO-PJ-UNPJ 6.641,51 398,49 0,00 0,00 0,00 0,00 7.040,00 774,40 801,54 0,00 1.575,94 5.464,06 1.431,00 0,00 29/02/2016
374 415800 CAMILA ALVES DA SILVA ANALISTA DO MP ATIVO CAETÉ - COMARCA; CAETE-PJ-01PJ 6.867,60 872,70 0,00 0,00 0,00 0,00 7.740,30 1.155,87 968,83 0,00 2.124,70 5.615,60 799,00 908,16 29/02/2016
375 555800 CAMILA CAROLINE ROCHA CHAVES OFICIAL DO MP ATIVO SALINAS - COMARCA; SALINAS-PJ-01PJ 3.792,57 0,00 0,00 0,00 0,00 0,00 3.792,57 417,18 151,51 0,00 568,69 3.223,88 875,80 0,00 29/02/2016
376 445200 CAMILA CONDE ROCHA ANALISTA DO MP ATIVO CONTAGEM - COMARCA; CONTAGEM-PJ-08PJ 6.549,52 818,53 0,00 0,00 0,00 0,00 7.368,05 1.262,68 884,49 0,00 2.147,17 5.220,88 799,00 2.475,12 29/02/2016
377 419900 CAMILA CUNNINGHAM PIMENTA DE PADUA ANALISTA DO MP ATIVO BELO HORIZONTE - COMARCA; ASSESSORIA PSICOSSOCIAL 6.807,06 872,70 0,00 0,00 0,00 0,00 7.679,76 1.055,97 952,18 0,00 2.008,15 5.671,61 799,00 0,00 29/02/2016
378 507700 CAMILA ELIZABETH RODRIGUES ANALISTA DO MP ATIVO BELO HORIZONTE - COMARCA; BH-02PJ FAMILIA-SECRETARIA 5.792,74 432,04 0,00 0,00 0,00 0,00 6.224,78 1.100,44 611,56 0,00 1.712,00 4.512,78 799,00 2.371,12 29/02/2016
379 372700 CAMILA FONSECA LIMONGE ANALISTA DO MP ATIVO BETIM - COMARCA; BETIM-PJ-12PJ 9.011,08 901,11 0,00 0,00 0,00 0,00 9.912,19 1.193,46 1.556,65 0,00 2.750,11 7.162,08 1.768,07 937,47 29/02/2016
380 621300 CAMILA GOLFETO DE SOUSA VALENTE OFICIAL DO MP ATIVO ESPERA FELIZ - COMARCA; ESPERA FELIZ-PJ-UNPJ 3.129,28 0,00 0,00 0,00 0,00 0,00 3.129,28 409,33 37,64 0,00 446,97 2.682,31 1.525,72 624,85 29/02/2016
381 409800 CAMILA GONCALVES COSTA RIBEIRO ANALISTA DO MP ATIVO INHAPIM - COMARCA; INHAPIM-PJ-02PJ 8.185,27 818,53 0,00 0,00 0,00 0,00 9.003,80 990,42 1.282,18 0,00 2.272,60 6.731,20 1.431,00 0,00 29/02/2016
382 335000 CAMILA GONTIJO DE PAIVA ANALISTA DO MP ATIVO BELO HORIZONTE - COMARCA; COORD DE CONTROLE DA CONSTITUCIONALIDADE 10.921,00 2.184,20 0,00 0,00 0,00 0,00 13.105,20 1.837,87 2.233,86 0,00 4.071,73 9.033,47 1.431,00 3.602,73 29/02/2016
383 547800 CAMILA MATTARELLI DE ABREU E SILVA ANALISTA DO MP ATIVO BELO HORIZONTE - COMARCA; COORD DE INCLUSAO E MOBILIZACAO SOCIAIS 5.307,28 0,00 0,00 0,00 0,00 0,00 5.307,28 583,80 429,60 0,00 1.013,40 4.293,88 799,00 0,00 29/02/2016
384 430000 CANDIDA MARINA COSTA ANALISTA DO MP ATIVO BELO HORIZONTE - COMARCA; DIVISAO DE DOCUMENTACAO JURIDICA 8.727,00 872,70 0,00 0,00 0,00 0,00 9.599,70 1.155,87 1.480,17 0,00 2.636,04 6.963,66 799,00 908,16 29/02/2016
385 614300 CARINA CORTIELHA OFICIAL DO MP ATIVO BELO HORIZONTE - COMARCA; BH-23PJ CIVEL-SEC EXP CIVEIS 3.129,28 0,00 0,00 0,00 1.043,09 0,00 4.172,37 344,22 1.489,80 0,00 1.834,02 2.338,35 2.676,57 4.797,57 29/02/2016
386 380400 CARINA DIAS FACANHA DE SOUZA ANALISTA DO MP ATIVO SANTA RITA DO SAPUCAÍ - COMARCA; SANTA RITA DO SAPUCAI-PJ-SECRETARIA 7.731,12 901,11 0,00 0,00 0,00 0,00 8.632,23 1.193,46 1.204,66 0,00 2.398,12 6.234,11 1.431,00 937,47 29/02/2016
387 255000 CARLA ADRIANA DE MENEZES OFICIAL DO MP ATIVO BELO HORIZONTE - COMARCA; CENT DE APOIO TEC-SETOR DEF,IDOSO E INFANC 6.973,67 1.394,73 0,00 0,00 0,00 0,00 8.368,40 920,52 1.178,81 0,00 2.099,33 6.269,07 799,00 0,00 29/02/2016
388 425100 CARLA ADRIANA DINIZ AMARAL OFICIAL DO MP ATIVO CONTAGEM - COMARCA; CONTAGEM-PJ-08PJ 4.274,44 548,01 0,00 0,00 0,00 0,00 4.822,45 663,09 257,07 0,00 920,16 3.902,29 799,00 0,00 29/02/2016
389 508100 CARLA ALESSANDRA FONSECA ANALISTA DO MP ATIVO BELO HORIZONTE - COMARCA; CAO-ORDEM ECONOMICA E TRIBUTARIA-SECRETARIA 6.731,41 432,04 0,00 0,00 0,00 0,00 7.163,45 1.110,50 869,70 0,00 1.980,20 5.183,25 799,00 2.462,59 29/02/2016
390 607100 CARLA ANGELICA DIAS MIRANDA OFICIAL DO MP ATIVO JABOTICATUBAS - COMARCA; JABOTICATUBAS-PJ-UNPJ 3.792,57 0,00 0,00 0,00 0,00 0,00 3.792,57 417,18 67,70 0,00 484,88 3.307,69 799,00 0,00 29/02/2016
391 351500 CARLA APARECIDA MENDES RAMIRIO OFICIAL DO MP ATIVO PASSOS - COMARCA; PASSOS-PJ-01PJ 4.902,05 622,93 0,00 0,00 0,00 0,00 5.524,98 825,02 394,74 0,00 1.219,76 4.305,22 799,00 648,00 29/02/2016
392 206200 CARLA BORGES DA COSTA COORDENADOR/ANALISTA ATIVO BELO HORIZONTE - COMARCA; DIRETORIA DE PROJETOS DE EDIFICACOES 15.298,25 8.303,50 0,00 0,00 0,00 0,00 23.601,75 2.535,39 4.973,24 0,00 7.508,63 16.093,12 799,00 1.631,40 29/02/2016
393 442800 CARLA GONCALVES COSTA SOALHEIRO ANALISTA DO MP ATIVO GOVERNADOR VALADARES - COMARCA; GOVERNADOR VALADARES-PJ-11PJ 8.185,27 818,53 0,00 0,00 0,00 0,00 9.003,80 1.262,68 1.282,18 0,00 2.544,86 6.458,94 2.063,00 2.475,12 29/02/2016
394 321500 CARLA GONCALVES MASSOTE OFICIAL DO MP ATIVO CAMPO BELO - COMARCA; CAMPO BELO-PJ-01PJ 6.973,67 1.394,73 0,00 0,00 2.789,47 0,00 11.157,87 1.206,48 1.945,91 0,00 3.152,39 8.005,48 799,00 2.599,60 29/02/2016
395 429200 CARLA HAUTEQUESTT BECHARA ANALISTA DO MP ATIVO BELO HORIZONTE - COMARCA; DIVISAO DE DOCUMENTACAO JURIDICA 8.727,00 872,70 0,00 0,00 0,00 0,00 9.599,70 1.155,87 1.480,17 0,00 2.636,04 6.963,66 799,00 908,16 29/02/2016
396 247500 CARLA MATILDE GUIMARAES DE OLIVEIRA OFICIAL DO MP ATIVO ITAJUBA - COMARCA; ITAJUBA-PJ-05PJ 7.435,23 2.230,57 0,00 0,00 0,00 0,00 9.665,80 1.063,24 1.444,21 0,00 2.507,45 7.158,35 799,00 0,00 29/02/2016
397 226100 CARLA MERLI DA CONCEICAO ANALISTA DO MP ATIVO BELO HORIZONTE - COMARCA; CENTRAL DE APOIO TECNICO-SETOR CONTABIL 13.616,17 2.723,23 0,00 0,00 0,00 0,00 16.339,40 2.071,16 3.077,57 0,00 5.148,73 11.190,67 799,00 2.489,32 29/02/2016
398 181401 CARLO MICHEL GAUDENSI COELHO ANALISTA DO MP ATIVO BELO HORIZONTE - COMARCA; BH-08PJ JUIZADO ESPECIAL-SECRETARIA 6.254,33 2.535,54 0,00 0,00 0,00 0,00 8.789,87 1.208,61 1.215,49 0,00 2.424,10 6.365,77 799,00 0,00 29/02/2016
399 634000 CARLOS ALBERTO AMORMINO TRIGUEIRO ANALISTA DO MP ATIVO BELO HORIZONTE - COMARCA; DIRET DE APOIO AS PROCURADORIAS DE JUSTICA 4.668,87 0,00 0,00 0,00 0,00 0,00 4.668,87 513,58 256,15 0,00 769,73 3.899,14 1.431,00 0,00 29/02/2016
400 637900 CARLOS ALBERTO DE MOURA OFICIAL DO MP ATIVO SETE LAGOAS - COMARCA; SETE LAGOAS-PJ-SECRETARIA 3.030,62 0,00 0,00 0,00 0,00 0,00 3.030,62 333,37 45,27 0,00 378,64 2.651,98 1.431,00 0,00 29/02/2016
401 638700 CARLOS ALBERTO FERREIRA BRAGA ANALISTA DO MP ATIVO RIBEIRÃO DAS NEVES - COMARCA; RIBEIRAO DAS NEVES-PJ-11PJ 4.668,87 0,00 0,00 0,00 0,00 0,00 4.668,87 513,58 213,49 0,00 727,07 3.941,80 799,00 0,00 29/02/2016
402 375801 CARLOS ALBERTO ROCHA ANALISTA DO MP ATIVO ELOI MENDES - COMARCA; ELOI MENDES-PJ-SECRETARIA 5.145,67 0,00 0,00 0,00 0,00 0,00 5.145,67 707,53 362,45 0,00 1.069,98 4.075,69 799,00 0,00 29/02/2016
403 462800 CARLOS ANDREI SOARES FAGUNDES ANALISTA DO MP ATIVO MONTES CLAROS - COMARCA; MONTES CLAROS-PJ-09PJ 7.435,23 743,52 0,00 0,00 0,00 0,00 8.178,75 1.076,73 1.080,25 0,00 2.156,98 6.021,77 1.431,00 1.609,77 29/02/2016
404 370300 CARLOS AUGUSTO BUENO DIAS ASSESSOR ATIVO BELO HORIZONTE - COMARCA; SUPERINTENDÊNCIA DE ENGENHARIA E ARQUITETURA 0,00 0,00 8.451,80 0,00 2.817,27 0,00 11.269,07 570,88 1.580,76 0,00 2.151,64 9.117,43 799,00 0,00 29/02/2016
405 505100 CARLOS CEZAR CARVALHO ANALISTA DO MP ATIVO RIBEIRÃO DAS NEVES - COMARCA; RIBEIRAO DAS NEVES-PJ-04PJ 5.072,95 1.992,45 0,00 0,00 0,00 0,00 7.065,40 1.384,88 708,17 0,00 2.093,05 4.972,35 799,00 4.219,47 29/02/2016
406 195900 CARLOS DE SOUZA FERREIRA OFICIAL DO MP ATIVO COROMANDEL - COMARCA; COROMANDEL-PJ-UNPJ 8.185,27 5.729,69 0,00 0,00 0,00 0,00 13.914,96 1.530,65 2.484,19 0,00 4.014,84 9.900,12 799,00 0,00 29/02/2016
407 196800 CARLOS EDUARDO DE OLIVEIRA MARINHO OFICIAL DO MP ATIVO ALPINÓPOLIS - COMARCA; ALPINOPOLIS-PJ-UNPJ 10.243,18 5.121,59 0,00 0,00 0,00 0,00 15.364,77 1.849,98 2.839,03 0,00 4.689,01 10.675,76 1.431,00 1.453,23 29/02/2016
408 491800 CARLOS EDUARDO ROMAN OFICIAL DO MP ATIVO BARBACENA - COMARCA; BARBACENA-PJ-09PJ 3.641,72 466,89 0,00 0,00 0,00 0,00 4.108,61 564,93 176,75 0,00 741,68 3.366,93 799,00 0,00 29/02/2016
409 299300 CARLOS HENRIQUE BICALHO ANALISTA DO MP ATIVO BELO HORIZONTE - COMARCA; BH-17PJ PATRIMONIO PUBLICO-SECRETARIA 11.643,70 3.493,11 0,00 0,00 0,00 0,00 15.136,81 2.275,41 2.835,37 0,00 5.110,78 10.026,03 799,00 5.548,76 29/02/2016
410 205100 CARLOS HENRIQUE ESTEVES OFICIAL DO MP ATIVO ITAMBACURI - COMARCA; ITAMBACURI-PJ-01PJ 10.243,18 3.072,95 0,00 0,00 0,00 0,00 13.316,13 1.464,77 2.337,63 0,00 3.802,40 9.513,73 799,00 0,00 29/02/2016
411 351600 CARLOS HENRIQUE FELICIO DA FONSECA OFICIAL DO MP ATIVO LIMA DUARTE - COMARCA; LIMA DUARTE-PJ-UNPJ 5.193,61 1.328,30 0,00 0,00 0,00 0,00 6.521,91 1.117,68 630,94 0,00 1.748,62 4.773,29 799,00 2.190,90 29/02/2016
412 85400 CARLOS JOSE VIEIRA OFICIAL DO MP ATIVO BELO HORIZONTE - COMARCA; DIRETORIA DO COLEGIO E DA CAMARA DE PJ 19.311,46 13.518,02 0,00 0,00 0,00 0,00 32.829,48 3.351,82 6.588,44 2.358,37 12.298,63 20.530,85 799,00 0,00 29/02/2016
413 229100 CARLOS MERCES DE OLIVEIRA ANALISTA DO MP ATIVO BELO HORIZONTE - COMARCA; CENTRAL DE APOIO TECN-SETOR DE MEIO AMBIENTE 13.616,17 4.084,85 0,00 0,00 0,00 0,00 17.701,02 2.290,89 2.638,24 0,00 4.929,13 12.771,89 799,00 3.125,30 29/02/2016
414 538300 CARLOS RANGEL SILVA DE MELO ANALISTA DO MP ATIVO BELO HORIZONTE - COMARCA; DIVISAO DE CONTROLE IMOBILIARIO 5.307,28 1.061,46 0,00 0,00 0,00 0,00 6.368,74 700,56 1.209,71 0,00 1.910,27 4.458,47 799,00 1.892,06 29/02/2016
415 265100 CARLOS REIFF MIRANDA ANALISTA DO MP ATIVO BELO HORIZONTE - COMARCA; BH-19PJ SAUDE-SECRETARIA 150PJ 10.576,63 2.115,33 0,00 0,00 4.230,65 0,00 16.922,61 1.396,12 3.400,42 0,00 4.796,54 12.126,07 799,00 0,00 29/02/2016
416 305400 CARLOS ROCHA DE SOUZA OFICIAL DO MP ATIVO MONTALVÂNIA - COMARCA; MONTALVANIA-PJ-SECRETARIA 4.977,82 995,56 0,00 0,00 0,00 0,00 5.973,38 657,07 389,41 0,00 1.046,48 4.926,90 2.215,83 0,00 29/02/2016
417 365100 CARLOS WAGNER SANDER MORAIS COORDENADOR/OFICIAL ATIVO BELO HORIZONTE - COMARCA; DIRETORIA DE ADMINISTRACAO FINANCEIRA 0,00 1.092,10 10.921,00 0,00 0,00 0,00 12.013,10 803,62 2.213,25 0,00 3.016,87 8.996,23 799,00 0,00 29/02/2016
418 399900 CARMELITA EVANGELISTA DE SOUZA OFICIAL DO MP ATIVO JOÃO PINHEIRO - COMARCA; JOAO PINHEIRO-PJ-01PJ 5.658,41 565,84 0,00 0,00 2.074,75 0,00 8.299,00 684,67 1.224,58 0,00 1.909,25 6.389,75 799,00 0,00 29/02/2016
419 390400 CARMEM APARECIDA ANTUNES RESENDE OFICIAL DO MP ATIVO IGARAPÉ - COMARCA; IGARAPE-PJ-SECRETARIA 5.480,05 4.932,05 0,00 0,00 0,00 1.145,33 11.557,43 1.145,33 1.941,83 0,00 3.087,16 8.470,27 799,00 0,00 29/02/2016
420 202000 CARMEN LUCIA MARIZ DE MACEDO OFICIAL DO MP ATIVO BELO HORIZONTE - COMARCA; COORD COMB REPRES TRAFICO ILICITO ENTORPECEN 9.920,24 4.960,12 0,00 0,00 4.960,12 0,00 19.840,48 1.636,84 4.032,37 0,00 5.669,21 14.171,27 799,00 0,00 29/02/2016
421 228500 CAROLINA CHIARELLA DOS SANTOS RIBEIRO OFICIAL DO MP ATIVO BELO HORIZONTE - COMARCA; BH-13ª PJ JUÍXO DE TÓXICOS 4.568,91 1.168,53 0,00 0,00 0,00 0,00 5.737,44 1.053,91 395,95 0,00 1.449,86 4.287,58 1.431,00 2.569,84 29/02/2016
422 446500 CAROLINA COSTA VAL RODRIGUES ANALISTA DO MP ATIVO CONTAGEM - COMARCA; CONTAGEM-PJ-05PJ 8.451,80 845,18 0,00 0,00 0,00 0,00 9.296,98 1.022,67 1.406,08 0,00 2.428,75 6.868,23 799,00 0,00 29/02/2016
423 603501 CAROLINA DOMINGOS BRANDAO ANALISTA DO MP ATIVO CARATINGA - COMARCA; CARATINGA-PJ-03PJ 5.307,28 0,00 0,00 0,00 0,00 0,00 5.307,28 690,80 429,60 0,00 1.120,40 4.186,88 799,00 972,74 29/02/2016
424 404300 CAROLINA DOS SANTOS VIEIRA ANALISTA DO MP ATIVO BELO HORIZONTE - COMARCA; BH-08PJ JUIZADO ESPECIAL-SECRETARIA 7.091,14 901,11 0,00 0,00 0,00 0,00 7.992,25 1.193,46 924,39 0,00 2.117,85 5.874,40 1.431,00 937,47 29/02/2016
425 551200 CAROLINA LOPES ARANTES MASCARENHAS ANALISTA DO MP ATIVO BELO HORIZONTE - COMARCA; EXTINTA - COORD DEFESA DO DIREITO DE FAMILIA 5.842,66 0,00 0,00 0,00 0,00 0,00 5.842,66 642,69 508,49 0,00 1.151,18 4.691,48 1.431,00 0,00 29/02/2016
426 622600 CAROLINA LOREDO LOPES OFICIAL DO MP ATIVO RIBEIRÃO DAS NEVES - COMARCA; RIBEIRAO DAS NEVES-PJ-12PJ 2.523,16 0,00 0,00 0,00 0,00 0,00 2.523,16 398,48 20,62 0,00 419,10 2.104,06 799,00 526,19 29/02/2016
427 382200 CAROLINA MENDES CHAVES LIN ANALISTA DO MP ATIVO BELO HORIZONTE - COMARCA; BH-12PJ JUIZO CRIMINAL-GAB 088PJ 6.973,67 697,37 0,00 0,00 0,00 0,00 7.671,04 843,81 955,99 0,00 1.799,80 5.871,24 799,00 0,00 29/02/2016
428 461900 CAROLINA MURTA TEIXEIRA DIAS ANALISTA DO MP ATIVO BELO HORIZONTE - COMARCA; DIRET DE FORMACAO, APERFEIC. E POS-GRADUACAO 7.435,23 446,11 0,00 0,00 0,00 0,00 7.881,34 948,97 1.059,60 0,00 2.008,57 5.872,77 799,00 745,68 29/02/2016
429 509600 CAROLINA PINTO DE OLIVEIRA SOUZA ANALISTA DO MP ATIVO MURIAÉ - COMARCA; MURIAE-PJ-01PJ 7.200,74 432,04 0,00 0,00 0,00 0,00 7.632,78 1.100,44 946,62 0,00 2.047,06 5.585,72 2.063,00 2.371,12 29/02/2016
430 629100 CAROLINA RODRIGUES AMARAL ANALISTA DO MP ATIVO BELO HORIZONTE - COMARCA; PROC. JUSTICA DIR. DIFUSOS E COLETIVOS-SEC 5.307,28 0,00 0,00 0,00 0,00 0,00 5.307,28 657,44 429,60 0,00 1.087,04 4.220,24 799,00 725,23 29/02/2016
431 502600 CAROLINA RODRIGUES RUBEN ANALISTA DO MP ATIVO BELO HORIZONTE - COMARCA; EXTINTA-DEF DIREIT HUM-COMB A VIOL DOMEST-18 5.792,74 432,04 0,00 0,00 0,00 0,00 6.224,78 1.165,64 611,56 0,00 1.777,20 4.447,58 4.861,81 3.336,32 29/02/2016
432 529600 CAROLINA VAZ DE MELO MAMBRINI ANALISTA DO MP ATIVO MINAS NOVAS - COMARCA; MINAS NOVAS-PJ-UNPJ 5.842,66 0,00 0,00 0,00 0,00 0,00 5.842,66 642,69 560,63 0,00 1.203,32 4.639,34 799,00 0,00 29/02/2016
433 619100 CAROLINA ZAKHIA NARDELLI RODRIGUES ANALISTA DO MP ATIVO NEPOMUCENO - COMARCA; NEPOMUCENO-PJ-UNPJ 5.307,28 0,00 0,00 0,00 0,00 0,00 5.307,28 583,80 429,60 0,00 1.013,40 4.293,88 799,00 0,00 29/02/2016
434 517600 CAROLINE ALVES DE OLIVEIRA MULLER ANALISTA DO MP ATIVO VISCONDE DO RIO BRANCO - COMARCA; VISCONDE DO RIO BRANCO-PJ-01PJ 6.966,07 432,04 0,00 0,00 0,00 0,00 7.398,11 839,61 882,09 0,00 1.721,70 5.676,41 2.063,00 0,00 29/02/2016
435 373200 CAROLINE ANTUNES RIBEIRO OFICIAL DO MP ATIVO JACUI - COMARCA; JACUI-PJ-UNPJ 6.032,93 603,29 0,00 0,00 0,00 0,00 6.636,22 729,98 598,44 0,00 1.328,42 5.307,80 799,00 0,00 29/02/2016
436 556800 CAROLINE DE SOUZA CARDOSO OFICIAL DO MP ATIVO BRASÍLIA DE MINAS - COMARCA; BRASILIA DE MINAS-PJ-02PJ 3.445,03 0,00 0,00 0,00 0,00 0,00 3.445,03 378,95 105,11 0,00 484,06 2.960,97 799,00 0,00 29/02/2016
437 499400 CAROLINE MARQUES DE LOURDES MARZULLO OFICIAL DO MP ATIVO JUIZ DE FORA - COMARCA; JUIZ DE FORA-PJ-20PJ 4.668,87 280,13 0,00 0,00 0,00 0,00 4.949,00 793,83 354,91 0,00 1.148,74 3.800,26 2.063,00 2.267,65 29/02/2016
438 616800 CAROLINE MONTEIRO DE BARROS ANALISTA DO MP ATIVO CONTAGEM - COMARCA; CONTAGEM-PJ-11PJ 5.307,28 0,00 0,00 0,00 0,00 0,00 5.307,28 583,80 429,60 0,00 1.013,40 4.293,88 799,00 0,00 29/02/2016
439 618100 CAROLINE VASCONCELOS COSTA LANZA ANALISTA DO MP ATIVO PARAOPEBA - COMARCA; PARAOPEBA-PJ-UNPJ 5.307,28 0,00 0,00 0,00 0,00 0,00 5.307,28 583,80 429,60 0,00 1.013,40 4.293,88 1.431,00 0,00 29/02/2016
440 604000 CASSIA APARECIDA DA SILVA OFICIAL DO MP ATIVO CANÁPOLIS - COMARCA; CANAPOLIS-PJ-UNPJ 3.445,03 0,00 0,00 0,00 0,00 0,00 3.445,03 448,41 105,11 0,00 553,52 2.891,51 799,00 631,50 29/02/2016
441 268800 CASSIA BEATRIZ TEIXEIRA OFICIAL DO MP ATIVO BELO HORIZONTE - COMARCA; COMB CRIMES PRAT POR AG POL MUN-SECRETARIA 7.677,29 1.535,46 0,00 0,00 0,00 0,00 9.212,75 1.384,91 1.530,32 0,00 2.915,23 6.297,52 4.861,81 4.557,98 29/02/2016
442 500000 CASSIA DE OLIVEIRA COSTA VIANA ANALISTA DO MP ATIVO SETE LAGOAS - COMARCA; SETE LAGOAS-PJ-09PJ 5.473,95 2.880,29 0,00 0,00 0,00 0,00 8.354,24 1.814,05 1.123,11 0,00 2.937,16 5.417,08 799,00 6.652,70 29/02/2016
443 368800 CASSIA LUISA BATISTA MENDONCA WEBER OFICIAL DO MP ATIVO BELO HORIZONTE - COMARCA; PROCON-MG-SEC DE EDUCACAO PARA O CONSUMO 4.762,99 513,99 0,00 0,00 0,00 0,00 5.276,98 621,93 411,26 0,00 1.033,19 4.243,79 1.431,00 0,00 29/02/2016
444 622200 CASSIA VAZ DE AZEVEDO LISBOA MARZANO ASSESSOR ATIVO BELO HORIZONTE - COMARCA; CGMP-SECRETARIA DA CORREGEDORIA-GERAL DO MP 0,00 0,00 2.500,62 0,00 0,00 0,00 2.500,62 362,96 49,01 0,00 411,97 2.088,65 1.431,00 0,00 29/02/2016
445 121000 CASSIO HENRIQUE AFONSO DA SILVA OFICIAL DO MP ATIVO BELO HORIZONTE - COMARCA; DIR ANALISES TECNOLOGIA INTELIGENCIA 11.643,70 8.150,59 0,00 0,00 6.598,10 0,00 26.392,39 3.714,33 5.947,12 0,00 9.661,45 16.730,94 2.228,13 14.846,12 29/02/2016
446 121100 CASSIO MOREIRA DE MIRANDA AGENTE DO MP ATIVO BELO HORIZONTE - COMARCA; PROCON-MG-SECRETARIA DE FISCALIZACOES 2.347,72 3.785,59 0,00 0,00 2.525,90 0,00 8.659,21 704,32 542,30 0,00 1.246,62 7.412,59 799,00 0,00 29/02/2016
447 512001 CATARINA NATALINO CALIXTO ASSESSOR/ANALISTA ATIVO BELO HORIZONTE - COMARCA; EXTINTA - DIVISÃO DE APOIO À LICITAÇÃO 0,00 0,00 7.848,37 0,00 0,00 0,00 7.848,37 583,80 1.128,40 0,00 1.712,20 6.136,17 799,00 0,00 29/02/2016
448 606200 CATARINE DE SIQUEIRA DE QUADROS ANALISTA DO MP ATIVO RIBEIRÃO DAS NEVES - COMARCA; RIBEIRAO DAS NEVES-PJ-09PJ 4.343,10 0,00 0,00 0,00 0,00 0,00 4.343,10 690,80 180,66 0,00 871,46 3.471,64 1.431,00 972,74 29/02/2016
449 71800 CATIA EFIGENIA CARNEIRO DE FREITAS OFICIAL DO MP ATIVO BELO HORIZONTE - COMARCA; ASSESSORIA JURIDICO-ADMINISTRATIVA 22.253,01 15.577,10 0,00 0,00 0,00 3.351,82 41.181,93 3.351,82 7.458,06 7.359,00 18.168,88 23.013,05 799,00 0,00 29/02/2016
450 622300 CECILIA APARECIDA PEREIRA ASSUNCAO OFICIAL DO MP ATIVO TRÊS PONTAS - COMARCA; TRES PONTAS-PJ-SECRETARIA 3.445,03 0,00 0,00 0,00 0,00 0,00 3.445,03 438,71 105,11 0,00 543,82 2.901,21 1.831,27 579,52 29/02/2016
451 538000 CECILIA FONTES DE MATOS PIMENTEL ANALISTA DO MP ATIVO PALMA - COMARCA; PALMA-PJ-SECRETARIA 5.842,66 0,00 0,00 0,00 0,00 0,00 5.842,66 642,69 560,63 0,00 1.203,32 4.639,34 1.431,00 0,00 29/02/2016
452 261300 CECILIO ANTONIO CAMPOS DOS REIS ANALISTA DO MP ATIVO BELO HORIZONTE - COMARCA; AUDITORIA INTERNA 12.022,83 2.404,57 0,00 0,00 0,00 0,00 14.427,40 1.787,20 2.661,75 0,00 4.448,95 9.978,45 1.253,96 1.971,49 29/02/2016
453 386400 CEFAS AMORELI DE FIGUEIREDO OFICIAL DO MP ATIVO CABO VERDE - COMARCA; CABO VERDE-PJ-SECRETARIA 4.521,68 452,17 0,00 0,00 0,00 0,00 4.973,85 547,12 359,88 0,00 907,00 4.066,85 799,00 0,00 29/02/2016
454 149000 CELIA MAGALHAES CLAROS SOSSI OFICIAL DO MP ATIVO GOVERNADOR VALADARES - COMARCA; GOVERNADOR VALADARES-PJ-01PJ 7.403,64 5.288,31 0,00 0,00 0,00 0,00 12.691,95 1.745,14 2.141,01 0,00 3.886,15 8.805,80 799,00 0,00 29/02/2016
455 113100 CELIA MARIA ALVES PINTO OFICIAL DO MP ATIVO BELO HORIZONTE - COMARCA; PROCON-MG-SEC DE EDUCACAO PARA O CONSUMO 7.677,29 5.374,11 0,00 0,00 0,00 1.435,65 14.487,05 1.435,65 2.719,78 0,00 4.155,43 10.331,62 799,00 0,00 29/02/2016
456 421000 CELINA BENEDITA DE SOUZA ALMEIDA OFICIAL DO MP ATIVO CAMBUÍ - COMARCA; CAMBUI-PJ-01PJ 5.480,05 2.740,03 0,00 0,00 0,00 0,00 8.220,08 904,21 1.090,37 0,00 1.994,58 6.225,50 799,00 0,00 29/02/2016
457 252900 CELIO DE MELO CASTOR ANALISTA DO MP ATIVO BELO HORIZONTE - COMARCA; BH-20PJ ORD ECON TRIBUTARIA-SECRETARIA 12.022,83 2.404,57 0,00 0,00 0,00 0,00 14.427,40 1.787,20 2.661,75 0,00 4.448,95 9.978,45 799,00 1.971,49 29/02/2016
458 395700 CELIO FERREIRA LIMA OFICIAL DO MP ATIVO CONTAGEM - COMARCA; CONTAGEM-PJ-07PJ 4.711,88 584,27 0,00 0,00 0,00 0,00 5.296,15 767,71 353,78 0,00 1.121,49 4.174,66 2.273,67 552,30 29/02/2016
459 281300 CELMA REGINA PEREIRA SANTOS ANALISTA DO MP ATIVO BELO HORIZONTE - COMARCA; DIVISAO DE DOCUMENTACAO JURIDICA 11.643,70 2.328,74 0,00 0,00 0,00 0,00 13.972,44 1.536,97 2.550,39 0,00 4.087,36 9.885,08 799,00 0,00 29/02/2016
460 535600 CELSO MEDEIROS DE PAIVA OFICIAL DO MP ATIVO RIO PRETO - COMARCA; RIO PRETO-PJ-SECRETARIA 3.445,03 0,00 0,00 0,00 0,00 0,00 3.445,03 378,95 76,67 0,00 455,62 2.989,41 799,00 0,00 29/02/2016
461 367000 CESAR NARVAES DE AVELAR COORDENADOR/OFICIAL ATIVO BELO HORIZONTE - COMARCA; DIVISAO DE MEMORIA INSTITUCIONAL 0,00 960,74 9.607,41 0,00 0,00 0,00 10.568,15 753,74 1.829,60 0,00 2.583,34 7.984,81 799,00 0,00 29/02/2016
462 226500 CESAR SILVEIRA BARROUIN OFICIAL DO MP ATIVO BELO HORIZONTE - COMARCA; DIRETORIA DE ADMINISTRACAO FINANCEIRA 6.254,33 2.535,54 0,00 0,00 0,00 0,00 8.789,87 1.208,61 1.215,49 0,00 2.424,10 6.365,77 799,00 0,00 29/02/2016
463 121400 CEZAR MORENO CONCEICAO TAVARES OFICIAL DO MP ATIVO BELO HORIZONTE - COMARCA; COORD DE INCLUSAO E MOBILIZACAO SOCIAIS 10.576,63 7.403,64 0,00 0,00 0,00 0,00 17.980,27 2.142,89 3.531,31 0,00 5.674,20 12.306,07 799,00 1.500,54 29/02/2016
464 243800 CHARLES MARTINS MUNIZ OFICIAL DO MP ATIVO BELO HORIZONTE - COMARCA; LAB TECNOLOGIA CONTRA LAVAGEM DINHEIRO 6.254,33 2.535,54 0,00 0,00 0,00 0,00 8.789,87 1.208,61 1.215,49 0,00 2.424,10 6.365,77 799,00 0,00 29/02/2016
465 193500 CHARLIN CESAR KOURLY OFICIAL DO MP ATIVO UBERLÂNDIA - COMARCA; UBERLANDIA-PJ-10PJ 10.243,18 3.072,95 0,00 0,00 0,00 0,00 13.316,13 1.603,31 2.389,76 0,00 3.993,07 9.323,06 799,00 1.259,46 29/02/2016
466 385500 CHILLEN PEIXOTO DE MOURA OFICIAL DO MP ATIVO BELO HORIZONTE - COMARCA; PROCON-MG-SECRETARIA DE FISCALIZACOES 5.842,66 584,27 0,00 0,00 0,00 0,00 6.426,93 773,84 703,63 0,00 1.477,47 4.949,46 799,00 608,04 29/02/2016
467 534500 CHRISTIAN DOUGLAS BRITO RUAS OFICIAL DO MP ATIVO SÃO JOÃO DA PONTE - COMARCA; SAO JOAO DA PONTE-PJ-SECRETARIA 3.445,03 0,00 0,00 0,00 0,00 0,00 3.445,03 378,95 105,11 0,00 484,06 2.960,97 799,00 0,00 29/02/2016
468 370600 CHRISTIAN KARINE FELIX PRATES ASSESSOR ATIVO BELO HORIZONTE - COMARCA; ASSESS ESPECIAL DO PGJ ATUACAO JUNTO A PGJAI 0,00 0,00 8.451,80 0,00 0,00 0,00 8.451,80 570,88 1.517,62 0,00 2.088,50 6.363,30 1.431,00 0,00 29/02/2016
469 435800 CHRISTIANA BAHIA ANDRADE PINA ANALISTA DO MP ATIVO BELO HORIZONTE - COMARCA; LAB TECNOLOGIA CONTRA LAVAGEM DINHEIRO 6.867,60 872,70 0,00 0,00 0,00 0,00 7.740,30 1.155,87 968,83 0,00 2.124,70 5.615,60 1.431,00 908,16 29/02/2016
470 516800 CHRISTIANE FERREIRA DO NASCIMENTO ANALISTA DO MP ATIVO ESTRELA DO SUL - COMARCA; ESTRELA DO SUL-PJ-UNPJ 7.200,74 432,04 0,00 0,00 0,00 0,00 7.632,78 1.194,41 998,76 0,00 2.193,17 5.439,61 799,00 3.225,45 29/02/2016
471 176000 CHRISTIANE JUNQUEIRA PULITI ANDRADE DE BARROS ASSESSOR ATIVO BELO HORIZONTE - COMARCA; GABINETE DO PROCURADOR-GERAL DE JUSTICA 0,00 9.908,64 14.155,19 0,00 0,00 0,00 24.063,83 2.647,02 4.968,13 0,00 7.615,15 16.448,68 799,00 0,00 29/02/2016
472 319200 CHRISTIANE MARIA DE ASSIS RUSSO OFICIAL DO MP ATIVO BELO HORIZONTE - COMARCA; CAO-ORDEM ECONOMICA E TRIBUTARIA-SECRETARIA 6.973,67 1.394,73 0,00 0,00 0,00 0,00 8.368,40 1.257,50 1.232,00 0,00 2.489,50 5.878,90 1.431,00 3.063,33 29/02/2016
473 510300 CHRISTIANE MARY DE CARVALHO FERREIRA ANALISTA DO MP ATIVO BELO HORIZONTE - COMARCA; DIRETORIA DE SISTEMAS DE INFORMACAO 5.921,76 432,04 0,00 0,00 0,00 0,00 6.353,80 1.384,28 594,91 0,00 1.979,19 4.374,61 1.431,00 4.951,48 29/02/2016
474 424900 CHRISTIANE PEREIRA TURNER DE ARAUJO OFICIAL DO MP ATIVO BELO HORIZONTE - COMARCA; CAO-PATRIMONIO PUBLICO 5.480,05 548,01 0,00 0,00 0,00 0,00 6.028,06 725,81 553,87 0,00 1.279,68 4.748,38 1.431,00 570,15 29/02/2016
475 513700 CHRISTIANE VIEIRA SOARES PEDERSOLI ANALISTA DO MP ATIVO BELO HORIZONTE - COMARCA; PROCON-MG-GAB DO COORDENADOR DO PROCON-MG 7.200,74 432,04 0,00 0,00 0,00 0,00 7.632,78 970,03 998,76 0,00 1.968,79 5.663,99 1.431,00 1.185,56 29/02/2016
476 412300 CHRYSTIAN MACHADO RIBEIRO ANALISTA DO MP ATIVO VARGINHA - COMARCA; VARGINHA-PJ-04PJ 8.727,00 872,70 0,00 0,00 0,00 0,00 9.599,70 1.055,97 1.480,17 0,00 2.536,14 7.063,56 799,00 0,00 29/02/2016
477 513800 CHRYSTIANE DO NASCIMENTO DE MAGALHAES OFICIAL DO MP ATIVO UBERLÂNDIA - COMARCA; UBERLANDIA-PJ-10PJ 4.668,87 280,13 0,00 0,00 0,00 0,00 4.949,00 644,17 269,59 0,00 913,76 4.035,24 1.431,00 907,06 29/02/2016
478 497900 CIBELE DE FREITAS SANCHES DIAS ANALISTA DO MP ATIVO SABARÁ - COMARCA; SABARA-PJ-03PJ 5.362,53 398,49 0,00 0,00 0,00 0,00 5.761,02 1.200,16 501,96 0,00 1.702,12 4.058,90 799,00 3.870,54 29/02/2016
479 500900 CIBELLE SILVA PRADO ALVARENGA ANALISTA DO MP ATIVO ITANHANDU - COMARCA; ITANHANDU-PJ-UNPJ 7.200,74 432,04 0,00 0,00 0,00 0,00 7.632,78 1.165,64 998,76 0,00 2.164,40 5.468,38 799,00 2.963,90 29/02/2016
480 629800 CINIRA DE ASSIS SILVA ANALISTA DO MP ATIVO TIMÓTEO - COMARCA; TIMOTEO-PJ-02PJ 4.820,91 0,00 0,00 0,00 0,00 0,00 4.820,91 580,47 329,26 0,00 909,73 3.911,18 799,00 456,12 29/02/2016
481 296400 CINTIA APARECIDA MOREIRA NAVES E RODRIGUES ANALISTA DO MP ATIVO CAMPO BELO - COMARCA; CAMPO BELO-PJ-02PJ 11.643,70 2.328,74 0,00 0,00 0,00 0,00 13.972,44 2.100,38 2.550,39 0,00 4.650,77 9.321,67 1.431,00 5.121,92 29/02/2016
482 407900 CINTIA NETO COMELLI ANALISTA DO MP ATIVO BELO HORIZONTE - COMARCA; CENTRAL DE APOIO TECNICO-SETOR CONTABIL 8.727,00 872,70 0,00 0,00 0,00 0,00 9.599,70 1.055,97 1.480,17 0,00 2.536,14 7.063,56 799,00 0,00 29/02/2016
483 304700 CINTIA QUEIROZ OFICIAL DO MP ATIVO BELO HORIZONTE - COMARCA; DIR GESTAO SISTEMAS ATIVIDADE-FIM 6.973,67 1.394,73 0,00 0,00 0,00 0,00 8.368,40 966,41 1.178,81 0,00 2.145,22 6.223,18 799,00 417,18 29/02/2016
484 286100 CIRO CANGUSSU CORDEIRO OFICIAL DO MP ATIVO IPATINGA - COMARCA; IPATINGA-PJ-09PJ 3.783,14 995,56 0,00 0,00 0,00 0,00 4.778,70 657,07 248,58 0,00 905,65 3.873,05 799,00 0,00 29/02/2016
485 412500 CLARICE GOMES MAROTTA ANALISTA DO MP ATIVO BELO HORIZONTE - COMARCA; ASSESS TECNICO-JUR JUNTO AS PROC. DE JUST 6.698,57 1.745,40 0,00 0,00 3.490,80 0,00 11.934,77 1.260,94 2.095,91 0,00 3.356,85 8.577,92 799,00 990,72 29/02/2016
486 605300 CLARISSA AZEVEDO ROCHA OFICIAL DO MP ATIVO BELO HORIZONTE - COMARCA; EXTINTA - DIVISÃO DE COMPRAS 3.103,56 0,00 0,00 0,00 0,00 0,00 3.103,56 493,64 58,68 0,00 552,32 2.551,24 799,00 695,08 29/02/2016
487 308100 CLARISSA DUARTE MARTINS DIRETOR/ANALISTA ATIVO BELO HORIZONTE - COMARCA; SUPERINTENDENCIA DE RECURSOS HUMANOS 0,00 2.831,04 14.155,19 0,00 0,00 0,00 16.986,23 1.536,97 3.327,05 0,00 4.864,02 12.122,21 799,00 0,00 29/02/2016
488 497100 CLARISSA ROCHA GUIDI ANALISTA DO MP ATIVO BELO HORIZONTE - COMARCA; EXTINTA - JUIZO DE FAMILIA-02 PJ-02 VARA 5.792,74 432,04 0,00 0,00 0,00 0,00 6.224,78 1.230,85 611,56 0,00 1.842,41 4.382,37 799,00 3.556,68 29/02/2016
489 641800 CLARISSE TAVARES GONCALVES OFICIAL DO MP ATIVO BELO HORIZONTE - COMARCA; BH-07PJ 01 TRIBUNAL DO JURI 2.929,60 0,00 0,00 0,00 0,00 0,00 2.929,60 333,37 51,92 0,00 385,29 2.544,31 799,00 0,00 29/02/2016
490 463700 CLAUDIA ADRIANA FERRAO DIAS ANALISTA DO MP ATIVO SETE LAGOAS - COMARCA; SETE LAGOAS-PJ-06PJ 5.908,67 743,52 0,00 0,00 0,00 0,00 6.652,19 981,68 608,31 0,00 1.589,99 5.062,20 799,00 828,53 29/02/2016
491 415400 CLAUDIA ALMEIDA DE VASCONCELLOS BARROS ASSESSOR/OFICIAL ATIVO BELO HORIZONTE - COMARCA; DIRET DE PESSOAL DO MINISTERIO PUBLICO - DPMP 0,00 845,18 8.451,80 0,00 0,00 0,00 9.296,98 1.022,67 1.804,44 0,00 2.827,11 6.469,87 799,00 1.448,60 29/02/2016
492 389600 CLAUDIA ALVES PERDOMO ASSESSOR ATIVO BELO HORIZONTE - COMARCA; PROCON-MG-GAB DO COORDENADOR DO PROCON-MG 0,00 0,00 8.451,80 0,00 0,00 0,00 8.451,80 570,88 1.517,62 0,00 2.088,50 6.363,30 799,00 0,00 29/02/2016
493 207000 CLAUDIA APARECIDA VILELA MACHADO ANALISTA DO MP ATIVO BELO HORIZONTE - COMARCA; CENTRAL DE APOIO TECNICO-SETOR CONTABIL 15.298,25 4.589,48 0,00 0,00 0,00 0,00 19.887,73 2.668,73 3.969,78 0,00 6.638,51 13.249,22 1.431,00 4.373,40 29/02/2016
494 365700 CLAUDIA BREGUEZ CUNHA ANALISTA DO MP ATIVO VARGINHA - COMARCA; VARGINHA-PJ-07PJ 7.737,79 992,02 0,00 0,00 0,00 0,00 8.729,81 1.200,35 1.201,24 0,00 2.401,59 6.328,22 799,00 0,00 29/02/2016
495 430500 CLAUDIA CECILIA SANTANA VENCESLAU COORDENADOR/OFICIAL ATIVO BELO HORIZONTE - COMARCA; DIRET DE DESENV DE RECURSOS HUMANOS-DDRH 0,00 1.092,10 10.921,00 0,00 0,00 0,00 12.013,10 663,09 2.199,76 0,00 2.862,85 9.150,25 1.431,00 0,00 29/02/2016
496 112400 CLAUDIA CRISTINA FIUZA DE AVELAR AGENTE DO MP ATIVO BELO HORIZONTE - COMARCA; SERVICO MEDICO-DEPTO PERIC MEDICA SAUDE OCUP 6.857,79 3.428,90 0,00 0,00 3.428,90 0,00 13.715,59 1.131,54 2.591,25 0,00 3.722,79 9.992,80 799,00 0,00 29/02/2016
497 149400 CLAUDIA DINIZ OFICIAL DO MP ATIVO BELO HORIZONTE - COMARCA; BH-09PJ AUDITORIA MILITAR-SECRETARIA 9.317,93 6.548,78 0,00 0,00 0,00 0,00 15.866,71 2.490,30 2.899,68 0,00 5.389,98 10.476,73 799,00 2.992,68 29/02/2016
498 480400 CLAUDIA GOULART DE SOUZA OFICIAL DO MP ATIVO PASSOS - COMARCA; PASSOS-PJ-06PJ 4.009,14 1.027,98 0,00 0,00 0,00 0,00 5.037,12 904,63 344,57 0,00 1.249,20 3.787,92 799,00 2.055,96 29/02/2016
499 519800 CLAUDIA HELENA CORREA DE ALMEIDA ANALISTA DO MP ATIVO BELO HORIZONTE - COMARCA; BH-12PJ JUIZO CRIMINAL-GAB 090PJ 5.233,51 398,49 0,00 0,00 2.346,67 0,00 7.978,67 774,40 1.111,81 0,00 1.886,21 6.092,46 799,00 0,00 29/02/2016
500 422100 CLAUDIA IACOMINI CABRAL ANALISTA DO MP ATIVO BELO HORIZONTE - COMARCA; CENT DE APOIO TEC-SETOR DEF,IDOSO E INFANC 8.727,00 4.363,50 0,00 0,00 0,00 0,00 13.090,50 1.576,19 2.334,54 0,00 3.910,73 9.179,77 799,00 1.238,40 29/02/2016
501 258200 CLAUDIA LAGE MICHALAROS ANALISTA DO MP ATIVO BELO HORIZONTE - COMARCA; CENTRAL DE APOIO TECN-SETOR DE MEIO AMBIENTE 8.529,72 6.011,42 0,00 0,00 6.011,42 0,00 20.552,56 2.234,00 4.184,92 0,00 6.418,92 14.133,64 799,00 2.274,80 29/02/2016
502 284600 CLAUDIA LENI DE ABREU OFICIAL DO MP ATIVO CONTAGEM - COMARCA; CONTAGEM-PJ-22PJ 4.977,82 1.493,35 0,00 0,00 2.157,06 0,00 8.628,23 711,83 1.307,65 0,00 2.019,48 6.608,75 799,00 0,00 29/02/2016
503 433600 CLAUDIA LUIZA SANTIAGO FELICIO ANALISTA DO MP ATIVO BELO HORIZONTE - COMARCA; CAO-SAUDE-TECNICO JURIDICO 8.727,00 872,70 0,00 0,00 0,00 0,00 9.599,70 1.155,87 1.375,89 0,00 2.531,76 7.067,94 1.431,00 908,16 29/02/2016
504 317000 CLAUDIA MACHADO ALVES OFICIAL DO MP ATIVO BELO HORIZONTE - COMARCA; SUPRIN DE PLANEJAMENTO E COORDENACAO 5.480,05 1.096,01 0,00 0,00 0,00 0,00 6.576,06 791,79 740,13 0,00 1.531,92 5.044,14 799,00 621,96 29/02/2016
505 155300 CLAUDIA MACIEL MIRANDA OFICIAL DO MP ATIVO CONGONHAS - COMARCA; CONGONHAS-PJ-02PJ 7.708,54 4.230,65 0,00 0,00 0,00 0,00 11.939,19 1.782,85 1.861,72 0,00 3.644,57 8.294,62 799,00 1.400,49 29/02/2016
506 242200 CLAUDIA MICHELLE DIAS MUNIZ BALEEIRO OFICIAL DO MP ATIVO MONTE AZUL - COMARCA; MONTE AZUL-PJ-SECRETARIA 7.435,23 2.230,57 0,00 0,00 0,00 0,00 9.665,80 1.197,37 1.392,07 0,00 2.589,44 7.076,36 799,00 1.219,36 29/02/2016
507 623000 CLAUDIA PATRICIA SILVA RODRIGUES RAPOSEIRAS OFICIAL DO MP ATIVO BELO HORIZONTE - COMARCA; DIVISÃO DE EDUCAÇÃO PARA O CONSUMO 3.129,28 0,00 0,00 0,00 0,00 0,00 3.129,28 398,48 51,86 0,00 450,34 2.678,94 799,00 493,30 29/02/2016
508 418400 CLAUDIA REGINA MARTINS BONIFACIO OFICIAL DO MP ATIVO ITUIUTABA - COMARCA; ITUIUTABA-PJ-06PJ 4.274,44 548,01 0,00 0,00 0,00 0,00 4.822,45 663,09 214,41 0,00 877,50 3.944,95 799,00 0,00 29/02/2016
509 498300 CLAUDIA SOUTO FARIAS BRAUN OFICIAL DO MP ATIVO TEÓFILO OTONI - COMARCA; TEOFILO OTONI-PJ-SECRETARIA 4.241,01 254,46 0,00 0,00 0,00 0,00 4.495,47 683,94 160,03 0,00 843,97 3.651,50 799,00 1.722,20 29/02/2016
510 206500 CLAUDIA VALERIA FONSECA ANDRADE ANALISTA DO MP ATIVO BELO HORIZONTE - COMARCA; BH-23PJ INF-FISC MED SOC FEC 14.662,83 6.119,31 0,00 0,00 0,00 0,00 20.782,14 2.874,01 4.244,07 0,00 7.118,08 13.664,06 799,00 4.709,82 29/02/2016
511 277500 CLAUDIO ANTONIO BORGES ALVARES OFICIAL DO MP ATIVO BELO HORIZONTE - COMARCA; BH-02PJ FAMILIA-SECRETARIA 7.200,74 1.440,15 0,00 0,00 0,00 0,00 8.640,89 1.070,39 1.245,50 0,00 2.315,89 6.325,00 799,00 1.089,92 29/02/2016
512 444800 CLAUDIO ARESIO DO CARMO ANALISTA DO MP ATIVO SETE LAGOAS - COMARCA; SETE LAGOAS-PJ-01PJ 8.185,27 2.455,58 0,00 0,00 0,00 0,00 10.640,85 1.492,26 1.682,85 0,00 3.175,11 7.465,74 799,00 2.925,15 29/02/2016
513 541600 CLAUDIO DE OLIVEIRA MELO OFICIAL DO MP ATIVO PARACATU - COMARCA; PARACATU-PJ-01PJ 3.445,03 0,00 0,00 0,00 0,00 0,00 3.445,03 378,95 58,72 0,00 437,67 3.007,36 1.431,00 0,00 29/02/2016
514 545100 CLAUDIO HENRIQUE MACEDO DE SOUZA FRANSOZO ANALISTA DO MP ATIVO OURO PRETO - COMARCA; OURO PRETO-PJ-01PJ 5.307,28 0,00 0,00 0,00 0,00 0,00 5.307,28 583,80 429,60 0,00 1.013,40 4.293,88 799,00 0,00 29/02/2016
515 353500 CLAUDIO HENRIQUE PEDRO DA ROCHA OFICIAL DO MP ATIVO BELO HORIZONTE - COMARCA; CAO-CRIMINAL-SECRETARIA 5.314,27 664,15 0,00 0,00 2.435,22 0,00 8.413,64 1.024,54 1.119,12 0,00 2.143,66 6.269,98 799,00 2.008,32 29/02/2016
516 265800 CLAUDIO KUPIDLOWSKY FERNANDES ASSESSOR/OFICIAL ATIVO BELO HORIZONTE - COMARCA; EXTINTA - SECRETARIA ADMINISTRATIVA 0,00 1.860,89 9.304,45 0,00 0,00 0,00 11.165,34 950,50 1.200,58 0,00 2.151,08 9.014,26 799,00 0,00 29/02/2016
517 193600 CLAUDIO LEITE FONTES OFICIAL DO MP ATIVO ITUIUTABA - COMARCA; ITUIUTABA-PJ-02PJ 4.660,73 1.868,79 0,00 0,00 0,00 0,00 6.529,52 975,03 439,29 0,00 1.414,32 5.115,20 799,00 765,81 29/02/2016
518 329400 CLAUDIO MARCIO BERNARDES OFICIAL DO MP ATIVO ITAÚNA - COMARCA; ITAUNA-PJ-04PJ 5.172,68 2.789,47 0,00 0,00 0,00 0,00 7.962,15 1.407,56 972,76 0,00 2.380,32 5.581,83 799,00 3.032,84 29/02/2016
519 270200 CLAUDIO RABELO ALVES OFICIAL DO MP ATIVO FORMIGA - COMARCA; FORMIGA-PJ-SECRETARIA 6.003,61 1.535,46 0,00 0,00 0,00 0,00 7.539,07 1.384,91 716,65 0,00 2.101,56 5.437,51 799,00 3.377,36 29/02/2016
520 264700 CLAUDIO ROBERTO KFURI DE ARAUJO ANALISTA DO MP ATIVO BELO HORIZONTE - COMARCA; CENTRAL DE APOIO TECNICO-SETOR DE INFORMATICA 12.022,83 2.404,57 0,00 0,00 0,00 0,00 14.427,40 1.787,20 2.557,47 0,00 4.344,67 10.082,73 799,00 1.819,84 29/02/2016
521 188600 CLAUDIO SALES OFICIAL DO MP ATIVO NEPOMUCENO - COMARCA; NEPOMUCENO-PJ-SECRETARIA 9.920,24 6.944,16 0,00 0,00 0,00 0,00 16.864,40 2.365,12 3.258,20 0,00 5.623,32 11.241,08 1.431,00 4.636,74 29/02/2016
522 543300 CLAUDIO SILVA DE CARVALHO ANALISTA DO MP ATIVO CAMPO BELO - COMARCA; CAMPO BELO-PJ-04PJ 5.307,28 0,00 0,00 0,00 0,00 0,00 5.307,28 583,80 341,34 0,00 925,14 4.382,14 799,00 0,00 29/02/2016
523 160700 CLAUDIO VICENTE HESS ASSESSOR ATIVO BELO HORIZONTE - COMARCA; EXTINTA - SUPERINTENDENCIA ADMINISTRATIVA-SAD 0,00 4.368,40 10.921,00 0,00 0,00 0,00 15.289,40 570,88 3.241,55 0,00 3.812,43 11.476,97 799,00 0,00 29/02/2016
524 312900 CLAUDIO VIEIRA FIRPE ASSESSOR/OFICIAL ATIVO BELO HORIZONTE - COMARCA; DIRETORIA DE RELACOES PUBLICAS E CERIMONIAL 0,00 1.690,36 8.451,80 0,00 0,00 0,00 10.142,16 905,23 1.670,80 0,00 2.576,03 7.566,13 1.431,00 0,00 29/02/2016
525 634100 CLEA CRISTINA GUERRA DE FREITAS COSTA OFICIAL DO MP ATIVO BELO HORIZONTE - COMARCA; BH-18PJ VIOLENCIA DOMESTICA 3.030,62 0,00 0,00 0,00 0,00 0,00 3.030,62 333,37 45,27 0,00 378,64 2.651,98 1.431,00 0,00 29/02/2016
526 459200 CLEIA ZILLE PEREIRA ANALISTA DO MP ATIVO BELO HORIZONTE - COMARCA; ASSESS TECNICO-JUR JUNTO AS PROC. DE JUST 7.435,23 743,52 0,00 0,00 2.726,25 0,00 10.905,00 1.009,02 1.882,11 0,00 2.891,13 8.013,87 613,00 994,24 29/02/2016
527 481800 CLEIDE CARDOSO DA SILVA ANALISTA DO MP ATIVO MANHUAÇU - COMARCA; MANHUACU-PJ-04PJ 6.946,31 720,07 0,00 0,00 0,00 0,00 7.666,38 871,29 895,02 0,00 1.766,31 5.900,07 2.063,00 0,00 29/02/2016
528 347600 CLEIDIMAR DE OLIVEIRA SILVA OFICIAL DO MP ATIVO PATOS DE MINAS - COMARCA; COORD REG BACIAS PARACATU,URUCUIA E ABAETE 6.032,93 1.206,59 0,00 0,00 0,00 0,00 7.239,52 871,70 693,96 0,00 1.565,66 5.673,86 799,00 684,96 29/02/2016
529 396500 CLEIDISON BATISTA DE ANDRADE OFICIAL DO MP ATIVO RESPLENDOR - COMARCA; RESPLENDOR-PJ-UNPJ 4.024,29 452,17 0,00 0,00 0,00 0,00 4.476,46 547,12 149,29 0,00 696,41 3.780,05 2.063,00 0,00 29/02/2016
530 535100 CLEISON ALVES DA SILVA ANALISTA DO MP ATIVO BOA ESPERANÇA - COMARCA; BOA ESPERANCA-PJ-01PJ 5.842,66 0,00 0,00 0,00 0,00 0,00 5.842,66 642,69 456,36 0,00 1.099,05 4.743,61 1.431,00 0,00 29/02/2016
531 298100 CLEONICE AUGUSTA BARROS DE OLIVEIRA ANALISTA DO MP ATIVO JUIZ DE FORA - COMARCA; JUIZ DE FORA-PJ-08PJ 11.643,70 2.328,74 0,00 0,00 0,00 0,00 13.972,44 1.682,35 2.550,39 0,00 4.232,74 9.739,70 799,00 1.321,62 29/02/2016
532 60200 CLERES DE ALMEIDA AGENTE DO MP ATIVO BELO HORIZONTE - COMARCA; EXTINTA - DIVISAO DE TRANSPORTES 4.668,87 3.735,10 0,00 0,00 0,00 0,00 8.403,97 1.079,60 1.428,48 0,00 2.508,08 5.895,89 799,00 1.410,59 29/02/2016
533 114300 CLERES PEREIRA DA SILVA JUNIOR ASSESSOR ATIVO BELO HORIZONTE - COMARCA; GAECO - SECRETARIA 0,00 1.670,07 4.175,17 0,00 0,00 0,00 5.845,24 570,88 644,40 0,00 1.215,28 4.629,96 1.431,00 0,00 29/02/2016
534 264100 CLETO HENRIQUE ANDRADE SILVA ANALISTA DO MP ATIVO BELO HORIZONTE - COMARCA; DIRETORIA DE SISTEMAS DE INFORMACAO 10.159,84 2.404,57 0,00 0,00 0,00 0,00 12.564,41 1.787,20 1.993,01 0,00 3.780,21 8.784,20 799,00 1.971,49 29/02/2016
535 334400 CLEUBA DE OLIVEIRA BARCELOS GONCALVES OFICIAL DO MP ATIVO DIVINÓPOLIS - COMARCA; COORD REG SAUDE MACRORREGIAO SANITARIA OESTE 5.429,97 1.394,73 0,00 0,00 0,00 0,00 6.824,70 1.206,48 650,02 0,00 1.856,50 4.968,20 799,00 2.599,60 29/02/2016
536 347500 CLEUSA CORDEIRO DA MATA PIMENTA OFICIAL DO MP ATIVO CAMPO BELO - COMARCA; CAMPO BELO-PJ-02PJ 6.432,09 4.502,47 0,00 0,00 0,00 0,00 10.934,56 1.316,57 1.702,60 0,00 3.019,17 7.915,39 799,00 1.034,28 29/02/2016
537 510200 CLEZIO SALES SILVA OFICIAL DO MP ATIVO BRASÓPOLIS - COMARCA; BRASOPOLIS-PJ-UNPJ 3.916,07 234,96 0,00 0,00 0,00 0,00 4.151,03 624,01 199,36 0,00 823,37 3.327,66 799,00 1.648,57 29/02/2016
538 323000 CLOTILDE DE PADUA VIEIRA OFICIAL DO MP ATIVO BELO HORIZONTE - COMARCA; CGMP-DIVISAO DE APOIO ADMINISTRATIVO 3.892,62 995,56 0,00 0,00 0,00 0,00 4.888,18 837,70 315,87 0,00 1.153,57 3.734,61 799,00 1.642,11 29/02/2016
539 285200 CLOVIS ANDRE LUDTKE OFICIAL DO MP ATIVO BELO HORIZONTE - COMARCA; DIVISAO DE MANUTENCAO PREDIAL 6.973,67 1.394,73 0,00 0,00 0,00 0,00 8.368,40 920,52 1.178,81 0,00 2.099,33 6.269,07 799,00 0,00 29/02/2016
540 381100 CONCEICAO APARECIDA TEIXEIRA ARANTES ANALISTA DO MP ATIVO BELO HORIZONTE - COMARCA; BH-23PJ INFRACIONAL-ASS JURIDICA 9.304,45 930,45 0,00 0,00 3.411,63 0,00 13.646,53 1.538,52 2.521,69 0,00 4.060,21 9.586,32 799,00 3.751,68 29/02/2016
541 249900 CONSTANTINO CEZAR GOMES MOTA OFICIAL DO MP ATIVO MONTES CLAROS - COMARCA; COORD REG BACIA RIOS VERDE GRANDE E PARDO 5.307,28 1.061,46 0,00 0,00 0,00 0,00 6.368,74 766,83 637,25 0,00 1.404,08 4.964,66 799,00 602,49 29/02/2016
542 481000 CRISHMA ANALIA LOMBELLO ANALISTA DO MP ATIVO JUIZ DE FORA - COMARCA; JUIZ DE FORA-PJ-13PJ 7.435,23 743,52 0,00 0,00 0,00 0,00 8.178,75 899,66 1.080,25 0,00 1.979,91 6.198,84 799,00 0,00 29/02/2016
543 187500 CRISLEY PATRICK TOSTES OFICIAL DO MP ATIVO JUIZ DE FORA - COMARCA; JUIZ DE FORA-PJ-21PJ 10.243,18 3.072,95 0,00 0,00 0,00 0,00 13.316,13 1.464,77 2.389,76 0,00 3.854,53 9.461,60 799,00 0,00 29/02/2016
544 523900 CRISTHYANE BAZOLI COSTA GUEDES OFICIAL DO MP ATIVO BELO HORIZONTE - COMARCA; EXTINTA-04ª PJ JUÍZO REG PÚBLICOS-SECRETARIA 3.085,86 234,96 0,00 0,00 0,00 0,00 3.320,82 456,61 74,83 0,00 531,44 2.789,38 799,00 0,00 29/02/2016
545 187000 CRISTIAN DAYVSON EVANGELISTA OFICIAL DO MP ATIVO JUIZ DE FORA - COMARCA; JUIZ DE FORA-PJ-09PJ 7.577,36 2.976,07 0,00 0,00 0,00 0,00 10.553,43 1.808,62 1.590,58 0,00 3.399,20 7.154,23 799,00 3.545,73 29/02/2016
546 319800 CRISTIANA GONCALVES DOS SANTOS GUSMAO OFICIAL DO MP ATIVO SETE LAGOAS - COMARCA; SETE LAGOAS-PJ-10PJ 6.432,09 1.286,42 0,00 0,00 0,00 0,00 7.718,51 929,35 1.019,74 0,00 1.949,09 5.769,42 799,00 730,08 29/02/2016
547 520600 CRISTIANA JANAINA BARBOZA JUVENCIO DOS SANTOS ANALISTA DO MP ATIVO BELO HORIZONTE - COMARCA; EXTINTA - JUIZO DE FAMILIA-02 PJ-02 VARA 5.233,51 398,49 0,00 0,00 0,00 0,00 5.632,00 774,40 466,48 0,00 1.240,88 4.391,12 799,00 0,00 29/02/2016
548 195600 CRISTIANA SOARES HALABI OFICIAL DO MP ATIVO UBERABA - COMARCA; UBERABA-PJ-11PJ 9.920,24 2.976,07 0,00 0,00 0,00 0,00 12.896,31 1.800,48 2.287,01 0,00 4.087,49 8.808,82 799,00 3.471,72 29/02/2016
549 218900 CRISTIANE ALVES BELLES OFICIAL DO MP ATIVO JUIZ DE FORA - COMARCA; JUIZ DE FORA-PJ-10PJ 4.977,82 1.493,35 0,00 0,00 0,00 0,00 6.471,17 711,83 610,18 0,00 1.322,01 5.149,16 799,00 0,00 29/02/2016
550 263600 CRISTIANE CARVALHO COUTINHO OFICIAL DO MP ATIVO BELO HORIZONTE - COMARCA; BH-23PJ INFRACIONAL-SEC EXP 6.973,67 1.394,73 0,00 0,00 0,00 0,00 8.368,40 920,52 1.126,67 0,00 2.047,19 6.321,21 799,00 0,00 29/02/2016
551 541000 CRISTIANE COELHO ALVES OFICIAL DO MP ATIVO ITABIRA - COMARCA; ITABIRA-PJ-01PJ 3.445,03 0,00 0,00 0,00 0,00 0,00 3.445,03 378,95 76,67 0,00 455,62 2.989,41 799,00 0,00 29/02/2016
552 441700 CRISTIANE CORRADO DE ANDRADE ANALISTA DO MP ATIVO BELO HORIZONTE - COMARCA; DIRETORIA DE SISTEMAS DE INFORMACAO 6.867,60 872,70 0,00 0,00 0,00 0,00 7.740,30 1.155,87 968,83 0,00 2.124,70 5.615,60 799,00 908,16 29/02/2016
553 375100 CRISTIANE DAS DORES ERCIO DE LIMA OFICIAL DO MP ATIVO GOVERNADOR VALADARES - COMARCA; COOR REG INCLUSAO MOBILIZ VALE DO RIO DOCE 4.527,63 565,84 0,00 0,00 0,00 0,00 5.093,47 1.061,10 355,85 0,00 1.416,95 3.676,52 799,00 3.422,04 29/02/2016
554 631600 CRISTIANE DE FREITAS NEVES OFICIAL DO MP ATIVO IPATINGA - COMARCA; IPATINGA-PJ-SECRETARIA 2.523,16 0,00 0,00 0,00 0,00 0,00 2.523,16 365,92 20,62 0,00 386,54 2.136,62 799,00 197,32 29/02/2016
555 178800 CRISTIANE DE LIMA HOSKEN OFICIAL DO MP ATIVO BELO HORIZONTE - COMARCA; BH-14PJ DEFESA CONSUMIDOR-GAB 113PJ 10.243,18 3.072,95 0,00 0,00 0,00 0,00 13.316,13 1.603,31 2.233,35 0,00 3.836,66 9.479,47 799,00 1.259,46 29/02/2016
556 494000 CRISTIANE DE MELO MARQUEZ OLIVEIRA ANALISTA DO MP ATIVO UBERLÂNDIA - COMARCA; UBERLANDIA-PJ-06PJ 7.200,74 432,04 0,00 0,00 0,00 0,00 7.632,78 839,61 998,76 0,00 1.838,37 5.794,41 799,00 0,00 29/02/2016
557 266100 CRISTIANE DE OLIVEIRA CASTRO OFICIAL DO MP ATIVO BELO HORIZONTE - COMARCA; BH-14PJ DEFESA CONSUMIDOR-SECRETARIA 7.435,23 2.661,87 0,00 0,00 0,00 0,00 10.097,10 1.105,26 1.533,17 0,00 2.638,43 7.458,67 1.431,00 1.125,56 29/02/2016
558 329500 CRISTIANE DOS REIS SILVA OFICIAL DO MP ATIVO ARAXÁ - COMARCA; ARAXA-PJ-04PJ 5.842,66 1.168,53 0,00 0,00 0,00 0,00 7.011,19 844,19 742,35 0,00 1.586,54 5.424,65 1.431,00 663,30 29/02/2016
559 301600 CRISTIANE GODINHO PIRES ANALISTA DO MP ATIVO BETIM - COMARCA; BETIM-PJ-07PJ 11.276,58 2.255,32 0,00 0,00 0,00 0,00 13.531,90 1.629,32 2.442,57 0,00 4.071,89 9.460,01 799,00 1.280,10 29/02/2016
560 406100 CRISTIANE GONCALVES CHAVES ANALISTA DO MP ATIVO BELO HORIZONTE - COMARCA; BH-09PJ AUDITORIA MILITAR-SECRETARIA 8.662,00 1.802,22 0,00 0,00 0,00 0,00 10.464,22 1.301,96 1.681,20 0,00 2.983,16 7.481,06 799,00 1.022,70 29/02/2016
561 487600 CRISTIANE LOPES DE OLIVEIRA OFICIAL DO MP ATIVO CARMO DA MATA - COMARCA; CARMO DA MATA-PJ-SECRETARIA 4.241,01 254,46 0,00 0,00 0,00 0,00 4.495,47 494,50 221,43 0,00 715,93 3.779,54 799,00 0,00 29/02/2016
562 502500 CRISTIANE MACIEL DE OLIVEIRA GOMES ANALISTA DO MP ATIVO JUIZ DE FORA - COMARCA; JUIZ DE FORA-PJ-05PJ 6.966,07 432,04 0,00 0,00 0,00 0,00 7.398,11 1.230,85 934,23 0,00 2.165,08 5.233,03 799,00 3.556,68 29/02/2016
563 285500 CRISTIANE MAGALHAES LOURENCO ANALISTA DO MP ATIVO BELO HORIZONTE - COMARCA; CENTRAL DE APOIO TECNICO-SETOR CONTABIL 11.643,70 2.328,74 0,00 0,00 0,00 0,00 13.972,44 2.100,38 2.446,12 0,00 4.546,50 9.425,94 799,00 5.121,92 29/02/2016
564 536500 CRISTIANE MICHELE DE SOUZA ANALISTA DO MP ATIVO BARÃO DE COCAIS - COMARCA; BARAO DE COCAIS-PJ-UNPJ 5.842,66 0,00 0,00 0,00 0,00 0,00 5.842,66 642,69 508,49 0,00 1.151,18 4.691,48 1.999,80 0,00 29/02/2016
565 346600 CRISTIANE NOGUEIRA ANDRADE ANALISTA DO MP ATIVO BELO HORIZONTE - COMARCA; CENTRAL DE APOIO TECNICO-SETOR CONTABIL 10.243,18 1.024,32 0,00 0,00 0,00 0,00 11.267,50 1.239,43 1.888,36 0,00 3.127,79 8.139,71 2.063,00 0,00 29/02/2016
566 234000 CRISTIANE OLIVEIRA TOSTES OFICIAL DO MP ATIVO JUIZ DE FORA - COMARCA; JUIZ DE FORA-PJ-08PJ 9.011,08 1.802,22 0,00 0,00 0,00 0,00 10.813,30 1.301,96 1.777,20 0,00 3.079,16 7.734,14 799,00 1.022,70 29/02/2016
567 445800 CRISTIANE ORZIL COSTA OFICIAL DO MP ATIVO SANTA LUZIA - COMARCA; SANTA LUZIA-PJ-05PJ 4.379,06 437,91 0,00 0,00 0,00 0,00 4.816,97 611,05 328,47 0,00 939,52 3.877,45 799,00 738,06 29/02/2016
568 616100 CRISTIANE PAES RODRIGUES MARCICANO ANALISTA DO MP ATIVO CATAGUASES - COMARCA; CATAGUASES-PJ-05PJ 4.820,91 0,00 0,00 0,00 1.606,97 0,00 6.427,88 530,30 752,47 0,00 1.282,77 5.145,11 1.431,00 0,00 29/02/2016
569 612300 CRISTIANE RIBEIRO DOS REIS ARCANJO OFICIAL DO MP ATIVO BELO HORIZONTE - COMARCA; EXTINTA - DIRETORIA SERVIÇOS GERAIS E TRANS 3.445,03 0,00 0,00 0,00 0,00 0,00 3.445,03 378,95 76,67 0,00 455,62 2.989,41 799,00 0,00 29/02/2016
570 215000 CRISTIANE RODRIGUES DE CARVALHO ASSESSOR ATIVO BELO HORIZONTE - COMARCA; BH-14PJ DEFESA CONSUMIDOR-GAB 005PJ 0,00 1.252,55 4.175,17 0,00 0,00 0,00 5.427,72 570,88 686,00 0,00 1.256,88 4.170,84 799,00 0,00 29/02/2016
571 257700 CRISTIANE RODRIGUES PAES NUNES ANALISTA DO MP ATIVO BELO HORIZONTE - COMARCA; BH-22PJ PES COM DEF E IDOSOS-ORIENTACAO PSIC 8.849,21 2.328,74 0,00 0,00 0,00 0,00 11.177,95 1.536,97 1.729,77 0,00 3.266,74 7.911,21 799,00 0,00 29/02/2016
572 510800 CRISTIANE SANTOS FERNANDES ORNELES ANALISTA DO MP ATIVO BELO HORIZONTE - COMARCA; COORD ESTADUAL DAS PJS DE HAB. E URBANISMO 7.200,74 432,04 0,00 0,00 0,00 0,00 7.632,78 1.035,23 946,62 0,00 1.981,85 5.650,93 799,00 1.778,34 29/02/2016
573 535700 CRISTIANE SANTOS MIRANDA OFICIAL DO MP ATIVO BETIM - COMARCA; BETIM-PJ-02PJ 3.792,57 0,00 0,00 0,00 0,00 0,00 3.792,57 417,18 123,07 0,00 540,25 3.252,32 799,00 0,00 29/02/2016
574 536200 CRISTIANO DE OLIVEIRA ANALISTA DO MP ATIVO CONCEIÇÃO DO MATO DENTRO - COMARCA; CONCEICAO DO MATO DENTRO-PJ-UNPJ 6.432,09 0,00 0,00 0,00 2.144,03 0,00 8.576,12 837,21 1.294,50 0,00 2.131,71 6.444,41 799,00 1.178,86 29/02/2016
575 477400 CRISTIANO SOARES ELEUTERIO ANALISTA DO MP ATIVO BELO HORIZONTE - COMARCA; BH-17PJ PATRIMONIO PUBLICO 7.435,23 743,52 0,00 0,00 0,00 0,00 8.178,75 1.017,70 1.132,39 0,00 2.150,09 6.028,66 799,00 1.073,18 29/02/2016
576 449400 CRISTIANO TEIXEIRA RODRIGUES LANA ANALISTA DO MP ATIVO BELO HORIZONTE - COMARCA; ASSESS TECNICO-JUR JUNTO AS PROC. DE JUST 7.435,23 743,52 0,00 0,00 0,00 0,00 8.178,75 899,66 1.132,39 0,00 2.032,05 6.146,70 799,00 0,00 29/02/2016
577 239400 CRISTINA DE FATIMA CRUZ E SILVA OFICIAL DO MP ATIVO MONTE SANTO DE MINAS - COMARCA; MONTE SANTO DE MINAS-PJ-SECRETARIA 7.677,29 1.535,46 0,00 0,00 3.070,92 0,00 12.283,67 1.109,25 2.229,96 0,00 3.339,21 8.944,46 4.484,10 1.209,21 29/02/2016
578 544000 CRISTINA DE OLIVEIRA TERRA ANALISTA DO MP ATIVO MATOZINHOS - COMARCA; MATOZINHOS-PJ-02PJ 5.842,66 0,00 0,00 0,00 0,00 0,00 5.842,66 642,69 560,63 0,00 1.203,32 4.639,34 799,00 0,00 29/02/2016
579 356800 CRISTINA DE PINHO BARROSO OFICIAL DO MP ATIVO SABINÓPOLIS - COMARCA; SABINOPOLIS-PJ-UNPJ 4.778,71 995,56 0,00 0,00 0,00 0,00 5.774,27 657,07 433,60 0,00 1.090,67 4.683,60 1.979,16 0,00 29/02/2016
580 449100 CRISTINA KISTEMANN CHIODI ASSESSOR ATIVO BELO HORIZONTE - COMARCA; COORD-GERAL DAS PJS POR BACIA HIDRO. DE MG 0,00 0,00 7.443,56 1.550,74 2.584,57 0,00 11.578,87 710,45 2.605,00 0,00 3.315,45 8.263,42 8.552,71 852,90 29/02/2016
581 348201 CRISTINA MARIA DA SILVA ANALISTA DO MP ATIVO PATOS DE MINAS - COMARCA; PATOS DE MINAS-PJ-02PJ 7.200,74 720,07 0,00 0,00 0,00 0,00 7.920,81 871,29 1.069,26 0,00 1.940,55 5.980,26 799,00 0,00 29/02/2016
582 434900 CRISTINA MELO DE MADUREIRA ANALISTA DO MP ATIVO BELO HORIZONTE - COMARCA; CAO-CRIMINAL-SECRETARIA 8.727,00 872,70 0,00 0,00 0,00 0,00 9.599,70 1.155,87 1.480,17 0,00 2.636,04 6.963,66 799,00 908,16 29/02/2016
583 117100 CRISTINA PEDROSA GARABINI COORDENADOR/ANALISTA ATIVO BELO HORIZONTE - COMARCA; DIRET DE INFORMACAO E CONHECIMENTO-DINC/CEAF 18.576,08 15.624,30 0,00 0,00 0,00 0,00 34.200,38 3.351,82 6.484,17 3.729,27 13.565,26 20.635,12 799,00 0,00 29/02/2016
584 307700 CRISTINA TEIXEIRA MARQUES OFICIAL DO MP ATIVO BELO HORIZONTE - COMARCA; CENTRAL DE APOIO TECNICO-SECRETARIA 4.585,03 1.206,59 0,00 0,00 0,00 0,00 5.791,62 796,35 504,34 0,00 1.300,69 4.490,93 799,00 0,00 29/02/2016
585 265300 CRISTOVAO SANCHES DE MEDEIROS ANALISTA DO MP ATIVO BELO HORIZONTE - COMARCA; DIRETORIA DE CONTABILIDADE 10.576,63 2.115,33 0,00 0,00 4.230,65 0,00 16.922,61 1.396,12 3.348,29 0,00 4.744,41 12.178,20 799,00 0,00 29/02/2016
586 349800 CROZEIR LUIZ DA SILVA OFICIAL DO MP ATIVO UNAÍ - COMARCA; UNAI-PJ-SECRETARIA 4.747,54 603,29 0,00 0,00 0,00 0,00 5.350,83 799,05 360,90 0,00 1.159,95 4.190,88 799,00 627,90 29/02/2016
587 490500 CYNTHIA CRISTINA DE SOUZA OLIVEIRA VALENTE ANALISTA DO MP ATIVO BELO HORIZONTE - COMARCA; BH-09PJ AUDITORIA MILITAR 5.674,18 432,04 0,00 0,00 0,00 0,00 6.106,22 839,61 578,96 0,00 1.418,57 4.687,65 799,00 0,00 29/02/2016
588 389800 CYNTHIA GARIGLIO DOS SANTOS OFICIAL DO MP ATIVO PERDIZES - COMARCA; PERDIZES-PJ-SECRETARIA 3.858,50 452,17 0,00 0,00 0,00 0,00 4.310,67 547,12 152,86 0,00 699,98 3.610,69 1.431,00 0,00 29/02/2016
589 335101 CYNTHIA GONTIJO D ASSUNCAO ANALISTA DO MP ATIVO BELO HORIZONTE - COMARCA; PROC. JUSTICA DIR. DIFUSOS E COLETIVOS-SEC 5.908,67 743,52 0,00 0,00 0,00 0,00 6.652,19 954,34 712,59 0,00 1.666,93 4.985,26 1.683,80 497,12 29/02/2016
590 154000 CYNTHIA LOPES DOS SANTOS LAGES ASSESSOR ATIVO BELO HORIZONTE - COMARCA; PROCURADOR-GERAL DE JUSTICA- GABINETE 0,00 5.460,50 10.921,00 0,00 0,00 0,00 16.381,50 1.801,97 3.140,01 0,00 4.941,98 11.439,52 799,00 0,00 29/02/2016
591 269700 CYNTIA ROCHA CAVALCANTI OFICIAL DO MP ATIVO UBERLÂNDIA - COMARCA; UBERLANDIA-PJ-06PJ 7.435,23 1.487,05 0,00 0,00 0,00 0,00 8.922,28 1.105,26 1.314,37 0,00 2.419,63 6.502,65 799,00 1.125,56 29/02/2016
592 278000 DAIRTON LOPES MARTINS FILHO COORDENADOR/ANALISTA ATIVO BELO HORIZONTE - COMARCA; DIRETORIA DE SISTEMAS DE INFORMACAO 0,00 2.184,20 10.921,00 0,00 0,00 0,00 13.105,20 1.080,46 2.437,44 0,00 3.517,90 9.587,30 799,00 0,00 29/02/2016
593 392700 DALIANA CHAVES SILVA OFICIAL DO MP ATIVO ITAÚNA - COMARCA; ITAUNA-PJ-SECRETARIA 4.312,45 548,01 0,00 0,00 0,00 0,00 4.860,46 725,81 308,28 0,00 1.034,09 3.826,37 799,00 570,15 29/02/2016
594 558101 DALLEY TASSIA SILVA ANALISTA DO MP ATIVO MORADA NOVA DE MINAS - COMARCA; MORADA NOVA DE MINAS-PJ-UNPJ 5.307,28 0,00 0,00 0,00 0,00 0,00 5.307,28 583,80 341,34 0,00 925,14 4.382,14 799,00 0,00 29/02/2016
595 476700 DALTON DAUD ANALISTA DO MP ATIVO ARAGUARI - COMARCA; ARAGUARI-PJ-05PJ 6.671,95 743,52 0,00 0,00 0,00 0,00 7.415,47 1.017,70 818,21 0,00 1.835,91 5.579,56 799,00 1.073,18 29/02/2016
596 548700 DALVA DE SOUZA ROCHA ALMEIDA OFICIAL DO MP ATIVO CORONEL FABRICIANO - COMARCA; CORONEL FABRICIANO-PJ-02PJ 3.034,06 0,00 0,00 0,00 0,00 0,00 3.034,06 417,18 25,03 0,00 442,21 2.591,85 799,00 0,00 29/02/2016
597 426900 DANIEL ALVES DA SILVA OFICIAL DO MP ATIVO BELO HORIZONTE - COMARCA; EXTINTA - PROTOCOLO DA PGJ 4.379,06 437,91 0,00 0,00 0,00 0,00 4.816,97 529,87 243,15 0,00 773,02 4.043,95 799,00 0,00 29/02/2016
598 122000 DANIEL ANTONIO VIEIRA OFICIAL DO MP ATIVO ENTRE-RIOS DE MINAS - COMARCA; ENTRE RIOS DE MINAS-PJ-SECRETARIA 8.185,27 5.729,69 0,00 0,00 0,00 0,00 13.914,96 1.530,65 2.275,64 0,00 3.806,29 10.108,67 799,00 0,00 29/02/2016
599 272401 DANIEL AUGUSTO DOS REIS ANALISTA DO MP ATIVO BELO HORIZONTE - COMARCA; BH-22PJ PES COM DEF E IDOSOS-ASS JURIDICA 9.011,08 901,11 0,00 0,00 0,00 0,00 9.912,19 1.193,46 1.556,65 0,00 2.750,11 7.162,08 799,00 937,47 29/02/2016
600 536301 DANIEL BATISTA MARIANO ANALISTA DO MP ATIVO BETIM - COMARCA; BETIM-PJ-06PJ 4.279,30 0,00 0,00 0,00 0,00 0,00 4.279,30 620,62 199,53 0,00 820,15 3.459,15 799,00 390,51 29/02/2016
601 411000 DANIEL FERREIRA DA SILVA ANALISTA DO MP ATIVO GOVERNADOR VALADARES - COMARCA; GOVERNADOR VALADARES-PJ-15PJ 6.423,37 1.690,36 0,00 0,00 0,00 0,00 8.113,73 1.115,64 950,84 0,00 2.066,48 6.047,25 5.493,81 372,42 29/02/2016
602 309000 DANIEL GOMES DOS SANTOS ANALISTA DO MP ATIVO POÇOS DE CALDAS - COMARCA; POCOS DE CALDAS-PJ-03PJ 9.920,24 1.984,05 0,00 0,00 0,00 0,00 11.904,29 1.433,35 2.044,22 0,00 3.477,57 8.426,72 1.431,00 1.126,20 29/02/2016
603 554500 DANIEL GOMES PEREIRA OFICIAL DO MP ATIVO NANUQUE - COMARCA; NANUQUE-PJ-02PJ 2.756,02 0,00 0,00 0,00 0,00 0,00 2.756,02 378,95 35,48 0,00 414,43 2.341,59 799,00 0,00 29/02/2016
604 453000 DANIEL GONCALVES PEREIRA ANALISTA DO MP ATIVO UNAÍ - COMARCA; UNAI-PJ-04PJ 7.435,23 743,52 0,00 0,00 0,00 0,00 8.178,75 899,66 1.132,39 0,00 2.032,05 6.146,70 799,00 0,00 29/02/2016
605 495500 DANIEL GUIMARAES CABRAL OFICIAL DO MP ATIVO BELO HORIZONTE - COMARCA; BH-17PJ PATRIMONIO PUBLICO-SECRETARIA 3.916,07 234,96 0,00 0,00 0,00 0,00 4.151,03 456,61 199,36 0,00 655,97 3.495,06 799,00 0,00 29/02/2016
606 442900 DANIEL GUIMARAES GONCALVES ANALISTA DO MP ATIVO UBERLÂNDIA - COMARCA; UBERLANDIA-PJ-03PJ 8.451,80 845,18 0,00 0,00 0,00 0,00 9.296,98 1.022,67 1.406,08 0,00 2.428,75 6.868,23 799,00 0,00 29/02/2016
607 491200 DANIEL HENRIQUE SOUTO COSTA ANALISTA DO MP ATIVO CORAÇÃO DE JESUS - COMARCA; CORACAO DE JESUS-PJ-UNPJ 7.200,74 432,04 0,00 0,00 2.544,26 0,00 10.177,04 839,61 1.698,43 0,00 2.538,04 7.639,00 799,00 0,00 29/02/2016
608 464600 DANIEL PIACENTINI STIVANIN ANALISTA DO MP ATIVO ANDRADAS - COMARCA; ANDRADAS-PJ-02PJ 7.435,23 446,11 0,00 0,00 0,00 0,00 7.881,34 948,97 1.059,60 0,00 2.008,57 5.872,77 799,00 745,68 29/02/2016
609 417000 DANIEL QUEIROZ FERREIRA ANALISTA DO MP ATIVO SÃO SEBASTIÃO DO PARAÍSO - COMARCA; SAO SEBASTIAO DO PARAISO-PJ-05PJ 8.185,27 818,53 0,00 0,00 0,00 0,00 9.003,80 990,42 1.334,32 0,00 2.324,74 6.679,06 799,00 0,00 29/02/2016
610 396700 DANIEL SILVA CARNEVALLI DIRETOR/ANALISTA ATIVO BELO HORIZONTE - COMARCA; SUPERINTENDENCIA DE TECNOLOGIA DA INFORMACAO 0,00 1.415,52 14.155,19 0,00 0,00 0,00 15.570,71 1.090,34 3.112,74 0,00 4.203,08 11.367,63 799,00 0,00 29/02/2016
611 489300 DANIEL TABOZA ROCHA ANALISTA DO MP ATIVO IPATINGA - COMARCA; IPATINGA-PJ-08PJ 7.200,74 432,04 0,00 0,00 0,00 0,00 7.632,78 839,61 998,76 0,00 1.838,37 5.794,41 799,00 0,00 29/02/2016
612 414100 DANIEL TARDELI VALADAO ANALISTA DO MP ATIVO TRÊS CORACOES - COMARCA; TRES CORACOES-PJ-02PJ 6.592,40 845,18 0,00 0,00 0,00 0,00 7.437,58 1.022,67 894,74 0,00 1.917,41 5.520,17 1.915,53 0,00 29/02/2016
613 446601 DANIEL VIEIRA BUENO ANALISTA DO MP ATIVO SÃO DOMINGOS DO PRATA - COMARCA; SAO DOMINGOS DO PRATA-PJ-UNPJ 5.139,92 0,00 0,00 0,00 0,00 0,00 5.139,92 565,39 393,14 0,00 958,53 4.181,39 799,00 0,00 29/02/2016
614 253200 DANIELA BATISTA LIMA BARBOSA ASSESSOR ATIVO BELO HORIZONTE - COMARCA; CENTRAL DE APOIO TECN-SETOR DE MEIO AMBIENTE 0,00 835,03 4.175,17 0,00 0,00 0,00 5.010,20 570,88 571,18 0,00 1.142,06 3.868,14 799,00 0,00 29/02/2016
615 505800 DANIELA BORGES DE MATTOS RESENDE ANALISTA DO MP ATIVO JUIZ DE FORA - COMARCA; JUIZ DE FORA-PJ-20PJ 7.200,74 432,04 0,00 0,00 0,00 0,00 7.632,78 1.165,64 998,76 0,00 2.164,40 5.468,38 2.020,87 2.963,90 29/02/2016
616 478000 DANIELA CARVALHO SOARES ANALISTA DO MP ATIVO SÃO JOÃO DEL REI - COMARCA; SAO JOAO DEL REI-PJ-01PJ 7.435,23 743,52 0,00 0,00 0,00 0,00 8.178,75 954,34 1.132,39 0,00 2.086,73 6.092,02 799,00 497,12 29/02/2016
617 275900 DANIELA CHAGAS SODRE ANALISTA DO MP ATIVO BELO HORIZONTE - COMARCA; CENTRAL DE APOIO TECNICO-SETOR CONTABIL 11.643,70 2.328,74 0,00 0,00 0,00 0,00 13.972,44 2.100,38 2.498,26 0,00 4.598,64 9.373,80 1.431,00 5.121,92 29/02/2016
618 234301 DANIELA CRUZ SOARES ANALISTA DO MP ATIVO BELO HORIZONTE - COMARCA; LAB TECNOLOGIA CONTRA LAVAGEM DINHEIRO 9.228,34 2.404,57 0,00 0,00 0,00 0,00 11.632,91 1.787,20 1.893,26 0,00 3.680,46 7.952,45 799,00 1.819,84 29/02/2016
619 638000 DANIELA DE ALMEIDA BATISTA ANALISTA DO MP ATIVO ANDRELÂNDIA - COMARCA; ANDRELANDIA-PJ-UNPJ 5.139,92 0,00 0,00 0,00 0,00 0,00 5.139,92 565,39 393,14 0,00 958,53 4.181,39 799,00 0,00 29/02/2016
620 301000 DANIELA DE ALMEIDA E OLIVEIRA ANALISTA DO MP ATIVO BELO HORIZONTE - COMARCA; DIRETORIA DE SISTEMAS DE INFORMACAO 9.105,31 2.328,74 0,00 0,00 4.657,48 0,00 16.091,53 2.100,38 3.133,14 0,00 5.233,52 10.858,01 854,93 5.121,92 29/02/2016
621 296000 DANIELA DE AZEVEDO SILVA ANALISTA DO MP ATIVO ITAJUBA - COMARCA; ITAJUBA-PJ-03PJ 11.276,58 3.382,97 0,00 0,00 4.886,52 0,00 19.546,07 2.354,01 4.062,36 0,00 6.416,37 13.129,70 799,00 6.740,60 29/02/2016
622 453500 DANIELA DE CASTRO SOUSA BARBOSA ANALISTA DO MP ATIVO BELO HORIZONTE - COMARCA; BH-08PJ JUIZADO ESPECIAL-SECRETARIA 5.799,48 743,52 0,00 0,00 0,00 0,00 6.543,00 899,66 682,56 0,00 1.582,22 4.960,78 799,00 0,00 29/02/2016
623 506000 DANIELA DE OLIVEIRA CAVALIERI ANALISTA DO MP ATIVO BELO HORIZONTE - COMARCA; BH-14PJ DEFESA CONSUMIDOR-GAB 005PJ 6.032,93 361,98 0,00 0,00 2.131,64 0,00 8.526,55 1.025,77 1.282,00 0,00 2.307,77 6.218,78 799,00 2.930,25 29/02/2016
624 546200 DANIELA DE VILHENA LEMES GONCALVES OFICIAL DO MP ATIVO TRÊS CORACOES - COMARCA; TRES CORACOES-PJ-05PJ 3.445,03 0,00 0,00 0,00 1.148,34 0,00 4.593,37 378,95 226,80 0,00 605,75 3.987,62 799,00 0,00 29/02/2016
625 356400 DANIELA LEAL FERRAZ ANALISTA DO MP ATIVO MONTES CLAROS - COMARCA; COORD REG PJ DEF EDUC DIR CRIANCA ADOL NORTE 9.589,83 992,02 0,00 0,00 0,00 0,00 10.581,85 1.530,38 1.710,55 0,00 3.240,93 7.340,92 799,00 3.000,24 29/02/2016
626 501000 DANIELA LOURENCO SANTOS DA SILVA GUIMARAES ANALISTA DO MP ATIVO BELO HORIZONTE - COMARCA; BH-12PJ JUIZO CRIMINAL-GAB 086PJ 7.200,74 432,04 0,00 0,00 0,00 0,00 7.632,78 1.165,64 946,62 0,00 2.112,26 5.520,52 1.431,00 2.963,90 29/02/2016
627 195801 DANIELA MARIA DE OLIVEIRA QUEIROZ ANALISTA DO MP ATIVO ARAGUARI - COMARCA; ARAGUARI-PJ-06PJ 8.727,00 2.618,10 0,00 0,00 0,00 0,00 11.345,10 1.366,02 1.907,35 0,00 3.273,37 8.071,73 799,00 1.073,28 29/02/2016
628 511400 DANIELA MARIA LARA DE OLIVEIRA ANALISTA DO MP ATIVO BOA ESPERANÇA - COMARCA; BOA ESPERANCA-PJ-02PJ 5.362,53 398,49 0,00 0,00 0,00 0,00 5.761,02 987,28 449,82 0,00 1.437,10 4.323,92 799,00 1.935,27 29/02/2016
629 252101 DANIELA PAULA ALVES PENA ANALISTA DO MP ATIVO CONTAGEM - COMARCA; CONTAGEM-PJ-APO TECNICO 9.011,08 2.703,32 0,00 0,00 0,00 0,00 11.714,40 1.288,58 1.997,74 0,00 3.286,32 8.428,08 799,00 0,00 29/02/2016
630 604700 DANIELA PEIXOTO NOGUEIRA OFICIAL DO MP ATIVO BELO HORIZONTE - COMARCA; DIRET DE FORMACAO, APERFEIC. E POS-GRADUACAO 3.792,57 0,00 0,00 0,00 0,00 0,00 3.792,57 531,87 151,51 0,00 683,38 3.109,19 799,00 1.042,62 29/02/2016
631 429600 DANIELA PIMENTA NUNES MACHADO ANALISTA DO MP ATIVO BELO HORIZONTE - COMARCA; BH-05PJ JUÍZO DE SUCESSÕES 8.727,00 872,70 0,00 0,00 0,00 0,00 9.599,70 1.155,87 1.480,17 0,00 2.636,04 6.963,66 799,00 908,16 29/02/2016
632 424300 DANIELA PORTO PINTO OFICIAL DO MP ATIVO BELO HORIZONTE - COMARCA; EXTINTA-DEFESA DA SAUDE-19 PJ-GABINETE 4.668,87 466,89 0,00 0,00 0,00 0,00 5.135,76 580,87 392,31 0,00 973,18 4.162,58 799,00 144,84 29/02/2016
633 462000 DANIELA SOUSA GOMES DO AMARAL ANALISTA DO MP ATIVO BETIM - COMARCA; BETIM-PJ-04PJ 7.435,23 743,52 0,00 0,00 0,00 0,00 8.178,75 1.076,73 1.132,39 0,00 2.209,12 5.969,63 799,00 1.609,77 29/02/2016
634 427000 DANIELA TEIXEIRA DINIZ ANDRADE ANALISTA DO MP ATIVO BELO HORIZONTE - COMARCA; DIRETORIA DE PROJETOS DE EDIFICACOES 6.889,98 743,52 0,00 0,00 0,00 0,00 7.633,50 899,66 930,31 0,00 1.829,97 5.803,53 799,00 0,00 29/02/2016
635 337200 DANIELA TOLEDO SENIUK ANALISTA DO MP ATIVO BELO HORIZONTE - COMARCA; GABINETE DE PROCURADOR DE JUSTIÇA - SALA 412 9.011,08 1.802,22 0,00 0,00 0,00 0,00 10.813,30 1.189,46 1.725,06 0,00 2.914,52 7.898,78 799,00 0,00 29/02/2016
636 605600 DANIELE ALZIRA SILVA CABRAL MOREIRA OFICIAL DO MP ATIVO BELO HORIZONTE - COMARCA; BH-10PJ EXECUÇÃO PENAL 3.792,57 0,00 0,00 0,00 0,00 0,00 3.792,57 493,64 151,51 0,00 645,15 3.147,42 799,00 695,08 29/02/2016
637 195500 DANIELE CHAVES FONSECA OFICIAL DO MP ATIVO BELO HORIZONTE - COMARCA; ASSESSORIA ESPECIAL DO PGJ 9.920,24 2.976,07 0,00 0,00 0,00 0,00 12.896,31 1.418,59 2.287,01 0,00 3.705,60 9.190,71 799,00 0,00 29/02/2016
638 323400 DANIELE MEGALE SANTINI OFICIAL DO MP ATIVO BELO HORIZONTE - COMARCA; ASSESS TECNICO-JUR JUNTO AS PROC. DE JUST 6.857,79 1.371,56 0,00 0,00 2.743,12 0,00 10.972,47 990,88 1.846,99 0,00 2.837,87 8.134,60 799,00 778,62 29/02/2016
639 357900 DANIELE REJANE PINTO VERSIEUX OFICIAL DO MP ATIVO PEDRO LEOPOLDO - COMARCA; PEDRO LEOPOLDO-PJ-03PJ 4.902,05 622,93 0,00 0,00 0,00 0,00 5.524,98 825,02 442,73 0,00 1.267,75 4.257,23 799,00 648,00 29/02/2016
640 389500 DANIELE VASCONCELOS AMORIM OFICIAL DO MP ATIVO SÃO SEBASTIÃO DO PARAÍSO - COMARCA; SAO SEBASTIAO DO PARAISO-PJ-04PJ 6.032,93 603,29 0,00 0,00 0,00 0,00 6.636,22 930,68 754,86 0,00 1.685,54 4.950,68 799,00 1.824,51 29/02/2016
641 629700 DANIELLA BASTOS MARTINS BICALHO OFICIAL DO MP ATIVO GOVERNADOR VALADARES - COMARCA; GOVERNADOR VALADARES-PJ-SECRETARIA 3.129,28 0,00 0,00 0,00 0,00 0,00 3.129,28 376,78 66,08 0,00 442,86 2.686,42 799,00 328,87 29/02/2016
642 265000 DANIELLE CASTANHEIRA SCALABRINI OFICIAL DO MP ATIVO BELO HORIZONTE - COMARCA; JUNTA RECURSAL DO PROCON ESTADUAL 6.432,09 1.286,42 0,00 0,00 0,00 0,00 7.718,51 849,04 863,33 0,00 1.712,37 6.006,14 799,00 0,00 29/02/2016
643 490100 DANIELLE DE AVILA SILVA LOPES ANALISTA DO MP ATIVO BELO HORIZONTE - COMARCA; PROC. JUSTICA DIR. DIFUSOS E COLETIVOS-SEC 7.200,74 1.440,15 0,00 0,00 0,00 0,00 8.640,89 950,50 1.245,50 0,00 2.196,00 6.444,89 799,00 0,00 29/02/2016
644 549600 DANIELLE GOMES LOPES RODRIGUES OFICIAL DO MP ATIVO VESPASIANO - COMARCA; VESPASIANO-PJ-02PJ 3.792,57 0,00 0,00 0,00 0,00 0,00 3.792,57 417,18 151,51 0,00 568,69 3.223,88 1.431,00 0,00 29/02/2016
645 613000 DANIELLE SILVA OLIVEIRA FRANKLIN OFICIAL DO MP ATIVO BELO HORIZONTE - COMARCA; DIRETORIA DE ADMINISTRACAO FINANCEIRA 3.445,03 0,00 0,00 0,00 0,00 0,00 3.445,03 378,95 105,11 0,00 484,06 2.960,97 799,00 0,00 29/02/2016
646 380800 DANILLO RIBEIRO ANTUNES ANALISTA DO MP ATIVO MONTES CLAROS - COMARCA; MONTES CLAROS-PJ-SECRETARIA 7.091,14 901,11 0,00 0,00 0,00 0,00 7.992,25 1.193,46 924,39 0,00 2.117,85 5.874,40 799,00 937,47 29/02/2016
647 453700 DANILO BOTELHO DE CARVALHO COORDENADOR/ANALISTA ATIVO BELO HORIZONTE - COMARCA; DIRETORIA DE ADMINISTRACAO FINANCEIRA 0,00 922,22 9.222,21 0,00 0,00 0,00 10.144,43 899,66 1.672,95 0,00 2.572,61 7.571,82 1.431,00 0,00 29/02/2016
648 391200 DANILO D'AVILA MENDES ANALISTA DO MP ATIVO SÃO ROMÃO - COMARCA; SAO ROMAO-PJ-UNPJ 9.011,08 901,11 0,00 0,00 0,00 0,00 9.912,19 1.193,46 1.556,65 0,00 2.750,11 7.162,08 799,00 937,47 29/02/2016
649 494900 DANILO GAVIAO AVELINO DE MELLO ANALISTA DO MP ATIVO POUSO ALEGRE - COMARCA; POUSO ALEGRE-PJ-08PJ 7.200,74 432,04 0,00 0,00 0,00 0,00 7.632,78 839,61 998,76 0,00 1.838,37 5.794,41 1.683,80 0,00 29/02/2016
650 604300 DANILO NASCIMENTO SALGADO ANALISTA DO MP ATIVO JANAÚBA - COMARCA; JANAUBA-PJ-01PJ 5.842,66 0,00 0,00 0,00 0,00 0,00 5.842,66 819,36 560,63 0,00 1.379,99 4.462,67 799,00 1.606,14 29/02/2016
651 600700 DANILO OLIVEIRA CARILLI OFICIAL DO MP ATIVO ARAGUARI - COMARCA; ARAGUARI-PJ-07PJ 3.445,03 0,00 0,00 0,00 0,00 0,00 3.445,03 552,61 105,11 0,00 657,72 2.787,31 799,00 1.578,75 29/02/2016
652 550800 DANTE MENDES BIANCHETTI FILHO ANALISTA DO MP ATIVO BARBACENA - COMARCA; BARBACENA-PJ-SECRETARIA 4.781,20 0,00 0,00 0,00 0,00 0,00 4.781,20 937,15 295,03 0,00 1.232,18 3.549,02 799,00 2.676,90 29/02/2016
653 298300 DANUZA MONICA DE SOUZA DINIZ ANALISTA DO MP ATIVO DIVINÓPOLIS - COMARCA; DIVINOPOLIS-PJ-02PJ 8.727,00 1.745,40 0,00 0,00 3.490,80 0,00 13.963,20 1.151,96 2.601,59 0,00 3.753,55 10.209,65 799,00 0,00 29/02/2016
654 398700 DARCY LUIZ MILEO GREGATTI OFICIAL DO MP ATIVO LAMBARI - COMARCA; LAMBARI-PJ-SECRETARIA 5.842,66 584,27 0,00 0,00 2.142,31 0,00 8.569,24 773,84 1.292,77 0,00 2.066,61 6.502,63 799,00 608,04 29/02/2016
655 406200 DARIANA AUGUSTA DE TOLEDO PATROCINIO ASSESSOR/OFICIAL ATIVO BELO HORIZONTE - COMARCA; EXTINTA - DIRETORIA DE CONTRATOS E CONVÊNIOS 0,00 845,18 8.451,80 0,00 3.098,99 0,00 12.395,97 729,98 2.338,79 0,00 3.068,77 9.327,20 4.517,79 340,89 29/02/2016
656 305000 DARLI LEITE DE OLIVEIRA OFICIAL DO MP ATIVO ARAÇUAÍ - COMARCA; ARACUAI-PJ-01PJ 3.783,14 995,56 0,00 0,00 0,00 0,00 4.778,70 657,07 178,13 0,00 835,20 3.943,50 1.431,00 0,00 29/02/2016
657 122200 DAVID RIBEIRO DOS SANTOS ANALISTA DO MP ATIVO BORDA DA MATA - COMARCA; BORDA DA MATA-PJ-UNPJ 15.298,25 12.238,61 0,00 0,00 0,00 0,00 27.536,86 4.038,73 5.870,29 0,00 9.909,02 17.627,84 1.081,81 9.178,92 29/02/2016
658 389400 DAWSON CANEDO MARQUES OFICIAL DO MP ATIVO VARGINHA - COMARCA; VARGINHA-PJ-06PJ 6.032,93 603,29 0,00 0,00 0,00 0,00 6.636,22 729,98 296,77 0,00 1.026,75 5.609,47 1.431,00 0,00 29/02/2016
659 537200 DAYANE TEIXEIRA DE OLIVEIRA CASELLI ANALISTA DO MP ATIVO BONFINÓPOLIS DE MINAS - COMARCA; BONFINOPOLIS DE MINAS-PJ-UNPJ 5.842,66 0,00 0,00 0,00 0,00 0,00 5.842,66 642,69 560,63 0,00 1.203,32 4.639,34 799,00 0,00 29/02/2016
660 256100 DAYSE ROSALY PEREIRA BATISTA OFICIAL DO MP ATIVO BELO HORIZONTE - COMARCA; BH-08PJ JUIZADO ESPECIAL-SECRETARIA 5.752,84 1.440,15 0,00 0,00 2.880,30 0,00 10.073,29 1.573,62 1.639,41 0,00 3.213,03 6.860,26 799,00 5.664,74 29/02/2016
661 311901 DEBORA APARECIDA DA SILVA ASSESSOR ATIVO BELO HORIZONTE - COMARCA; BH-23PJ CIVEL-SETOR ATEND PUB 0,00 0,00 2.500,62 0,00 0,00 0,00 2.500,62 362,96 63,23 0,00 426,19 2.074,43 799,00 0,00 29/02/2016
662 194301 DEBORA APARECIDA DOS SANTOS ANALISTA DO MP ATIVO UBERLÂNDIA - COMARCA; UBERLANDIA-PJ-SEC FAMILIA 11.643,70 3.493,11 0,00 0,00 0,00 0,00 15.136,81 1.822,55 2.783,24 0,00 4.605,79 10.531,02 799,00 1.431,78 29/02/2016
663 518800 DEBORA CARVALHO FIORATTO OFICIAL DO MP ATIVO BELO HORIZONTE - COMARCA; EXTINTA - DIVISÃO DE APOIO À LICITAÇÃO 4.668,87 280,13 0,00 0,00 0,00 0,00 4.949,00 544,39 354,91 0,00 899,30 4.049,70 1.431,00 0,00 29/02/2016
664 444900 DEBORA CLAUDIA PEREIRA ALVES ANALISTA DO MP ATIVO BELO HORIZONTE - COMARCA; BH-08PJ JUIZADO ESPECIAL-SECRETARIA 6.549,52 818,53 0,00 0,00 0,00 0,00 7.368,05 1.262,68 884,49 0,00 2.147,17 5.220,88 1.431,00 2.475,12 29/02/2016
665 617700 DEBORA COMANDUCI SCHREIDER ANALISTA DO MP ATIVO BICAS - COMARCA; BICAS-PJ-UNPJ 4.820,91 0,00 0,00 0,00 1.606,97 0,00 6.427,88 530,30 700,34 0,00 1.230,64 5.197,24 1.431,00 0,00 29/02/2016
666 555700 DEBORA CRISTINA BUITRAGO PEREIRA ANALISTA DO MP ATIVO BELO HORIZONTE - COMARCA; EXTINTA - DIRETORIA DE CONTRATOS E CONVÊNIOS 5.842,66 0,00 0,00 0,00 0,00 0,00 5.842,66 642,69 560,63 0,00 1.203,32 4.639,34 799,00 0,00 29/02/2016
667 513100 DEBORA CRISTINA PEREIRA DE OLIVEIRA ANALISTA DO MP ATIVO BELO HORIZONTE - COMARCA; BH-23PJ CIVEL-SETOR JURIDICO 5.792,74 432,04 0,00 0,00 0,00 0,00 6.224,78 1.035,23 611,56 0,00 1.646,79 4.577,99 1.431,00 1.778,34 29/02/2016
668 612100 DEBORA DUARTE SILVA DE SOUZA OFICIAL DO MP ATIVO RIBEIRÃO DAS NEVES - COMARCA; RIBEIRAO DAS NEVES-PJ-06PJ 3.445,03 689,01 0,00 0,00 1.378,01 0,00 5.512,05 454,74 417,13 0,00 871,87 4.640,18 1.431,00 0,00 29/02/2016
669 539700 DEBORA SALES CARVALHO ANALISTA DO MP ATIVO PATOS DE MINAS - COMARCA; COORD REG PJ DEF EDU DIR CRI ADO AL PAR NOROE 5.842,66 0,00 0,00 0,00 0,00 0,00 5.842,66 642,69 560,63 0,00 1.203,32 4.639,34 799,00 0,00 29/02/2016
670 424100 DEBORA SANTOS E ALVES ANALISTA DO MP ATIVO JANUÁRIA - COMARCA; JANUARIA-PJ-01PJ 8.087,02 872,70 0,00 0,00 0,00 0,00 8.959,72 1.055,97 1.304,17 0,00 2.360,14 6.599,58 799,00 0,00 29/02/2016
671 426301 DEBORA SCUCATO MACHADO SOARES OFICIAL DO MP ATIVO NOVA LIMA - COMARCA; NOVA LIMA-PJ-01PJ 2.958,20 379,26 0,00 0,00 0,00 0,00 3.337,46 458,90 76,98 0,00 535,88 2.801,58 1.431,00 0,00 29/02/2016
672 550200 DEBORA TRINDADE LEITE ANALISTA DO MP ATIVO MANHUAÇU - COMARCA; MANHUACU-PJ-05PJ 5.842,66 0,00 0,00 0,00 0,00 0,00 5.842,66 642,69 456,36 0,00 1.099,05 4.743,61 799,00 0,00 29/02/2016
673 438000 DEBORAH COSTA LAGE ANALISTA DO MP ATIVO BELO HORIZONTE - COMARCA; ASSESS TECNICO-JUR JUNTO AS PROC. DE JUST 8.727,00 872,70 0,00 0,00 0,00 0,00 9.599,70 1.155,87 1.480,17 0,00 2.636,04 6.963,66 799,00 908,16 29/02/2016
674 475700 DEBORAH LOBAO LACERDA OFICIAL DO MP ATIVO BELO HORIZONTE - COMARCA; BH-17PJ PATRIMONIO PUBLICO-SECRETARIA 4.379,06 437,91 0,00 0,00 0,00 0,00 4.816,97 562,07 328,47 0,00 890,54 3.926,43 799,00 292,66 29/02/2016
675 613700 DEISER MARIA FERREIRA ROSCOE OFICIAL DO MP ATIVO BELO HORIZONTE - COMARCA; DIRETORIA DE PAGAMENTO DE PESSOAL-DPAG 2.756,02 0,00 0,00 0,00 0,00 0,00 2.756,02 378,95 35,48 0,00 414,43 2.341,59 799,00 0,00 29/02/2016
676 551900 DEISY ROCHA SILVA FREIRE ANALISTA DO MP ATIVO JOÃO PINHEIRO - COMARCA; JOAO PINHEIRO-PJ-01PJ 5.842,66 0,00 0,00 0,00 0,00 0,00 5.842,66 642,69 560,63 0,00 1.203,32 4.639,34 799,00 0,00 29/02/2016
677 501900 DELI RAQUEL RODRIGUES ANALISTA DO MP ATIVO ITUIUTABA - COMARCA; ITUIUTABA-PJ-04PJ 7.200,74 432,04 0,00 0,00 0,00 0,00 7.632,78 1.165,64 998,76 0,00 2.164,40 5.468,38 799,00 3.161,49 29/02/2016
678 378600 DELIANE LOPES VIEIRA BREIJAO NEVES ANALISTA DO MP ATIVO JUIZ DE FORA - COMARCA; JUIZ DE FORA-PJ-12PJ 9.011,08 901,11 0,00 0,00 0,00 0,00 9.912,19 1.193,46 1.504,51 0,00 2.697,97 7.214,22 1.431,00 937,47 29/02/2016
679 522500 DELMINDA MARIA LEAO E SILVA OFICIAL DO MP ATIVO ITAGUARA - COMARCA; ITAGUARA-PJ-UNPJ 3.557,16 2.490,02 0,00 0,00 0,00 0,00 6.047,18 665,19 610,69 0,00 1.275,88 4.771,30 799,00 0,00 29/02/2016
680 487700 DENIA FERREIRA MAIA SILVA OFICIAL DO MP ATIVO TRÊS CORACOES - COMARCA; TRES CORACOES-PJ-01PJ 4.241,01 254,46 0,00 0,00 0,00 0,00 4.495,47 494,50 221,43 0,00 715,93 3.779,54 799,00 0,00 29/02/2016
681 424800 DENIS APARECIDO CAMPOS DELFINO ANALISTA DO MP ATIVO LUZ - COMARCA; LUZ-PJ-UNPJ 8.185,27 818,53 0,00 0,00 0,00 0,00 9.003,80 990,42 1.125,77 0,00 2.116,19 6.887,61 1.431,00 0,00 29/02/2016
682 381400 DENISE ANGELICA MELLO DE PAULA OFICIAL DO MP ATIVO BELO HORIZONTE - COMARCA; BH-18PJ DIREITOS HUMANOS-SECRETARIA 5.148,10 603,29 0,00 0,00 2.212,07 0,00 7.963,46 729,98 1.119,85 0,00 1.849,83 6.113,63 799,00 0,00 29/02/2016
683 196300 DENISE DE ALMEIDA VILELA FURTADO OFICIAL DO MP ATIVO BELO HORIZONTE - COMARCA; CENTRAL DE APOIO TECNICO-SECRETARIA 8.185,27 2.455,58 0,00 0,00 0,00 0,00 10.640,85 1.492,26 1.682,85 0,00 3.175,11 7.465,74 4.861,81 3.622,59 29/02/2016
684 336900 DENISE DE SOUSA MORAES SILVA OFICIAL DO MP ATIVO MATEUS LEME - COMARCA; MATEUS LEME-PJ-02PJ 4.977,82 995,56 0,00 0,00 0,00 0,00 5.973,38 657,07 592,63 0,00 1.249,70 4.723,68 799,00 0,00 29/02/2016
685 271100 DENISE ELOY PEIXOTO OFICIAL DO MP ATIVO BELO HORIZONTE - COMARCA; DIRET DE DESENV DE RECURSOS HUMANOS-DDRH 5.707,05 1.487,05 0,00 0,00 0,00 0,00 7.194,10 1.105,26 839,12 0,00 1.944,38 5.249,72 799,00 1.125,56 29/02/2016
686 385400 DENISE FREITAS DE ASSIS OFICIAL DO MP ATIVO CARATINGA - COMARCA; CARATINGA-PJ-05PJ 4.312,45 1.487,87 0,00 0,00 0,00 0,00 5.800,32 725,81 439,10 0,00 1.164,91 4.635,41 799,00 570,15 29/02/2016
687 437100 DENISE NOGUEIRA MAGRI MENDES ANALISTA DO MP ATIVO BELO HORIZONTE - COMARCA; LAB TECNOLOGIA CONTRA LAVAGEM DINHEIRO 8.727,00 2.618,10 0,00 0,00 0,00 0,00 11.345,10 1.821,79 1.750,94 0,00 3.572,73 7.772,37 799,00 5.216,62 29/02/2016
688 524700 DENISE RAMOS GUIMARAES OFICIAL DO MP ATIVO BELO HORIZONTE - COMARCA; BH-07PJ 01 TRIBUNAL JURI-SECRETARIA 3.085,86 234,96 0,00 0,00 0,00 0,00 3.320,82 456,61 74,83 0,00 531,44 2.789,38 799,00 0,00 29/02/2016
689 239100 DENISE RIBEIRO DOS SANTOS CAETANO OFICIAL DO MP ATIVO ITANHANDU - COMARCA; ITANHANDU-PJ-SECRETARIA 7.677,29 1.535,46 0,00 0,00 0,00 0,00 9.212,75 1.109,25 1.333,32 0,00 2.442,57 6.770,18 799,00 871,41 29/02/2016
690 325500 DENISE ROSA TORRES COORDENADOR/OFICIAL ATIVO BELO HORIZONTE - COMARCA; DIRETORIA DE PESSOAL ADMINISTRATIVO - DPAD 0,00 1.921,48 9.607,41 0,00 0,00 0,00 11.528,89 920,52 2.177,99 0,00 3.098,51 8.430,38 799,00 472,89 29/02/2016
691 437200 DENISE VIVIANE DOS SANTOS ANALISTA DO MP ATIVO BELO HORIZONTE - COMARCA; ASSESS TECNICA DA CORREGEDORIA-GERAL DO MP 6.549,52 818,53 0,00 0,00 0,00 0,00 7.368,05 1.534,94 832,35 0,00 2.367,29 5.000,76 1.431,00 4.950,24 29/02/2016
692 267900 DENISIA DE ALMEIDA SALES OFICIAL DO MP ATIVO BELO HORIZONTE - COMARCA; CAO-CRIMINAL-SECRETARIA 5.842,66 1.168,53 0,00 0,00 0,00 0,00 7.011,19 978,84 794,49 0,00 1.773,33 5.237,86 799,00 1.887,41 29/02/2016
693 480300 DESIREE ARANTES FERREIRA GOUVEA OFICIAL DO MP ATIVO PRATÁPOLIS - COMARCA; PRATAPOLIS-PJ-UNPJ 4.043,58 404,36 0,00 0,00 0,00 0,00 4.447,94 489,27 254,57 0,00 743,84 3.704,10 799,00 0,00 29/02/2016
694 355300 DEYSE CRISTINA MORAIS OFICIAL DO MP ATIVO PASSOS - COMARCA; PASSOS-PJ-02PJ 4.705,69 603,29 0,00 0,00 0,00 0,00 5.308,98 729,98 394,15 0,00 1.124,13 4.184,85 799,00 0,00 29/02/2016
695 523700 DIANA CAMPOS RESENDE OFICIAL DO MP ATIVO SÃO JOÃO DEL REI - COMARCA; SAO JOAO DEL REI-PJ-04PJ 4.241,01 1.696,40 0,00 0,00 0,00 0,00 5.937,41 653,12 479,55 0,00 1.132,67 4.804,74 799,00 0,00 29/02/2016
696 241900 DIANA CARDOSO MARTINS OFICIAL DO MP ATIVO BELO HORIZONTE - COMARCA; CAO-DH APOIO COMUNITARIO-SEC ADM 4.734,26 1.868,79 0,00 0,00 0,00 0,00 6.603,05 1.027,83 701,51 0,00 1.729,34 4.873,71 799,00 1.245,86 29/02/2016
697 410100 DIANA GORDILHO SILVEIRA SENA ANALISTA DO MP ATIVO BELO HORIZONTE - COMARCA; ASSESS TECNICO-JUR JUNTO AS PROC. DE JUST 8.727,00 872,70 0,00 0,00 0,00 0,00 9.599,70 1.055,97 1.480,17 0,00 2.536,14 7.063,56 799,00 0,00 29/02/2016
698 553000 DIANA MARIA MARQUES ANALISTA DO MP ATIVO BETIM - COMARCA; BETIM-PJ-13PJ 5.307,28 0,00 0,00 0,00 0,00 0,00 5.307,28 583,80 384,00 0,00 967,80 4.339,48 799,00 0,00 29/02/2016
699 520000 DIARLE TOSTE DOS SANTOS ANALISTA DO MP ATIVO RIO POMBA - COMARCA; RIO POMBA-PJ-UNPJ 5.792,74 432,04 0,00 0,00 0,00 0,00 6.224,78 839,61 559,42 0,00 1.399,03 4.825,75 799,00 0,00 29/02/2016
700 539800 DIEGO CAMARGOS RODRIGUES OFICIAL DO MP ATIVO CONTAGEM - COMARCA; CONTAGEM-PJ-09PJ 3.445,03 0,00 0,00 0,00 0,00 0,00 3.445,03 378,95 105,11 0,00 484,06 2.960,97 799,00 0,00 29/02/2016
701 607300 DIEGO CERVEIRA DE SOUZA ANALISTA DO MP ATIVO PATOS DE MINAS - COMARCA; COORD REG BACIAS PARACATU,URUCUIA E ABAETE 5.842,66 0,00 0,00 0,00 0,00 0,00 5.842,66 642,69 560,63 0,00 1.203,32 4.639,34 799,00 0,00 29/02/2016
702 446900 DIEGO DE FREITAS OFICIAL DO MP ATIVO UBERABA - COMARCA; UBERABA-PJ-06PJ 3.857,52 482,09 0,00 0,00 0,00 0,00 4.339,61 690,25 209,03 0,00 899,28 3.440,33 799,00 972,08 29/02/2016
703 379801 DIEGO OSORIO DA SILVA CORDEIRO ANALISTA DO MP ATIVO CONSELHEIRO LAFAIETE - COMARCA; CONSELHEIRO LAFAIETE-PJ-08PJ 4.868,88 0,00 0,00 0,00 0,00 0,00 4.868,88 642,69 560,63 0,00 1.203,32 3.665,56 4.861,81 2.007,03 29/02/2016
704 288800 DILENE NEPOMUCENO ALVES OFICIAL DO MP ATIVO BELO HORIZONTE - COMARCA; DIRETORIA DE PESSOAL ADMINISTRATIVO - DPAD 7.200,74 1.440,15 0,00 0,00 0,00 0,00 8.640,89 1.070,39 1.245,50 0,00 2.315,89 6.325,00 799,00 1.089,92 29/02/2016
705 270101 DILSON DO AMARAL ANALISTA DO MP ATIVO RIO CASCA - COMARCA; RIO CASCA-PJ-UNPJ 5.842,66 0,00 0,00 0,00 1.947,55 0,00 7.790,21 642,69 1.096,21 0,00 1.738,90 6.051,31 799,00 0,00 29/02/2016
706 466000 DIMITRI GUDE MARCIAL ANALISTA DO MP ATIVO NANUQUE - COMARCA; NANUQUE-PJ-02PJ 5.449,79 411,47 0,00 0,00 0,00 0,00 5.861,26 875,28 470,45 0,00 1.345,73 4.515,53 1.431,00 687,78 29/02/2016
707 516300 DINORA APARECIDA MACEDO BRANDAO ANALISTA DO MP ATIVO BELO HORIZONTE - COMARCA; ASSESS JUR DO CONS SUPERIOR DO MINISTERIO PUB 6.032,93 361,98 0,00 0,00 0,00 0,00 6.394,91 832,38 695,79 0,00 1.528,17 4.866,74 799,00 1.172,10 29/02/2016
708 511700 DIOGENES HENRIQUES PEREIRA LOURENCO ANALISTA DO MP ATIVO CONTAGEM - COMARCA; CONTAGEM-PJ-22PJ 7.200,74 432,04 0,00 0,00 0,00 0,00 7.632,78 1.035,23 998,76 0,00 2.033,99 5.598,79 799,00 1.778,34 29/02/2016
709 604100 DIOGO CESAR DE OLIVEIRA HONORIO ASSESSOR ATIVO PIUMHI - COMARCA; PIUMHI-PJ-02PJ 0,00 0,00 2.500,62 0,00 0,00 0,00 2.500,62 454,65 71,95 0,00 526,60 1.974,02 799,00 0,00 29/02/2016
710 387800 DIOGO FELIX DA SILVA OFICIAL DO MP ATIVO CONSELHEIRO PENA - COMARCA; CONSELHEIRO PENA-PJ-01PJ 3.882,70 497,78 0,00 0,00 0,00 0,00 4.380,48 602,32 213,96 0,00 816,28 3.564,20 799,00 0,00 29/02/2016
711 259600 DIOGO MESQUITA MAIA ANALISTA DO MP ATIVO BELO HORIZONTE - COMARCA; DIRET DE APOIO AS PROCURADORIAS DE JUSTICA 6.980,58 8.461,30 0,00 0,00 0,00 0,00 15.441,88 2.443,20 2.696,99 0,00 5.140,19 10.301,69 870,50 3.172,98 29/02/2016
712 386700 DIRCIMAR FERNANDES CARNEIRO OFICIAL DO MP ATIVO VISCONDE DO RIO BRANCO - COMARCA; VISCONDE DO RIO BRANCO-PJ-03PJ 4.388,91 3.016,46 0,00 0,00 0,00 0,00 7.405,37 1.269,11 893,37 0,00 2.162,48 5.242,89 806,68 2.487,96 29/02/2016
713 113800 DIRSON APARECIDO GUIMARAES ASSESSOR ATIVO BELO HORIZONTE - COMARCA; DIVISAO DE MANUTENCAO PREDIAL 0,00 3.340,14 4.175,17 0,00 0,00 0,00 7.515,31 570,88 773,00 0,00 1.343,88 6.171,43 799,00 0,00 29/02/2016
714 216700 DOMICIO VALDETE PEREIRA OFICIAL DO MP ATIVO TEÓFILO OTONI - COMARCA; COORD REG PJ DEF EDU DIR CRIAN ADOL JEQUI MUC 9.920,24 2.976,07 0,00 0,00 0,00 0,00 12.896,31 1.808,62 2.130,60 0,00 3.939,22 8.957,09 799,00 3.545,73 29/02/2016
715 85700 DONIZETTE PEREIRA DOS SANTOS OFICIAL DO MP ATIVO BELO HORIZONTE - COMARCA; EXTINTA - PROTOCOLO DA PGJ 17.188,14 13.750,51 0,00 0,00 10.157,04 3.351,82 44.447,51 3.351,82 10.199,11 467,54 14.018,47 30.429,04 799,00 0,00 29/02/2016
716 192701 DONIZETTI APARECIDO AMORIM ANALISTA DO MP ATIVO PRATÁPOLIS - COMARCA; PRATAPOLIS-PJ-UNPJ 6.229,29 1.868,79 0,00 0,00 0,00 0,00 8.098,08 946,95 1.060,51 0,00 2.007,46 6.090,62 799,00 510,54 29/02/2016
717 558700 DORCILIA FATIMA DE OLIVEIRA OFICIAL DO MP ATIVO DIVINÓPOLIS - COMARCA; DIVINOPOLIS-PJ-02PJ 3.792,57 0,00 0,00 0,00 0,00 0,00 3.792,57 646,56 123,07 0,00 769,63 3.022,94 799,00 2.085,24 29/02/2016
718 555300 DOUGLAS CUNHA DE SOUZA ANALISTA DO MP ATIVO VARZEA DA PALMA - COMARCA; VARZEA DA PALMA-PJ-01PJ 5.842,66 0,00 0,00 0,00 0,00 0,00 5.842,66 642,69 560,63 0,00 1.203,32 4.639,34 799,00 0,00 29/02/2016
719 265900 DOUGLAS GOMES MOREIRA ANALISTA DO MP ATIVO BELO HORIZONTE - COMARCA; CENTRAL DE APOIO TECNICO-SETOR DE ENGENHARIA 8.849,21 2.328,74 0,00 0,00 4.657,48 0,00 15.835,43 1.536,97 3.062,72 0,00 4.599,69 11.235,74 799,00 0,00 29/02/2016
720 241000 DOUGLAS MEIRELLES DE CASTRO OFICIAL DO MP ATIVO CONCEIÇÃO DO RIO VERDE - COMARCA; CONCEICAO DO RIO VERDE-PJ-UNPJ 8.451,80 2.535,54 0,00 0,00 0,00 0,00 10.987,34 1.208,61 1.715,52 0,00 2.924,13 8.063,21 1.431,00 0,00 29/02/2016
721 534900 DOUGLAS SILVA E SOUZA ANALISTA DO MP ATIVO CAMPOS GERAIS - COMARCA; CAMPOS GERAIS-PJ-SECRETARIA 5.842,66 0,00 0,00 0,00 0,00 0,00 5.842,66 642,69 508,49 0,00 1.151,18 4.691,48 799,00 0,00 29/02/2016
722 630700 DOUGLAS TAVEIRA LEMOS DE OLIVEIRA ANALISTA DO MP ATIVO BELO HORIZONTE - COMARCA; BH-18PJ VIOLENCIA DOMESTICA 5.307,28 0,00 0,00 0,00 0,00 0,00 5.307,28 620,62 429,60 0,00 1.050,22 4.257,06 799,00 390,51 29/02/2016
723 615600 DOUGLAS URIEL SOARES MOREIRA SILVA ANALISTA DO MP ATIVO IPATINGA - COMARCA; IPATINGA-PJ-01PJ 4.820,91 0,00 0,00 0,00 0,00 0,00 4.820,91 530,30 329,26 0,00 859,56 3.961,35 799,00 0,00 29/02/2016
724 638900 DOUGLAS WALLAS CONCEICAO NEVES OFICIAL DO MP ATIVO RIBEIRÃO DAS NEVES - COMARCA; RIBEIRAO DAS NEVES-PJ-SEC CIVEL 3.030,62 0,00 0,00 0,00 0,00 0,00 3.030,62 333,37 59,49 0,00 392,86 2.637,76 799,00 0,00 29/02/2016
725 146800 DUCINALVA AMARAL LOPES REIS OFICIAL DO MP ATIVO PARAISÓPOLIS - COMARCA; PARAISOPOLIS-PJ-UNPJ 11.643,70 5.821,85 0,00 0,00 0,00 0,00 17.465,55 2.102,93 3.301,06 0,00 5.403,99 12.061,56 799,00 1.652,04 29/02/2016
726 122500 DUILIO CARLOS FERREIRA UTSCH OFICIAL DO MP ATIVO CONCEIÇÃO DO MATO DENTRO - COMARCA; CONCEICAO DO MATO DENTRO-PJ-UNPJ 9.920,24 6.944,16 0,00 0,00 0,00 0,00 16.864,40 2.365,12 3.258,20 0,00 5.623,32 11.241,08 799,00 4.636,74 29/02/2016
727 201800 DULCINEIA ANDRE DE SOUZA OFICIAL DO MP ATIVO JEQUITINHONHA - COMARCA; JEQUITINHONHA-PJ-SECRETARIA 8.358,32 2.976,07 0,00 0,00 0,00 0,00 11.334,39 1.808,62 1.648,94 0,00 3.457,56 7.876,83 799,00 3.545,73 29/02/2016
728 395800 DUVIDIER MEDIRCIO JUNIOR ANALISTA DO MP ATIVO BELO HORIZONTE - COMARCA; CENTRAL DE APOIO TECNICO-SETOR DE ENGENHARIA 9.607,41 960,74 0,00 0,00 0,00 0,00 10.568,15 1.162,50 1.717,19 0,00 2.879,69 7.688,46 799,00 0,00 29/02/2016
729 604800 ECIA RAMILIS ISSA DE ABREU ANALISTA DO MP ATIVO MONTALVÂNIA - COMARCA; MONTALVANIA-PJ-UNPJ 5.307,28 0,00 0,00 0,00 0,00 0,00 5.307,28 690,80 429,60 0,00 1.120,40 4.186,88 799,00 1.134,86 29/02/2016
730 273000 EDELFINA APARECIDA GUIMARAES OFICIAL DO MP ATIVO BELO HORIZONTE - COMARCA; PROMOT ESTADUAL DE DEF PATRI CULT E TUR DE MG 4.502,46 3.216,05 0,00 0,00 0,00 0,00 7.718,51 1.061,30 909,24 0,00 1.970,54 5.747,97 799,00 0,00 29/02/2016
731 523300 EDER DOS SANTOS PATRICIO ANALISTA DO MP ATIVO NOVA SERRANA - COMARCA; NOVA SERRANA-PJ-03PJ 5.233,51 398,49 0,00 0,00 0,00 0,00 5.632,00 774,40 466,48 0,00 1.240,88 4.391,12 799,00 0,00 29/02/2016
732 356700 EDER JOSE PACHECO OFICIAL DO MP ATIVO CAMPO BELO - COMARCA; CAMPO BELO-PJ-SECRETARIA 6.229,29 622,93 0,00 0,00 0,00 0,00 6.852,22 753,74 807,72 0,00 1.561,46 5.290,76 983,83 0,00 29/02/2016
733 507900 EDERSON SILVA LOPES OFICIAL DO MP ATIVO BELO HORIZONTE - COMARCA; SERVICO MEDICO-DEPTO PERIC MEDICA SAUDE OCUP 3.916,07 234,96 0,00 0,00 0,00 0,00 4.151,03 624,01 142,49 0,00 766,50 3.384,53 1.431,00 1.521,76 29/02/2016
734 296200 EDGARD GOULART MATOSINHO DE LAET JUNIOR ANALISTA DO MP ATIVO GOVERNADOR VALADARES - COMARCA; GOVERNADOR VALADARES-PJ-12PJ 10.576,63 2.115,33 0,00 0,00 0,00 0,00 12.691,96 1.396,12 2.080,58 0,00 3.476,70 9.215,26 799,00 0,00 29/02/2016
735 295000 EDILA MARIA DA SILVEIRA OFICIAL DO MP ATIVO FORMIGA - COMARCA; FORMIGA-PJ-SECRETARIA 6.032,93 1.206,59 0,00 0,00 0,00 0,00 7.239,52 1.015,29 902,51 0,00 1.917,80 5.321,72 799,00 1.990,38 29/02/2016
736 332300 EDILA MARILAC MIRANDA PRADO OFICIAL DO MP ATIVO DIAMANTINA - COMARCA; COORD REG BACIAS RIOS JEQUITINHONHA E MUCURI 6.229,29 2.491,72 0,00 0,00 0,00 0,00 8.721,01 1.050,03 1.160,83 0,00 2.210,86 6.510,15 799,00 824,70 29/02/2016
737 376600 EDILANE CONSOLACAO ROSA NAZARETH ANALISTA DO MP ATIVO BETIM - COMARCA; BETIM-PJ-10PJ 9.011,08 901,11 0,00 0,00 0,00 0,00 9.912,19 1.193,46 1.556,65 0,00 2.750,11 7.162,08 799,00 937,47 29/02/2016
738 301500 EDILENE APARECIDA DE CARVALHO ANALISTA DO MP ATIVO BELO HORIZONTE - COMARCA; DIRETORIA DE ADMINISTRACAO FINANCEIRA 8.038,24 2.115,33 0,00 0,00 0,00 0,00 10.153,57 1.396,12 1.486,80 0,00 2.882,92 7.270,65 799,00 0,00 29/02/2016
739 309800 EDILZA DOS REIS OFICIAL DO MP ATIVO UBERLÂNDIA - COMARCA; UBERLANDIA-PJ-03PJ 6.973,67 1.394,73 0,00 0,00 0,00 0,00 8.368,40 966,41 1.126,67 0,00 2.093,08 6.275,32 799,00 417,18 29/02/2016
740 200500 EDINEIA MARIA DE OLIVEIRA ANTUNES OFICIAL DO MP ATIVO MONTES CLAROS - COMARCA; MONTES CLAROS-PJ-10PJ 9.920,24 3.968,10 0,00 0,00 0,00 0,00 13.888,34 2.182,45 2.529,81 0,00 4.712,26 9.176,08 1.431,00 5.952,12 29/02/2016
741 427700 EDISANGELA SOARES LOPES OFICIAL DO MP ATIVO PIRAPORA - COMARCA; PIRAPORA-PJ-02PJ 4.820,91 482,09 0,00 0,00 1.767,67 0,00 7.070,67 583,33 914,66 0,00 1.497,99 5.572,68 799,00 0,00 29/02/2016
742 555400 EDISON MONTEIRO SAMPAIO NETO ANALISTA DO MP ATIVO BELO HORIZONTE - COMARCA; BH-12PJ JUIZO CRIMINAL-GAB 094PJ 5.842,66 0,00 0,00 0,00 0,00 0,00 5.842,66 642,69 560,63 0,00 1.203,32 4.639,34 799,00 0,00 29/02/2016
743 517700 EDMILSON TADEU FERNANDES OFICIAL DO MP ATIVO POUSO ALEGRE - COMARCA; POUSO ALEGRE-PJ-SECRETARIA 4.668,87 280,13 0,00 0,00 0,00 0,00 4.949,00 544,39 354,91 0,00 899,30 4.049,70 799,00 0,00 29/02/2016
744 358400 EDNA APARECIDA SILVA FERREIRA OFICIAL DO MP ATIVO CORONEL FABRICIANO - COMARCA; CORONEL FABRICIANO-PJ-SECRETARIA 4.902,05 622,93 0,00 0,00 0,00 0,00 5.524,98 825,02 442,73 0,00 1.267,75 4.257,23 799,00 648,00 29/02/2016
745 331800 EDNA MARCIA CAMILO DA SILVA OFICIAL DO MP ATIVO SETE LAGOAS - COMARCA; SETE LAGOAS-PJ-07PJ 5.429,97 1.394,73 0,00 0,00 2.789,47 0,00 9.614,17 1.206,48 1.521,39 0,00 2.727,87 6.886,30 799,00 2.599,60 29/02/2016
746 422800 EDNILSON DE SOUZA FERREIRA ASSESSOR ATIVO BELO HORIZONTE - COMARCA; DIRET DE INFORMACAO E EXPEDICAO DE PROCESSOS 0,00 0,00 2.500,62 0,00 0,00 0,00 2.500,62 454,65 42,13 0,00 496,78 2.003,84 799,00 0,00 29/02/2016
747 327900 EDRIEL SANTANA PEREIRA OFICIAL DO MP ATIVO TUPACIGUARA - COMARCA; TUPACIGUARA-PJ-UNPJ 6.973,67 1.394,73 0,00 0,00 2.789,47 0,00 11.157,87 1.206,48 1.945,91 0,00 3.152,39 8.005,48 1.431,00 2.599,60 29/02/2016
748 482400 EDSON GARCIA OFICIAL DO MP ATIVO MACHADO - COMARCA; MACHADO-PJ-02PJ 3.916,07 234,96 0,00 0,00 0,00 0,00 4.151,03 456,61 142,49 0,00 599,10 3.551,93 799,00 0,00 29/02/2016
749 225601 EDSON LABRE FILHO ANALISTA DO MP ATIVO VARGINHA - COMARCA; VARGINHA-PJ-01PJ 8.038,24 2.115,33 0,00 0,00 0,00 0,00 10.153,57 1.396,12 1.486,80 0,00 2.882,92 7.270,65 799,00 0,00 29/02/2016
750 602700 EDSON NOGUEIRA BUENO OFICIAL DO MP ATIVO PITANGUI - COMARCA; PITANGUI-PJ-02PJ 2.819,17 0,00 0,00 0,00 1.148,34 0,00 3.967,51 483,15 183,48 0,00 666,63 3.300,88 799,00 947,25 29/02/2016
751 414400 EDUARDO ABRANTES CAMPOS ANALISTA DO MP ATIVO OLIVEIRA - COMARCA; OLIVEIRA-PJ-02PJ 8.727,00 872,70 0,00 0,00 0,00 0,00 9.599,70 1.055,97 1.480,17 0,00 2.536,14 7.063,56 799,00 0,00 29/02/2016
752 476800 EDUARDO ALVES DE MOURA ANALISTA DO MP ATIVO UBERLÂNDIA - COMARCA; UBERLANDIA-PJ-19PJ 5.908,67 743,52 0,00 0,00 0,00 0,00 6.652,19 899,66 608,31 0,00 1.507,97 5.144,22 1.431,00 0,00 29/02/2016
753 390800 EDUARDO AMORIM PETTERSEN OFICIAL DO MP ATIVO CARANGOLA - COMARCA; CARANGOLA-PJ-03PJ 4.312,45 548,01 0,00 0,00 0,00 0,00 4.860,46 725,81 308,28 0,00 1.034,09 3.826,37 799,00 570,15 29/02/2016
754 633200 EDUARDO ANTONIO CODO SANTOS ASSESSOR ATIVO BELO HORIZONTE - COMARCA; ASSESSORIA ESPECIAL FINANCEIRA DO PGJAA 0,00 10.038,02 20.076,03 0,00 0,00 0,00 30.114,05 1.448,15 7.013,76 0,00 8.461,91 21.652,14 799,00 0,00 29/02/2016
755 461600 EDUARDO ANTONIO DE ASSIS FARIA ASSESSOR ATIVO BELO HORIZONTE - COMARCA; ASSESS EXECUTIVA DO CONSELHO SUPERIOR DO MP 0,00 0,00 4.175,17 0,00 0,00 0,00 4.175,17 547,16 317,29 0,00 864,45 3.310,72 1.768,07 0,00 29/02/2016
756 248800 EDUARDO DE CASTRO AMORIM ANALISTA DO MP ATIVO BELO HORIZONTE - COMARCA; BH-01PJ FAZENDA PUBLICA EXEC FISCAIS 9.528,65 2.482,83 0,00 0,00 0,00 0,00 12.011,48 1.845,27 1.983,16 0,00 3.828,43 8.183,05 799,00 1.878,24 29/02/2016
757 209100 EDUARDO DE SOUZA MAIA ANALISTA DO MP ATIVO BELO HORIZONTE - COMARCA; CAO-TS-TERCEIRO SETOR-ASSESSORIA JURIDICA 14.155,19 4.246,56 0,00 0,00 0,00 0,00 18.401,75 2.024,19 3.478,06 0,00 5.502,25 12.899,50 799,00 0,00 29/02/2016
758 633900 EDUARDO GONCALVES PIRES OFICIAL DO MP ATIVO BELO HORIZONTE - COMARCA; BH-19PJ SAUDE-SECRETARIA 150PJ 3.336,37 667,27 0,00 0,00 0,00 0,00 4.003,64 440,40 179,69 0,00 620,09 3.383,55 799,00 0,00 29/02/2016
759 350500 EDUARDO GONCALVES RIBEIRO OFICIAL DO MP ATIVO VESPASIANO - COMARCA; VESPASIANO-PJ-04PJ 3.882,70 497,78 0,00 0,00 1.825,20 0,00 6.205,68 602,32 671,56 0,00 1.273,88 4.931,80 799,00 0,00 29/02/2016
760 115800 EDUARDO HENRIQUE DE CAMPOS MAIA OFICIAL DO MP ATIVO BELO HORIZONTE - COMARCA; EXTINTA - DIVISAO DE SERVICOS GERAIS 10.576,63 4.230,65 0,00 0,00 0,00 0,00 14.807,28 1.782,85 2.650,45 0,00 4.433,30 10.373,98 799,00 1.400,52 29/02/2016
761 392600 EDUARDO HENRIQUE DOS SANTOS COSTA ELIAZAR OFICIAL DO MP ATIVO MATOZINHOS - COMARCA; MATOZINHOS-PJ-02PJ 5.307,28 530,73 0,00 0,00 0,00 0,00 5.838,01 642,18 404,96 0,00 1.047,14 4.790,87 2.063,00 0,00 29/02/2016
762 122900 EDUARDO JOSE COSTA SILVA OFICIAL DO MP ATIVO SETE LAGOAS - COMARCA; SETE LAGOAS-PJ-04PJ 15.298,25 12.238,61 0,00 0,00 0,00 0,00 27.536,86 3.658,15 5.983,87 0,00 9.642,02 17.894,84 799,00 5.719,06 29/02/2016
763 418700 EDUARDO LEMOS SIMOES OFICIAL DO MP ATIVO LAVRAS - COMARCA; COORD REG DO MA DA BACIA DO RIO GRANDE 4.176,50 530,73 0,00 0,00 0,00 0,00 4.707,23 702,93 278,51 0,00 981,44 3.725,79 799,00 552,30 29/02/2016
764 407500 EDUARDO MASCARENHAS CURI AZEVEDO ANALISTA DO MP ATIVO BELO HORIZONTE - COMARCA; DIRETORIA DE IMPRENSA 6.041,54 767,73 0,00 0,00 0,00 0,00 6.809,27 1.016,82 747,73 0,00 1.764,55 5.044,72 799,00 887,57 29/02/2016
765 601300 EDUARDO TRAD VIEIRA OFICIAL DO MP ATIVO RIBEIRÃO DAS NEVES - COMARCA; RIBEIRAO DAS NEVES-PJ-01PJ 3.445,03 0,00 0,00 0,00 0,00 0,00 3.445,03 552,61 105,11 0,00 657,72 2.787,31 1.431,00 1.578,75 29/02/2016
766 257600 EDUARDO VALADARES CABRAL ANALISTA DO MP ATIVO BELO HORIZONTE - COMARCA; PROCON-MG-GAB DO COORDENADOR DO PROCON-MG 9.920,24 1.984,05 0,00 0,00 0,00 0,00 11.904,29 1.474,64 2.044,22 0,00 3.518,86 8.385,43 799,00 1.501,60 29/02/2016
767 545700 EDVAIR FERREIRA DE CARVALHO OFICIAL DO MP ATIVO ARAGUARI - COMARCA; ARAGUARI-PJ-06PJ 3.445,03 0,00 0,00 0,00 0,00 0,00 3.445,03 378,95 58,72 0,00 437,67 3.007,36 799,00 0,00 29/02/2016
768 401700 EDWANIA AMORIM DO CARMO OFICIAL DO MP ATIVO RIBEIRÃO DAS NEVES - COMARCA; RIBEIRAO DAS NEVES-PJ-03PJ 4.827,32 603,29 0,00 0,00 0,00 0,00 5.430,61 930,68 423,31 0,00 1.353,99 4.076,62 799,00 1.824,51 29/02/2016
769 303600 EFIGENIO SARAIVA LOPES ANALISTA DO MP ATIVO BELO HORIZONTE - COMARCA; DIRETORIA DE PAGAMENTO DE PESSOAL-DPAG 8.849,21 2.328,74 0,00 0,00 0,00 0,00 11.177,95 1.536,97 1.677,64 0,00 3.214,61 7.963,34 799,00 0,00 29/02/2016
770 312000 ELAINE APARECIDA DE ARAUJO RODRIGUES ASSESSOR/OFICIAL ATIVO DIVINÓPOLIS - COMARCA; DIVINOPOLIS-PJ-02PJ 0,00 4.649,05 6.641,51 0,00 0,00 1.202,80 12.493,36 1.202,80 2.235,54 0,00 3.438,34 9.055,02 799,00 0,00 29/02/2016
771 286000 ELAINE APARECIDA SILVA BERZOINI OFICIAL DO MP ATIVO JUIZ DE FORA - COMARCA; JUIZ DE FORA-PJ-07PJ 5.527,06 1.440,15 0,00 0,00 0,00 0,00 6.967,21 1.070,39 785,24 0,00 1.855,63 5.111,58 799,00 1.089,92 29/02/2016
772 509000 ELAINE CANDIDA PONTES OFICIAL DO MP ATIVO BELO HORIZONTE - COMARCA; BH-02PJ FAMILIA-SECRETARIA 3.410,80 254,46 0,00 0,00 0,00 0,00 3.665,26 646,06 120,81 0,00 766,87 2.898,39 799,00 1.377,76 29/02/2016
773 283601 ELAINE CRISTINA MEQUELINO DUARTE ANALISTA DO MP ATIVO ALFENAS - COMARCA; ALFENAS-PJ-04PJ 9.011,08 901,11 0,00 0,00 0,00 0,00 9.912,19 1.193,46 1.452,37 0,00 2.645,83 7.266,36 2.063,00 937,47 29/02/2016
774 535500 ELAINE DE OLIVEIRA CAMPOS REIS OFICIAL DO MP ATIVO RIBEIRÃO DAS NEVES - COMARCA; RIBEIRAO DAS NEVES-PJ-11PJ 3.445,03 0,00 0,00 0,00 0,00 0,00 3.445,03 378,95 105,11 0,00 484,06 2.960,97 799,00 0,00 29/02/2016
775 455700 ELAINE DE OLIVEIRA CASTRO ANALISTA DO MP ATIVO POMPÉU - COMARCA; POMPEU-PJ-UNPJ 6.857,79 685,78 0,00 0,00 0,00 0,00 7.543,57 1.156,43 924,79 0,00 2.081,22 5.462,35 1.431,00 3.223,04 29/02/2016
776 367200 ELAINE MUNIZ BARBOSA ANALISTA DO MP ATIVO BELO HORIZONTE - COMARCA; DIRETORIA DE SISTEMAS DE INFORMACAO 7.737,79 992,02 0,00 0,00 0,00 0,00 8.729,81 1.200,35 1.201,24 0,00 2.401,59 6.328,22 799,00 0,00 29/02/2016
777 176900 ELAINE RIBEIRO TAVEIRA OFICIAL DO MP ATIVO BELO HORIZONTE - COMARCA; DIRETORIA DE PESSOAL ADMINISTRATIVO - DPAD 8.185,27 2.455,58 0,00 0,00 0,00 0,00 10.640,85 1.170,49 1.734,99 0,00 2.905,48 7.735,37 799,00 0,00 29/02/2016
778 496200 ELAINE SABRINA DIAS MOREIRA ANALISTA DO MP ATIVO CORONEL FABRICIANO - COMARCA; CORONEL FABRICIANO-PJ-03PJ 5.792,74 432,04 0,00 0,00 2.544,26 0,00 8.769,04 1.230,85 1.311,23 0,00 2.542,08 6.226,96 799,00 3.556,68 29/02/2016
779 489200 ELAINE VICENTINO GARCIA ANALISTA DO MP ATIVO BELO HORIZONTE - COMARCA; CENTRAL DE APOIO TECNICO-SETOR CONTABIL 7.200,74 1.440,15 0,00 0,00 2.880,30 0,00 11.521,19 950,50 1.933,31 0,00 2.883,81 8.637,38 1.431,00 0,00 29/02/2016
780 244500 ELCI ALVES DE SOUZA ASSESSOR ATIVO BELO HORIZONTE - COMARCA; CAO-CONFLITOS AGRARIOS-SECRETARIA 0,00 835,03 4.175,17 0,00 0,00 0,00 5.010,20 570,88 519,04 0,00 1.089,92 3.920,28 799,00 0,00 29/02/2016
781 472500 ELCI VAZ DE OLIVEIRA FILHO ANALISTA DO MP ATIVO PIUMHI - COMARCA; PIUMHI-PJ-02PJ 7.435,23 2.974,09 0,00 0,00 3.469,77 0,00 13.879,09 1.217,25 2.632,51 0,00 3.849,76 10.029,33 799,00 656,58 29/02/2016
782 385200 ELCI VIANA REIS OFICIAL DO MP ATIVO RIO PARDO DE MINAS - COMARCA; RIO PARDO DE MINAS-PJ-SECRETARIA 6.032,93 2.413,17 0,00 0,00 0,00 0,00 8.446,10 929,07 1.197,82 0,00 2.126,89 6.319,21 799,00 0,00 29/02/2016
783 289801 ELCIO JOSE DOS SANTOS ASSESSOR/ANALISTA ATIVO BELO HORIZONTE - COMARCA; EXTINTA - DIRETORIA SERVIÇOS GERAIS E TRANS 0,00 930,45 9.304,45 0,00 0,00 0,00 10.234,90 899,66 1.697,83 0,00 2.597,49 7.637,41 799,00 0,00 29/02/2016
784 123000 ELCIO VILHENA DE FARIA OFICIAL DO MP ATIVO BELO HORIZONTE - COMARCA; DIVISAO DE MEMORIA INSTITUCIONAL 15.298,25 13.768,43 0,00 0,00 0,00 3.197,33 32.264,01 4.462,54 7.262,32 0,00 11.724,86 20.539,15 799,00 12.767,17 29/02/2016
785 319600 ELEN TULER DE ALBERGARIA ANALISTA DO MP ATIVO BELO HORIZONTE - COMARCA; BH-19PJ SAUDE 9.304,45 2.791,34 0,00 0,00 0,00 0,00 12.095,79 1.456,39 2.091,08 0,00 3.547,47 8.548,32 2.063,00 1.144,14 29/02/2016
786 333100 ELENILDA ROCHA DE MORAES MELO OFICIAL DO MP ATIVO MAR DE ESPANHA - COMARCA; MAR DE ESPANHA-PJ-SECRETARIA 4.977,82 995,56 0,00 0,00 1.991,13 0,00 7.964,51 657,07 1.140,19 0,00 1.797,26 6.167,25 799,00 0,00 29/02/2016
787 151000 ELI LOURENCO RIBEIRO AGENTE DO MP ATIVO BELO HORIZONTE - COMARCA; BH-17PJ PATRIMONIO PUBLICO-SECRETARIA 7.677,29 3.070,92 0,00 0,00 0,00 0,00 10.748,21 1.182,30 1.332,01 0,00 2.514,31 8.233,90 799,00 0,00 29/02/2016
788 205500 ELIANA ALVES DE SOUSA OFICIAL DO MP ATIVO GOVERNADOR VALADARES - COMARCA; GOVERNADOR VALADARES-PJ-07PJ 4.759,75 1.929,63 0,00 0,00 0,00 0,00 6.689,38 919,79 717,28 0,00 1.637,07 5.052,31 799,00 0,00 29/02/2016
789 628800 ELIANA APARECIDA PEREIRA ANALISTA DO MP ATIVO CAMBUÍ - COMARCA; CAMBUI-PJ-02PJ 4.820,91 0,00 0,00 0,00 0,00 0,00 4.820,91 580,47 329,26 0,00 909,73 3.911,18 799,00 456,12 29/02/2016
790 301700 ELIANA DA SILVEIRA ANALISTA DO MP ATIVO BELO HORIZONTE - COMARCA; ASSESS TECNICO-JUR JUNTO AS PROC. DE JUST 10.243,18 2.048,64 0,00 0,00 0,00 0,00 12.291,82 1.479,99 2.139,06 0,00 3.619,05 8.672,77 4.861,81 1.535,01 29/02/2016
791 103400 ELIANA DE FARIA MORAIS JOTTA OFICIAL DO MP ATIVO BELO HORIZONTE - COMARCA; DIRET DE PESSOAL DO MINISTERIO PUBLICO - DPMP 20.076,03 10.038,01 0,00 0,00 0,00 0,00 30.114,04 3.312,54 6.344,64 0,00 9.657,18 20.456,86 799,00 0,00 29/02/2016
792 251500 ELIANA DE LIMA MILAGRES FONSECA ANALISTA DO MP ATIVO CONTAGEM - COMARCA; CONTAGEM-PJ-06PJ 10.243,18 2.048,64 0,00 0,00 0,00 0,00 12.291,82 1.522,61 2.034,79 0,00 3.557,40 8.734,42 799,00 1.550,12 29/02/2016
793 503900 ELIANA DIAS DUTRA FERREIRA OFICIAL DO MP ATIVO GOVERNADOR VALADARES - COMARCA; GOVERNADOR VALADARES-PJ-10PJ 4.668,87 280,13 0,00 0,00 0,00 0,00 4.949,00 793,83 269,59 0,00 1.063,42 3.885,58 0,00 2.267,65 29/02/2016
794 413900 ELIANA PINTO DE OLIVEIRA NEVES ANALISTA DO MP ATIVO CAMPO BELO - COMARCA; CAMPO BELO-PJ-03PJ 8.185,27 818,53 0,00 0,00 0,00 0,00 9.003,80 990,42 1.334,32 0,00 2.324,74 6.679,06 1.431,00 0,00 29/02/2016
795 228200 ELIANA RODRIGUES DA CUNHA PINHEIRO DIRETOR/OFICIAL ATIVO BELO HORIZONTE - COMARCA; SUPERINTENDÊNCIA DE ENGENHARIA E ARQUITETURA 0,00 2.831,04 14.155,19 0,00 0,00 1.080,46 18.066,69 1.080,46 3.801,85 0,00 4.882,31 13.184,38 799,00 0,00 29/02/2016
796 386600 ELIANA SABINO CHAVES ANALISTA DO MP ATIVO CARATINGA - COMARCA; CARATINGA-PJ-06PJ 6.108,90 4.363,50 0,00 0,00 0,00 0,00 10.472,40 1.439,96 1.562,42 0,00 3.002,38 7.470,02 799,00 0,00 29/02/2016
797 297400 ELIANE AUGUSTA RIBEIRO COSTA ANALISTA DO MP ATIVO CONSELHEIRO LAFAIETE - COMARCA; CONSELHEIRO LAFAIETE-PJ-05PJ 11.643,70 2.328,74 0,00 0,00 0,00 0,00 13.972,44 2.100,38 2.393,98 0,00 4.494,36 9.478,08 799,00 5.121,92 29/02/2016
798 510600 ELIANE CAROLINA MAIA ANALISTA DO MP ATIVO IGARAPÉ - COMARCA; IGARAPE-PJ-02PJ 7.200,74 432,04 0,00 0,00 0,00 0,00 7.632,78 1.052,49 790,21 0,00 1.842,70 5.790,08 2.063,00 1.935,27 29/02/2016
799 269300 ELIANE EDLAMAR ROCHA OFICIAL DO MP ATIVO PEDRO LEOPOLDO - COMARCA; PEDRO LEOPOLDO-PJ-02PJ 5.472,56 1.440,15 0,00 0,00 0,00 0,00 6.912,71 950,50 718,11 0,00 1.668,61 5.244,10 1.431,00 0,00 29/02/2016
800 359100 ELIANE FARIAS DE OLIVEIRA ASSESSOR ATIVO BELO HORIZONTE - COMARCA; EXTINTA-TUTELA DAS FUNDACOES-21 PJ- GABINETE 0,00 0,00 2.500,62 0,00 0,00 0,00 2.500,62 362,96 85,70 0,00 448,66 2.051,96 799,00 0,00 29/02/2016
801 262600 ELIANE FERREIRA SOARES ASSESSOR ATIVO BELO HORIZONTE - COMARCA; BH-18PJ DIREITOS HUMANOS-SECRETARIA 0,00 1.252,55 4.175,17 0,00 0,00 0,00 5.427,72 570,88 633,86 0,00 1.204,74 4.222,98 799,00 0,00 29/02/2016
802 204400 ELIANE GLAUCE DE QUEIROS MAIA OFICIAL DO MP ATIVO GUANHÃES - COMARCA; GUANHAES-PJ-01PJ 9.920,24 2.976,07 0,00 0,00 4.298,77 0,00 17.195,08 1.808,62 3.469,17 0,00 5.277,79 11.917,29 1.431,00 3.545,73 29/02/2016
803 91800 ELIANE KAPLER COORDENADOR/OFICIAL ATIVO BELO HORIZONTE - COMARCA; DIRET DE CONTROLE E DE MANUTENCAO DE IMOVEIS 12.598,78 8.702,01 0,00 0,00 0,00 0,00 21.300,79 2.771,74 4.312,41 0,00 7.084,15 14.216,64 799,00 6.299,40 29/02/2016
804 334200 ELIANE MARCIA DE OLIVEIRA BRITO OFICIAL DO MP ATIVO BELO HORIZONTE - COMARCA; BH-08PJ JUIZADO ESPECIAL-SECRETARIA 3.783,14 995,56 0,00 0,00 0,00 0,00 4.778,70 657,07 291,24 0,00 948,31 3.830,39 799,00 0,00 29/02/2016
805 365900 ELIANE MARIA DE OLIVEIRA FERREIRA OFICIAL DO MP ATIVO SETE LAGOAS - COMARCA; SETE LAGOAS-PJ-11PJ 4.978,59 2.572,84 0,00 0,00 0,00 0,00 7.551,43 1.084,23 934,88 0,00 2.019,11 5.532,32 799,00 851,76 29/02/2016
806 320600 ELIANE STADLER DE SOUZA OFICIAL DO MP ATIVO FRANCISCO SÁ - COMARCA; FRANCISCO SA-PJ-SECRETARIA 6.229,29 1.245,86 0,00 0,00 0,00 0,00 7.475,15 822,27 908,04 0,00 1.730,31 5.744,84 799,00 0,00 29/02/2016
807 448900 ELIAS PEREIRA OTONI ASSESSOR ATIVO BELO HORIZONTE - COMARCA; EXTINTA - DIVISAO DE TRANSPORTES 0,00 0,00 4.175,17 0,00 0,00 0,00 4.175,17 547,16 274,63 0,00 821,79 3.353,38 799,00 0,00 29/02/2016
808 495400 ELICA SOUZA GASPARONI MATTOS OFICIAL DO MP ATIVO UBÁ - COMARCA; UBA-PJ-SECRETARIA 3.679,07 280,13 0,00 0,00 0,00 0,00 3.959,20 544,39 157,42 0,00 701,81 3.257,39 1.431,00 0,00 29/02/2016
809 86600 ELIENE FERREIRA DA SILVA OFICIAL DO MP ATIVO BELO HORIZONTE - COMARCA; BH-22PJ PES COM DEF E IDOSOS 17.188,14 8.594,07 0,00 0,00 0,00 0,00 25.782,21 2.836,04 5.284,43 0,00 8.120,47 17.661,74 1.431,00 0,00 29/02/2016
810 183800 ELIENE MARIA CUNHA OFICIAL DO MP ATIVO BELO HORIZONTE - COMARCA; DIRETORIA DE PESSOAL ADMINISTRATIVO - DPAD 10.243,18 3.072,95 0,00 0,00 0,00 0,00 13.316,13 1.603,31 2.337,63 0,00 3.940,94 9.375,19 799,00 1.259,46 29/02/2016
811 172300 ELINA APARECIDA SILVA ASSESSOR ATIVO BELO HORIZONTE - COMARCA; BH-19PJ SAUDE-SECRETARIA 130PJ 0,00 750,19 2.500,62 0,00 0,00 0,00 3.250,81 445,48 128,97 0,00 574,45 2.676,36 799,00 0,00 29/02/2016
812 492501 ELINE CAMPOS DA FONSECA CUNHA ANALISTA DO MP ATIVO JEQUERI - COMARCA; JEQUERI-PJ-UNPJ 4.820,91 289,25 0,00 0,00 0,00 0,00 5.110,16 562,12 387,18 0,00 949,30 4.160,86 799,00 0,00 29/02/2016
813 618900 ELISA MOURA VIEIRA MARCATTI OFICIAL DO MP ATIVO BELO HORIZONTE - COMARCA; BH-23PJ CIVEL-SEC EXP CIVEIS 3.445,03 0,00 0,00 0,00 0,00 0,00 3.445,03 378,95 105,11 0,00 484,06 2.960,97 799,00 0,00 29/02/2016
814 256500 ELISABETE NOGUEIRA ANALISTA DO MP ATIVO RIBEIRÃO DAS NEVES - COMARCA; RIBEIRAO DAS NEVES-PJ-10PJ 9.471,89 3.968,10 0,00 0,00 4.629,45 0,00 18.069,44 1.720,43 3.523,20 0,00 5.243,63 12.825,81 1.431,00 1.751,84 29/02/2016
815 355000 ELISANGELA DARLANTONI RIBEIRO OFICIAL DO MP ATIVO ARAXÁ - COMARCA; ARAXA-PJ-05PJ 4.597,81 584,27 0,00 0,00 0,00 0,00 5.182,08 773,84 328,11 0,00 1.101,95 4.080,13 1.431,00 608,04 29/02/2016
816 604400 ELISANGELA DEMASI FERREIRA MOREIRA ANALISTA DO MP ATIVO CAXAMBU - COMARCA; CAXAMBU-PJ-UNPJ 5.842,66 0,00 0,00 0,00 0,00 0,00 5.842,66 642,69 560,63 0,00 1.203,32 4.639,34 1.431,00 0,00 29/02/2016
817 323800 ELISANGELA GONCALVES DE JESUS OFICIAL DO MP ATIVO BELO HORIZONTE - COMARCA; BH-09PJ AUDITORIA MILITAR-SECRETARIA 5.307,28 1.061,46 0,00 0,00 2.122,91 0,00 8.491,65 766,83 1.221,05 0,00 1.987,88 6.503,77 1.431,00 602,49 29/02/2016
818 261400 ELISANGELA MENDES OFICIAL DO MP ATIVO POUSO ALEGRE - COMARCA; POUSO ALEGRE-PJ-05PJ 6.857,79 1.371,56 0,00 0,00 0,00 0,00 8.229,35 990,88 1.144,77 0,00 2.135,65 6.093,70 799,00 778,62 29/02/2016
819 507400 ELISANGELA MIGUEL DA ROCHA SILVA ASSESSOR ATIVO BELO HORIZONTE - COMARCA; CGMP-DIVIS DE APOIO FISC ORIENTACAO FUNCIONAL 0,00 0,00 2.500,62 0,00 0,00 0,00 2.500,62 362,96 85,70 0,00 448,66 2.051,96 799,00 0,00 29/02/2016
820 534100 ELISANGELA ROSINE SILVA OFICIAL DO MP ATIVO UBERABA - COMARCA; UBERABA-PJ-06PJ 3.445,03 0,00 0,00 0,00 0,00 0,00 3.445,03 378,95 105,11 0,00 484,06 2.960,97 799,00 0,00 29/02/2016
821 634300 ELIUDE GRACA DAMASIO ROSARIO FRANCELINO OFICIAL DO MP ATIVO BELO HORIZONTE - COMARCA; EXTINTA-DEF DIREIT HUM-COMB A VIOL DOMEST-18 2.828,58 0,00 0,00 0,00 1.010,21 0,00 3.838,79 333,37 171,01 0,00 504,38 3.334,41 799,00 0,00 29/02/2016
822 461700 ELIZABETH ALEIXO DA PAZ ANALISTA DO MP ATIVO JUIZ DE FORA - COMARCA; JUIZ DE FORA-PJ-24PJ 7.435,23 743,52 0,00 0,00 0,00 0,00 8.178,75 1.076,73 1.132,39 0,00 2.209,12 5.969,63 799,00 1.609,77 29/02/2016
823 227300 ELIZABETH COIMBRA FELIX COORDENADOR/OFICIAL ATIVO BELO HORIZONTE - COMARCA; DIRETORIA DE PAGAMENTO DE PESSOAL-DPAG 8.727,00 4.539,58 0,00 0,00 0,00 0,00 13.266,58 1.247,96 2.279,35 0,00 3.527,31 9.739,27 799,00 0,00 29/02/2016
824 354800 ELIZABETH DOS REIS OFICIAL DO MP ATIVO BELO HORIZONTE - COMARCA; EXTINTA - DIVISÃO DE MATERIAL PERMANENTE 6.432,09 643,21 0,00 0,00 0,00 0,00 7.075,30 851,90 810,18 0,00 1.662,08 5.413,22 799,00 669,24 29/02/2016
825 612000 ELIZABETH MARIA DE QUEIROZ TANIGUCHI OFICIAL DO MP ATIVO BELO HORIZONTE - COMARCA; DIRET DE DESENV DE RECURSOS HUMANOS-DDRH 3.129,28 0,00 0,00 0,00 0,00 0,00 3.129,28 344,22 66,08 0,00 410,30 2.718,98 799,00 0,00 29/02/2016
826 452800 ELIZANGELA MARIA DAVI OFICIAL DO MP ATIVO ARCOS - COMARCA; ARCOS-PJ-01PJ 4.043,58 404,36 0,00 0,00 0,00 0,00 4.447,94 489,27 211,91 0,00 701,18 3.746,76 1.431,00 0,00 29/02/2016
827 496300 ELIZANGELA MARQUES PINTO COELHO OFICIAL DO MP ATIVO BELO HORIZONTE - COMARCA; DIRETORIA DE PESSOAL ADMINISTRATIVO - DPAD 3.769,78 280,13 0,00 0,00 0,00 0,00 4.049,91 843,72 171,03 0,00 1.014,75 3.035,16 1.431,00 2.721,18 29/02/2016
828 422500 ELIZETE FORTES DA CUNHA ANALISTA DO MP ATIVO RIBEIRÃO DAS NEVES - COMARCA; RIBEIRAO DAS NEVES-PJ-07PJ 6.867,60 872,70 0,00 0,00 0,00 0,00 7.740,30 1.155,87 916,69 0,00 2.072,56 5.667,74 1.431,00 908,16 29/02/2016
829 506100 ELLEM CRISTINA ROCHA FONSECA BOWEN ANALISTA DO MP ATIVO GOVERNADOR VALADARES - COMARCA; COORD REG PJ DEF EDU DIR CRIANCA ADOL RIODOCE 7.200,74 432,04 0,00 0,00 0,00 0,00 7.632,78 1.100,44 998,76 0,00 2.099,20 5.533,58 1.431,00 2.371,12 29/02/2016
830 468200 ELLEN CRISTINA BERNARDES DARE ANALISTA DO MP ATIVO TRÊS PONTAS - COMARCA; TRES PONTAS-PJ-02PJ 7.435,23 743,52 0,00 0,00 0,00 0,00 8.178,75 1.076,73 1.080,25 0,00 2.156,98 6.021,77 1.431,00 1.609,77 29/02/2016
831 418800 ELLEN CRISTINA DE QUEIROZ FERREIRA ANALISTA DO MP ATIVO BELO HORIZONTE - COMARCA; CENTRAL DE APOIO TECNICO-SETOR CONTABIL 8.451,80 845,18 0,00 0,00 3.098,99 0,00 12.395,97 1.022,67 2.258,30 0,00 3.280,97 9.115,00 1.431,00 0,00 29/02/2016
832 328401 ELLEN CRISTINA FERREIRA MORAIS MONTEIRO ANALISTA DO MP ATIVO CAMANDUCAIA - COMARCA; CAMANDUCAIA-PJ-UNPJ 8.451,80 845,18 0,00 0,00 0,00 0,00 9.296,98 1.022,67 1.301,80 0,00 2.324,47 6.972,51 1.431,00 0,00 29/02/2016
833 556100 ELLEN CRISTINE BIANCHIN DA SILVA OFICIAL DO MP ATIVO SÃO GONÇALO DO SAPUCAÍ - COMARCA; SAO GONCALO DO SAPUCAI-PJ-02PJ 3.445,03 0,00 0,00 0,00 0,00 0,00 3.445,03 378,95 44,50 0,00 423,45 3.021,58 799,00 0,00 29/02/2016
834 447100 ELLEN ROSANA DE MACEDO BORGES OFICIAL DO MP ATIVO UBERLÂNDIA - COMARCA; UBERLANDIA-PJ-17PJ 5.307,28 530,73 0,00 0,00 0,00 0,00 5.838,01 642,18 559,49 0,00 1.201,67 4.636,34 799,00 0,00 29/02/2016
835 477700 ELMA JACOB OFICIAL DO MP ATIVO BELO HORIZONTE - COMARCA; COORD DE GABINETE DO PGJ 5.139,92 3.597,94 0,00 0,00 0,00 961,16 9.699,02 1.300,40 1.533,55 0,00 2.833,95 6.865,07 799,00 3.423,18 29/02/2016
836 123300 ELMA PAULA DOS SANTOS COELHO OFICIAL DO MP ATIVO BELO HORIZONTE - COMARCA; BH-19PJ SAUDE-SECRETARIA 130PJ 11.643,70 9.314,96 0,00 0,00 0,00 2.305,45 23.264,11 2.305,45 4.894,27 0,00 7.199,72 16.064,39 799,00 0,00 29/02/2016
837 356500 ELOISA CARDOSO SILVA FRANCA OFICIAL DO MP ATIVO PEÇANHA - COMARCA; PECANHA-PJ-SECRETARIA 4.977,82 497,78 0,00 0,00 0,00 0,00 5.475,60 602,32 332,38 0,00 934,70 4.540,90 799,00 0,00 29/02/2016
838 251901 ELOISA COSTA E SILVA ANALISTA DO MP ATIVO SANTOS DUMONT - COMARCA; SANTOS DUMONT-PJ-02PJ 7.200,74 1.440,15 0,00 0,00 0,00 0,00 8.640,89 1.393,41 1.245,50 0,00 2.638,91 6.001,98 799,00 4.250,17 29/02/2016
839 400400 ELOIZA MARIA FERRI PIRES DA SILVA OFICIAL DO MP ATIVO BELO HORIZONTE - COMARCA; FEPDC-SECRETARIA EXECUTIVA 5.307,28 530,73 0,00 0,00 0,00 0,00 5.838,01 702,93 507,36 0,00 1.210,29 4.627,72 799,00 552,30 29/02/2016
840 258000 ELSO CECIANO PALMEIRA ASSESSOR/OFICIAL ATIVO BELO HORIZONTE - COMARCA; DIRET DE PESSOAL DO MINISTERIO PUBLICO - DPMP 0,00 4.225,90 8.451,80 0,00 0,00 0,00 12.677,70 1.226,81 2.175,36 0,00 3.402,17 9.275,53 799,00 0,00 29/02/2016
841 206900 ELVIRA RITA DOS SANTOS ANALISTA DO MP ATIVO BELO HORIZONTE - COMARCA; CENTRAL DE APOIO TECNICO-SETOR CONTABIL 15.298,25 4.589,48 0,00 0,00 6.629,24 2.187,65 28.704,62 2.354,29 6.422,81 0,00 8.777,10 19.927,52 799,00 1.681,50 29/02/2016
842 506800 ELVIS FERREIRA DA SILVA ANALISTA DO MP ATIVO BELO HORIZONTE - COMARCA; DIRETORIA DE SISTEMAS DE INFORMACAO 5.792,74 432,04 0,00 0,00 0,00 0,00 6.224,78 1.100,44 559,42 0,00 1.659,86 4.564,92 799,00 2.371,12 29/02/2016
843 602400 ELZA MARIA MOREIRA MUNIZ ANALISTA DO MP ATIVO CARMO DO PARANAÍBA - COMARCA; CARMO DO PARANAIBA-PJ-02PJ 5.842,66 0,00 0,00 0,00 0,00 0,00 5.842,66 878,26 560,63 0,00 1.438,89 4.403,77 799,00 2.141,52 29/02/2016
844 368401 ELZIRA SIMOES DOS SANTOS ASSESSOR ATIVO BELO HORIZONTE - COMARCA; DIRETORIA DE RELACOES PUBLICAS E CERIMONIAL 0,00 1.860,89 9.304,45 0,00 0,00 0,00 11.165,34 570,88 2.263,84 0,00 2.834,72 8.330,62 799,00 0,00 29/02/2016
845 437400 EMANOELLE DA SILVA RODRIGUES OFICIAL DO MP ATIVO UNAÍ - COMARCA; UNAI-PJ-03PJ 5.307,28 530,73 0,00 0,00 0,00 0,00 5.838,01 642,18 507,36 0,00 1.149,54 4.688,47 799,00 0,00 29/02/2016
846 458900 EMANUELLE CONRAD SILVA FREDERICO ANALISTA DO MP ATIVO ALFENAS - COMARCA; ALFENAS-PJ-05PJ 7.435,23 743,52 0,00 0,00 0,00 0,00 8.178,75 1.135,75 1.132,39 0,00 2.268,14 5.910,61 3.951,54 2.435,34 29/02/2016
847 284100 EMERSON MAGNO ALMEIDA PEDROSA DA FONSECA ANALISTA DO MP ATIVO BELO HORIZONTE - COMARCA; CENTRAL DE APOIO TECNICO-SETOR CONTABIL 11.643,70 2.328,74 0,00 0,00 0,00 0,00 13.972,44 2.100,38 1.546,08 0,00 3.646,46 10.325,98 799,00 5.121,92 29/02/2016
848 179900 EMERSON MORAIS DIAS OFICIAL DO MP ATIVO BELO HORIZONTE - COMARCA; EXTINTA - DIVISÃO DE APOIO À LICITAÇÃO 7.579,95 3.072,95 0,00 0,00 0,00 0,00 10.652,90 1.464,77 1.657,38 0,00 3.122,15 7.530,75 799,00 0,00 29/02/2016
849 488700 EMERSON SIQUEIRA DE SOUSA TEIXEIRA ANALISTA DO MP ATIVO TARUMIRIM - COMARCA; TARUMIRIM-PJ-UNPJ 7.200,74 432,04 0,00 0,00 0,00 0,00 7.632,78 839,61 842,35 0,00 1.681,96 5.950,82 2.063,00 0,00 29/02/2016
850 194200 EMILIA ALVES FERREIRA RAMOS OFICIAL DO MP ATIVO UBERLÂNDIA - COMARCA; UBERLANDIA-PJ-SEC FAMILIA 5.307,28 1.592,18 0,00 0,00 0,00 0,00 6.899,46 830,74 715,01 0,00 1.545,75 5.353,71 799,00 652,71 29/02/2016
851 123400 EMILIO CARLOS MARTINS OFICIAL DO MP ATIVO AREADO - COMARCA; AREADO-PJ-UNPJ 12.022,83 9.618,26 0,00 0,00 7.213,70 0,00 28.854,79 2.680,79 6.358,93 0,00 9.039,72 19.815,07 4.861,81 3.102,14 29/02/2016
852 549300 EMILIO VIEIRA SILVA ASSESSOR ATIVO BELO HORIZONTE - COMARCA; EXTINTA - DIVISAO DE TRANSPORTES 0,00 0,00 2.500,62 0,00 0,00 0,00 2.500,62 362,96 85,70 0,00 448,66 2.051,96 799,00 0,00 29/02/2016
853 620700 EMILY FONTANA DE SIQUEIRA ANALISTA DO MP ATIVO BELO HORIZONTE - COMARCA; BH-18PJ VIOLENCIA DOMESTICA 5.307,28 0,00 0,00 0,00 0,00 0,00 5.307,28 694,26 429,60 0,00 1.123,86 4.183,42 799,00 1.059,95 29/02/2016
854 297000 ENEIDA SOARES COSTA MELO ANALISTA DO MP ATIVO PIUMHI - COMARCA; PIUMHI-PJ-01PJ 11.643,70 2.328,74 0,00 0,00 0,00 0,00 13.972,44 2.100,38 2.550,39 0,00 4.650,77 9.321,67 799,00 5.121,92 29/02/2016
855 276000 ENEZIO RODRIGUES DE SOUZA FILHO OFICIAL DO MP ATIVO UBERLÂNDIA - COMARCA; UBERLANDIA-PJ-02PJ 6.973,67 1.394,73 0,00 0,00 0,00 0,00 8.368,40 1.358,96 1.178,81 0,00 2.537,77 5.830,63 799,00 4.118,76 29/02/2016
856 387700 ENI MARIA DOS REIS OFICIAL DO MP ATIVO POUSO ALEGRE - COMARCA; POUSO ALEGRE-PJ-04PJ 6.032,93 1.778,11 0,00 0,00 0,00 0,00 7.811,04 930,68 1.025,79 0,00 1.956,47 5.854,57 799,00 1.824,51 29/02/2016
857 605100 ENIA MAIA ASSESSOR/OFICIAL ATIVO BELO HORIZONTE - COMARCA; DIRETORIA DE ORCAMENTO-DIOR/SPC 0,00 0,00 6.898,72 0,00 0,00 0,00 6.898,72 493,64 913,06 0,00 1.406,70 5.492,02 799,00 695,08 29/02/2016
858 612200 ENILDO GOMES MEIRA FILHO ANALISTA DO MP ATIVO BUENÓPOLIS - COMARCA; BUENOPOLIS-PJ-UNPJ 5.307,28 0,00 0,00 0,00 0,00 0,00 5.307,28 904,80 341,34 0,00 1.246,14 4.061,14 1.431,00 2.918,22 29/02/2016
859 553700 ENIVALDO NOVATO PUBLIO ANALISTA DO MP ATIVO DIVINÓPOLIS - COMARCA; DIVINOPOLIS-PJ-09PJ 5.258,39 0,00 0,00 0,00 0,00 0,00 5.258,39 642,69 359,74 0,00 1.002,43 4.255,96 799,00 0,00 29/02/2016
860 417300 ERIC BARATTI DA SILVA ANALISTA DO MP ATIVO PRATA - COMARCA; PRATA-PJ-UNPJ 7.677,29 767,73 0,00 0,00 0,00 0,00 8.445,02 987,53 1.197,56 0,00 2.185,09 6.259,93 799,00 621,30 29/02/2016
861 637600 ERIC DA ROCHA CHEHUEN ANALISTA DO MP ATIVO LIMA DUARTE - COMARCA; LIMA DUARTE-PJ-UNPJ 5.139,92 0,00 0,00 0,00 0,00 0,00 5.139,92 759,70 393,14 0,00 1.152,84 3.987,08 799,00 1.766,44 29/02/2016
862 398900 ERIC TEIXEIRA SILVA OFICIAL DO MP ATIVO UBERLÂNDIA - COMARCA; UBERLANDIA-PJ-08PJ 5.842,66 584,27 0,00 0,00 0,00 0,00 6.426,93 773,84 703,63 0,00 1.477,47 4.949,46 799,00 608,04 29/02/2016
863 274200 ERICA DE SOUZA ANDRADE OFICIAL DO MP ATIVO CURVELO - COMARCA; CURVELO-PJ-05PJ 6.973,67 1.394,73 0,00 0,00 0,00 0,00 8.368,40 920,52 1.126,67 0,00 2.047,19 6.321,21 799,00 0,00 29/02/2016
864 225700 ERICA GOMES DO COUTO OFICIAL DO MP ATIVO BELO HORIZONTE - COMARCA; CAO-TS-TERCEIRO SETOR-SECRETARIA 6.916,60 1.802,22 0,00 0,00 0,00 0,00 8.718,82 1.301,96 1.201,21 0,00 2.503,17 6.215,65 799,00 1.022,70 29/02/2016
865 632600 ERICA LEONOR MARTINS OFICIAL DO MP ATIVO RESENDE COSTA - COMARCA; RESENDE COSTA-PJ-UNPJ 3.030,62 0,00 0,00 0,00 0,00 0,00 3.030,62 333,37 59,49 0,00 392,86 2.637,76 799,00 0,00 29/02/2016
866 524800 ERICA MACHADO DA COSTA E SOUZA ANALISTA DO MP ATIVO BELO HORIZONTE - COMARCA; PROC JUST RECURSOS ESP E EXTRAORD CRIMINAIS 5.233,51 398,49 0,00 0,00 0,00 0,00 5.632,00 774,40 466,48 0,00 1.240,88 4.391,12 799,00 0,00 29/02/2016
867 249500 ERICA RODRIGUES ANDRADE OFICIAL DO MP ATIVO SÃO FRANCISCO - COMARCA; SAO FRANCISCO-PJ-02PJ 5.205,74 1.131,68 0,00 0,00 0,00 0,00 6.337,42 746,91 615,89 0,00 1.362,80 4.974,62 1.431,00 0,00 29/02/2016
868 260800 ERICA VIANA GIARDINI DE OLIVEIRA OFICIAL DO MP ATIVO BELO HORIZONTE - COMARCA; EXTINTA - DIVISÃO DE COMPRAS 6.003,61 1.535,46 0,00 0,00 0,00 0,00 7.539,07 1.384,91 925,20 0,00 2.310,11 5.228,96 799,00 3.377,36 29/02/2016
869 299800 ERICH DOUGLAS RIBEIRO GARCIA ANALISTA DO MP ATIVO BELO HORIZONTE - COMARCA; CENTRAL DE APOIO TECNICO-SETOR CONTABIL 8.038,24 2.115,33 0,00 0,00 0,00 0,00 10.153,57 1.396,12 1.538,94 0,00 2.935,06 7.218,51 799,00 0,00 29/02/2016
870 365000 ERICK EDUARDO JOSE DA SILVA OFICIAL DO MP ATIVO SANTOS DUMONT - COMARCA; SANTOS DUMONT-PJ-02PJ 3.882,70 497,78 0,00 0,00 0,00 0,00 4.380,48 602,32 213,96 0,00 816,28 3.564,20 799,00 0,00 29/02/2016
871 123500 ERICO SEGISMUNDO LIMA VILASBOAS ANALISTA DO MP ATIVO MONTES CLAROS - COMARCA; COORD REG PJ DEF EDUC DIR CRIANCA ADOL NORTE 15.298,25 13.768,43 0,00 0,00 0,00 3.197,33 32.264,01 3.197,33 6.915,43 0,00 10.112,76 22.151,25 799,00 0,00 29/02/2016
872 227400 ERIKA DE LAET GOULART BOECHAT ASSESSOR/OFICIAL ATIVO BELO HORIZONTE - COMARCA; ASSESSORIA ESPECIAL DO PGJ 9.011,08 3.850,86 0,00 0,00 0,00 0,00 12.861,94 1.301,96 2.288,43 0,00 3.590,39 9.271,55 1.431,00 1.022,70 29/02/2016
873 451800 ERIKA DELLARETTI GUIMARAES OFICIAL DO MP ATIVO LAVRAS - COMARCA; LAVRAS-PJ-SECRETARIA 4.241,01 424,10 0,00 0,00 0,00 0,00 4.665,11 513,16 255,40 0,00 768,56 3.896,55 799,00 0,00 29/02/2016
874 285100 ERIKA FERREIRA DA SILVA OFICIAL DO MP ATIVO JUIZ DE FORA - COMARCA; JUIZ DE FORA-PJ-14PJ 5.299,99 1.394,73 0,00 0,00 0,00 0,00 6.694,72 920,52 718,55 0,00 1.639,07 5.055,65 799,00 0,00 29/02/2016
875 420100 ERIKA JEANINE VERSIANI DE CASTRO ANALISTA DO MP ATIVO MONTES CLAROS - COMARCA; COORD REG PJ DEF EDUC DIR CRIANCA ADOL NORTE 8.407,01 872,70 0,00 0,00 0,00 0,00 9.279,71 1.055,97 1.340,03 0,00 2.396,00 6.883,71 799,00 0,00 29/02/2016
876 606900 ERIKA MARIA BARBOSA ANALISTA DO MP ATIVO BELO HORIZONTE - COMARCA; CAO-SAUDE 5.307,28 0,00 0,00 0,00 1.769,09 0,00 7.076,37 583,80 863,96 0,00 1.447,76 5.628,61 1.431,00 0,00 29/02/2016
877 491000 ERIKA ROCHA BARRETO ANALISTA DO MP ATIVO BELO HORIZONTE - COMARCA; DIRETORIA DE SISTEMAS DE INFORMACAO 5.674,18 432,04 0,00 0,00 0,00 0,00 6.106,22 839,61 578,96 0,00 1.418,57 4.687,65 799,00 0,00 29/02/2016
878 283201 ERIKA STEHLING ANALISTA DO MP ATIVO BELO HORIZONTE - COMARCA; CENTRAL DE APOIO TECNICO-SETOR DE ENGENHARIA 5.408,96 432,04 0,00 0,00 0,00 0,00 5.841,00 888,23 523,31 0,00 1.411,54 4.429,46 799,00 490,66 29/02/2016
879 383500 ERIKO RODRIGUES VELOSO ANALISTA DO MP ATIVO BOCAIÚVA - COMARCA; BOCAIUVA-PJ-01PJ 7.435,23 743,52 0,00 0,00 0,00 0,00 8.178,75 984,78 1.132,39 0,00 2.117,17 6.061,58 799,00 773,82 29/02/2016
880 254000 ERLANDIA DA SILVA MENDES OFICIAL DO MP ATIVO IPATINGA - COMARCA; IPATINGA-PJ-03PJ 7.435,23 2.230,57 0,00 0,00 0,00 0,00 9.665,80 1.163,83 1.339,93 0,00 2.503,76 7.162,04 799,00 914,52 29/02/2016
881 208600 ERNANE JOSE DA COSTA ANALISTA DO MP ATIVO BELO HORIZONTE - COMARCA; CENTRAL DE APOIO TECNICO-SETOR MEDICO 15.298,25 10.708,78 0,00 0,00 0,00 0,00 26.007,03 3.078,67 5.495,86 0,00 8.574,53 17.432,50 799,00 1.980,98 29/02/2016
882 260600 ERNANI CALDEIRA DE ANDRADE ANALISTA DO MP ATIVO BELO HORIZONTE - COMARCA; CENTRAL DE APOIO TECNICO-SETOR CONTABIL 9.804,29 2.519,76 0,00 0,00 0,00 0,00 12.324,05 2.167,32 2.062,42 0,00 4.229,74 8.094,31 799,00 4.584,40 29/02/2016
883 348500 ERNILANDIA OLIVEIRA DIAS OFICIAL DO MP ATIVO BELO HORIZONTE - COMARCA; EXTINTA - JUIZO DE FAMILIA-02 PJ-02 VARA 4.274,44 548,01 0,00 0,00 2.009,35 0,00 6.831,80 663,09 827,04 0,00 1.490,13 5.341,67 799,00 0,00 29/02/2016
884 199300 ERTON PORTINARI DE ANDRADE OFICIAL DO MP ATIVO SETE LAGOAS - COMARCA; SETE LAGOAS-PJ-01PJ 9.920,24 2.976,07 0,00 0,00 0,00 0,00 12.896,31 1.808,62 2.182,74 0,00 3.991,36 8.904,95 799,00 3.545,73 29/02/2016
885 430400 ESDRAS SOARES VILAS BOAS RIBEIRO OFICIAL DO MP ATIVO BELO HORIZONTE - COMARCA; BH-17PJ PATRIMONIO PUBLICO-SECRETARIA 5.307,28 530,73 0,00 0,00 0,00 0,00 5.838,01 642,18 559,49 0,00 1.201,67 4.636,34 799,00 0,00 29/02/2016
886 618800 ESLY DE CARLA AYALLA BARBOSA MENDES OFICIAL DO MP ATIVO ITABIRITO - COMARCA; ITABIRITO-PJ-01PJ 3.129,28 0,00 0,00 0,00 0,00 0,00 3.129,28 344,22 66,08 0,00 410,30 2.718,98 799,00 0,00 29/02/2016
887 537000 ESTANISLAU CORREIA ALMEIDA JUNIOR OFICIAL DO MP ATIVO UBERLÂNDIA - COMARCA; UBERLANDIA-PJ-25PJ 3.445,03 0,00 0,00 0,00 0,00 0,00 3.445,03 378,95 105,11 0,00 484,06 2.960,97 799,00 0,00 29/02/2016
888 326900 ESTER ALICE PIMENTA OFICIAL DO MP ATIVO BELO HORIZONTE - COMARCA; COORD DE INCLUSAO E MOBILIZACAO SOCIAIS 6.641,51 1.328,30 0,00 0,00 0,00 0,00 7.969,81 961,02 1.029,11 0,00 1.990,13 5.979,68 799,00 766,74 29/02/2016
889 503700 ESTHER GONCALVES FONSECA ANALISTA DO MP ATIVO BELO HORIZONTE - COMARCA; DIRETORIA DE PUBLICIDADE INSTITUCIONAL 4.871,16 361,98 0,00 0,00 0,00 0,00 5.233,14 1.025,77 383,05 0,00 1.408,82 3.824,32 799,00 2.930,25 29/02/2016
890 475600 ETIENE DE FATIMA OLIVEIRA PEREIRA ANALISTA DO MP ATIVO PATROCÍNIO - COMARCA; PATROCINIO-PJ-04PJ 5.908,67 743,52 0,00 0,00 0,00 0,00 6.652,19 954,34 608,31 0,00 1.562,65 5.089,54 1.431,00 497,12 29/02/2016
891 428800 EUGENIA RODRIGUES TRAJANO BORGES ANALISTA DO MP ATIVO UBERABA - COMARCA; UBERABA-PJ-08PJ 8.451,80 845,18 0,00 0,00 0,00 0,00 9.296,98 1.022,67 1.406,08 0,00 2.428,75 6.868,23 799,00 0,00 29/02/2016
892 272700 EUGENIO DE BARCELOS FILHO OFICIAL DO MP ATIVO FRUTAL - COMARCA; FRUTAL-PJ-02PJ 6.032,93 1.206,59 0,00 0,00 2.413,17 0,00 9.652,69 1.015,29 1.514,00 0,00 2.529,29 7.123,40 799,00 1.990,38 29/02/2016
893 254100 EULALIA ALVES MIRANDA LUCAS OFICIAL DO MP ATIVO ALMENARA - COMARCA; ALMENARA-PJ-SECRETARIA 5.299,99 2.334,59 0,00 0,00 0,00 0,00 7.634,58 920,52 872,73 0,00 1.793,25 5.841,33 799,00 0,00 29/02/2016
894 615500 EUNICE BARBOSA PINTO OFICIAL DO MP ATIVO RIBEIRÃO DAS NEVES - COMARCA; RIBEIRAO DAS NEVES-PJ-SEC CRIMINAL 3.445,03 0,00 0,00 0,00 0,00 0,00 3.445,03 378,95 105,11 0,00 484,06 2.960,97 799,00 0,00 29/02/2016
895 641200 EUNICE ELVIRA DA SILVA MATOS OFICIAL DO MP ATIVO BELO HORIZONTE - COMARCA; BH-14PJ DEFESA CONSUMIDOR-SECRETARIA 3.030,62 0,00 0,00 0,00 0,00 0,00 3.030,62 333,37 59,49 0,00 392,86 2.637,76 799,00 0,00 29/02/2016
896 557900 EURIPEDES JUSUE PERES OFICIAL DO MP ATIVO IBIÁ - COMARCA; IBIA-PJ-UNPJ 3.445,03 0,00 0,00 0,00 0,00 0,00 3.445,03 587,34 105,11 0,00 692,45 2.752,58 799,00 1.894,50 29/02/2016
897 225800 EURO CESAR VIEIRA BARBOSA ANALISTA DO MP ATIVO BELO HORIZONTE - COMARCA; BH-17PJ PATRIMONIO PUBLICO 13.616,17 4.084,85 0,00 0,00 0,00 0,00 17.701,02 2.243,75 3.358,69 0,00 5.602,44 12.098,58 799,00 2.696,76 29/02/2016
898 199400 EUSTAQUIO ADAILTON LIMA E SILVA OFICIAL DO MP ATIVO MANGA - COMARCA; MANGA-PJ-01PJ 9.920,24 4.960,12 0,00 0,00 0,00 0,00 14.880,36 1.636,84 2.564,06 0,00 4.200,90 10.679,46 799,00 0,00 29/02/2016
899 249000 EUSTAQUIO GOMES DE OLIVEIRA OFICIAL DO MP ATIVO BELO HORIZONTE - COMARCA; CAO-TS-CONTROLADORIA E APOIO AS ENTIDADES  7.677,29 3.070,92 0,00 0,00 0,00 1.182,30 11.930,51 1.615,73 2.342,36 0,00 3.958,09 7.972,42 799,00 4.871,04 29/02/2016
900 67100 EVA DAS DORES BARROS VALGAS ANALISTA DO MP ATIVO FERROS - COMARCA; FERROS-PJ-SECRETARIA 15.298,25 10.708,79 0,00 0,00 0,00 2.860,77 28.867,81 2.860,77 6.178,30 0,00 9.039,07 19.828,74 799,00 0,00 29/02/2016
901 548000 EVA VILMA LEAO DOS REIS JULIO OFICIAL DO MP ATIVO BELO HORIZONTE - COMARCA; BH-07PJ 01 TRIBUNAL JURI-SECRETARIA 3.792,57 1.137,77 0,00 0,00 1.643,45 0,00 6.573,79 625,78 789,29 0,00 1.415,07 5.158,72 799,00 758,52 29/02/2016
902 517000 EVALDO SENA COSTA FILHO ANALISTA DO MP ATIVO CONTAGEM - COMARCA; CONTAGEM-PJ-15PJ 7.200,74 2.160,22 0,00 0,00 0,00 0,00 9.360,96 1.177,35 1.265,32 0,00 2.442,67 6.918,29 4.861,81 1.714,58 29/02/2016
903 217500 EVELANGE LEAO RABELO ASSESSOR ATIVO BELO HORIZONTE - COMARCA; COORD EST DEF DIR FAMILIA PESSOA DEFICI IDOSO 0,00 750,19 2.500,62 0,00 0,00 0,00 3.250,81 445,48 185,85 0,00 631,33 2.619,48 799,00 0,00 29/02/2016
904 540400 EVIE SARAMELLA DE RESENDE OFICIAL DO MP ATIVO BARBACENA - COMARCA; BARBACENA-PJ-05PJ 3.445,03 0,00 0,00 0,00 0,00 0,00 3.445,03 378,95 105,11 0,00 484,06 2.960,97 799,00 0,00 29/02/2016
905 469000 EWERTON CARDOSO DE SA RODRIGUES ANALISTA DO MP ATIVO CAMPO BELO - COMARCA; CAMPO BELO-PJ-01PJ 7.435,23 743,52 0,00 0,00 0,00 0,00 8.178,75 1.076,73 1.080,25 0,00 2.156,98 6.021,77 799,00 1.609,77 29/02/2016
906 368900 FABIANA BARBOSA SIQUEIRA OFICIAL DO MP ATIVO BELO HORIZONTE - COMARCA; CAO-ORDEM ECONOMICA E TRIBUTARIA-SECRETARIA 4.858,85 622,93 0,00 0,00 2.284,07 0,00 7.765,85 753,74 1.006,83 0,00 1.760,57 6.005,28 1.431,00 0,00 29/02/2016
907 273800 FABIANA CARNEIRO AMORIM OFICIAL DO MP ATIVO BELO HORIZONTE - COMARCA; BH-23PJ INFRACIONAL-COORD ADM INFRACIONAL 7.435,23 1.487,05 0,00 0,00 0,00 0,00 8.922,28 1.077,03 1.449,03 0,00 2.526,06 6.396,22 799,00 964,45 29/02/2016
908 519300 FABIANA DE OLIVEIRA LOUREIRO ANALISTA DO MP ATIVO BELO HORIZONTE - COMARCA; BH-09PJ AUDITORIA MILITAR 7.200,74 432,04 0,00 0,00 0,00 0,00 7.632,78 839,61 998,76 0,00 1.838,37 5.794,41 1.431,00 0,00 29/02/2016
909 363400 FABIANA DOURADO DUPIN VIEGAS ANALISTA DO MP ATIVO BELO HORIZONTE - COMARCA; GABINETE DE PROCURADOR DE JUSTIÇA - SALA 705 10.243,18 1.024,32 0,00 0,00 0,00 0,00 11.267,50 1.356,66 1.836,22 0,00 3.192,88 8.074,62 1.431,00 1.065,69 29/02/2016
910 410800 FABIANA DUARTE QUITITE ANALISTA DO MP ATIVO BELO HORIZONTE - COMARCA; EXTINTA-MEIO AMB PATRIM HIST CULTURAL-15PJGAB 8.727,00 872,70 0,00 0,00 0,00 0,00 9.599,70 1.164,59 1.721,85 0,00 2.886,44 6.713,26 799,00 987,48 29/02/2016
911 419500 FABIANA EULALIA DOS SANTOS ANALISTA DO MP ATIVO SÃO JOÃO DEL REI - COMARCA; SAO JOAO DEL REI-PJ-01PJ 6.867,60 872,70 0,00 0,00 0,00 0,00 7.740,30 1.155,87 968,83 0,00 2.124,70 5.615,60 799,00 908,16 29/02/2016
912 376300 FABIANA MATTOSO LEMOS ANALISTA DO MP ATIVO BELO HORIZONTE - COMARCA; COORD-GERAL DAS PJS POR BACIA HIDRO. DE MG 9.011,08 901,11 0,00 0,00 3.304,06 0,00 13.216,25 1.090,34 2.465,27 0,00 3.555,61 9.660,64 799,00 0,00 29/02/2016
913 331500 FABIANA PACHECO OFICIAL DO MP ATIVO GUAXUPÉ - COMARCA; GUAXUPE-PJ-01PJ 6.432,09 1.286,42 0,00 0,00 0,00 0,00 7.718,51 929,35 915,47 0,00 1.844,82 5.873,69 799,00 730,08 29/02/2016
914 510700 FABIANA PEREIRA SANTOS BORGES ANALISTA DO MP ATIVO BELO HORIZONTE - COMARCA; DIRETORIA DE SISTEMAS DE INFORMACAO 7.200,74 432,04 0,00 0,00 0,00 0,00 7.632,78 1.035,23 946,62 0,00 1.981,85 5.650,93 1.431,00 1.778,34 29/02/2016
915 181700 FABIANA SOUZA FERREIRA OFICIAL DO MP ATIVO BELO HORIZONTE - COMARCA; BH-19PJ SAUDE-SECRETARIA 150PJ 4.977,82 1.493,35 0,00 0,00 0,00 0,00 6.471,17 711,83 610,18 0,00 1.322,01 5.149,16 1.431,00 0,00 29/02/2016
916 272900 FABIANA STOCKLER LEITE OFICIAL DO MP ATIVO LAJINHA - COMARCA; LAJINHA-PJ-SECRETARIA 6.973,67 2.789,47 0,00 0,00 3.254,38 0,00 13.017,52 1.127,49 2.310,85 0,00 3.438,34 9.579,18 1.431,00 486,69 29/02/2016
917 225500 FABIANE DE FATIMA PORTELLA ANALISTA DO MP ATIVO BELO HORIZONTE - COMARCA; SERVICO MEDICO-DEPTO PERIC MEDICA SAUDE OCUP 13.097,56 2.619,51 0,00 0,00 0,00 0,00 15.717,07 1.992,24 2.977,39 0,00 4.969,63 10.747,44 799,00 2.394,16 29/02/2016
918 433800 FABIANE DINIZ MATTOS ANALISTA DO MP ATIVO BELO HORIZONTE - COMARCA; BH-23PJ INFRACIONAL-ASS JURIDICA 8.727,00 872,70 0,00 0,00 0,00 0,00 9.599,70 1.266,20 1.721,85 0,00 2.988,05 6.611,65 799,00 1.911,18 29/02/2016
919 455000 FABIANO CARVALHO DA SILVA ANALISTA DO MP ATIVO LAVRAS - COMARCA; COORD REG DO MA DA BACIA DO RIO GRANDE 5.799,48 743,52 0,00 0,00 0,00 0,00 6.543,00 899,66 682,56 0,00 1.582,22 4.960,78 799,00 0,00 29/02/2016
920 498800 FABIANO FURTADO PESSOA COELHO ANALISTA DO MP ATIVO BELO HORIZONTE - COMARCA; DIRETORIA DE REDES E BANCOS DE DADOS 7.200,74 432,04 0,00 0,00 0,00 0,00 7.632,78 1.230,85 946,62 0,00 2.177,47 5.455,31 1.431,00 3.754,27 29/02/2016
921 394600 FABIANO PALHARES SILVA ANALISTA DO MP ATIVO BELO HORIZONTE - COMARCA; CENTRAL DE APOIO TECN-SETOR DE MEIO AMBIENTE 7.091,14 901,11 0,00 0,00 0,00 0,00 7.992,25 1.193,46 976,53 0,00 2.169,99 5.822,26 1.431,00 937,47 29/02/2016
922 444400 FABIANO SARAIVA MEDEIROS ANALISTA DO MP ATIVO BETIM - COMARCA; BETIM-PJ-11PJ 8.185,27 818,53 0,00 0,00 3.001,27 0,00 12.005,07 1.171,92 2.055,39 0,00 3.227,31 8.777,76 2.063,00 1.650,08 29/02/2016
923 408700 FABIANO SOARES PORTILHO ANALISTA DO MP ATIVO VIÇOSA - COMARCA; VICOSA-PJ-02PJ 6.867,60 872,70 0,00 0,00 0,00 0,00 7.740,30 1.155,87 968,83 0,00 2.124,70 5.615,60 799,00 908,16 29/02/2016
924 442600 FABIO CARVALHO VIEIRA ANALISTA DO MP ATIVO MONTES CLAROS - COMARCA; MONTES CLAROS-PJ-06PJ 4.858,85 622,93 0,00 0,00 0,00 0,00 5.481,78 753,74 430,85 0,00 1.184,59 4.297,19 799,00 0,00 29/02/2016
925 123700 FABIO JOSE ANDRADE NOGUEIRA OFICIAL DO MP ATIVO FORMIGA - COMARCA; FORMIGA-PJ-SECRETARIA 8.185,27 6.548,22 0,00 0,00 0,00 0,00 14.733,49 1.620,68 1.595,29 0,00 3.215,97 11.517,52 799,00 0,00 29/02/2016
926 240101 FABIO JUNQUEIRA DE ASSIS FONSECA OFICIAL DO MP ATIVO BELO HORIZONTE - COMARCA; DIRET DE DESENV DE RECURSOS HUMANOS-DDRH 5.297,53 548,01 0,00 0,00 0,00 0,00 5.845,54 845,40 555,81 0,00 1.401,21 4.444,33 799,00 1.657,35 29/02/2016
927 271500 FABIO LUIZ VIEIRA OFICIAL DO MP ATIVO SANTA VITÓRIA - COMARCA; SANTA VITORIA-PJ-UNPJ 7.200,74 1.440,15 0,00 0,00 0,00 0,00 8.640,89 950,50 1.141,22 0,00 2.091,72 6.549,17 889,40 0,00 29/02/2016
928 213100 FABIO PRATES GONCALVES ASSESSOR ATIVO BELO HORIZONTE - COMARCA; DIRETORIA DE RELACOES PUBLICAS E CERIMONIAL 0,00 1.992,45 6.641,51 0,00 0,00 0,00 8.633,96 570,88 1.411,30 0,00 1.982,18 6.651,78 1.431,00 0,00 29/02/2016
929 436700 FABIO SANTIAGO DE CARVALHO OFICIAL DO MP ATIVO POÇO FUNDO - COMARCA; POCO FUNDO-PJ-UNPJ 5.480,05 548,01 0,00 0,00 2.009,35 0,00 8.037,41 725,81 1.158,58 0,00 1.884,39 6.153,02 799,00 570,15 29/02/2016
930 208400 FABIOLA DE SOUSA CARDOSO ASSESSOR/ANALISTA ATIVO BELO HORIZONTE - COMARCA; ASSESS TECNICA DA CORREGEDORIA-GERAL DO MP 15.298,25 6.638,12 0,00 0,00 0,00 0,00 21.936,37 2.520,92 4.561,54 0,00 7.082,46 14.853,91 799,00 3.029,72 29/02/2016
931 392200 FABIOLA LEROY COSTA ANALISTA DO MP ATIVO ESMERALDAS - COMARCA; ESMERALDAS-PJ-01PJ 7.677,29 767,73 0,00 0,00 0,00 0,00 8.445,02 928,95 1.197,56 0,00 2.126,51 6.318,51 799,00 0,00 29/02/2016
932 409000 FABIOLA MONTEIRO DE CARVALHO CASTRO ANALISTA DO MP ATIVO BOM SUCESSO - COMARCA; BOM SUCESSO-PJ-UNPJ 8.185,27 818,53 0,00 0,00 0,00 0,00 9.003,80 990,42 1.334,32 0,00 2.324,74 6.679,06 799,00 0,00 29/02/2016
933 227900 FABIOLA PIMENTA DE CARVALHO OFICIAL DO MP ATIVO MONTES CLAROS - COMARCA; COORD REG BACIA RIOS VERDE GRANDE E PARDO 6.432,09 1.286,42 0,00 0,00 0,00 0,00 7.718,51 929,35 967,61 0,00 1.896,96 5.821,55 799,00 730,08 29/02/2016
934 525800 FABRICIA ALVES DANTAS OFICIAL DO MP ATIVO MONTES CLAROS - COMARCA; MONTES CLAROS-PJ-01PJ 4.241,01 254,46 0,00 0,00 0,00 0,00 4.495,47 494,50 188,47 0,00 682,97 3.812,50 799,00 0,00 29/02/2016
935 263400 FABRICIA PINTO TEIXEIRA SANTIAGO OFICIAL DO MP ATIVO BELO HORIZONTE - COMARCA; CAO-TS-TERCEIRO SETOR-SECRETARIA 7.677,29 1.535,46 0,00 0,00 3.070,92 0,00 12.283,67 1.384,91 2.125,69 0,00 3.510,60 8.773,07 1.431,00 3.658,81 29/02/2016
936 420800 FABRICIO BERNARDES DE OLIVEIRA OFICIAL DO MP ATIVO ITURAMA - COMARCA; ITURAMA-PJ-02PJ 4.312,45 548,01 0,00 0,00 0,00 0,00 4.860,46 725,81 265,62 0,00 991,43 3.869,03 820,60 570,15 29/02/2016
937 474000 FABRICIO DE FREITAS SALES ANALISTA DO MP ATIVO MONTES CLAROS - COMARCA; COORD REG PATRI PUB ORD TRIB-NORTE MINAS 5.908,67 743,52 0,00 0,00 0,00 0,00 6.652,19 954,34 712,59 0,00 1.666,93 4.985,26 1.431,00 497,12 29/02/2016
938 510100 FABRICIO FURTADO ASSIS DO CARMO ANALISTA DO MP ATIVO BELO HORIZONTE - COMARCA; SERVICO MEDICO-DEPTO PERIC MEDICA SAUDE OCUP 6.641,51 1.181,70 0,00 0,00 0,00 0,00 7.823,21 1.058,24 1.069,06 0,00 2.127,30 5.695,91 799,00 2.580,36 29/02/2016
939 519600 FABRICIO GONTIJO SALVATI ANALISTA DO MP ATIVO JUIZ DE FORA - COMARCA; JUIZ DE FORA-PJ-13PJ 5.792,74 432,04 0,00 0,00 0,00 0,00 6.224,78 839,61 611,56 0,00 1.451,17 4.773,61 799,00 0,00 29/02/2016
940 637400 FABRICIO HENRIQUE DA SILVA PASSOS ANALISTA DO MP ATIVO BELO HORIZONTE - COMARCA; DIRETORIA DE PUBLICIDADE INSTITUCIONAL 4.111,94 0,00 0,00 0,00 0,00 0,00 4.111,94 565,39 177,18 0,00 742,57 3.369,37 799,00 0,00 29/02/2016
941 428200 FABRICIO ORZIL VIANA ANALISTA DO MP ATIVO SANTA LUZIA - COMARCA; SANTA LUZIA-PJ-04PJ 7.435,23 743,52 0,00 0,00 0,00 0,00 8.178,75 899,66 1.132,39 0,00 2.032,05 6.146,70 799,00 0,00 29/02/2016
942 455600 FABRICIO PAIVA DA ROCHA ANALISTA DO MP ATIVO SÃO JOÃO DEL REI - COMARCA; SAO JOAO DEL REI-PJ-06PJ 7.435,23 743,52 0,00 0,00 0,00 0,00 8.178,75 1.253,81 1.080,25 0,00 2.334,06 5.844,69 799,00 3.494,41 29/02/2016
943 511500 FABRICIO RENE CARDOSO DE PADUA ANALISTA DO MP ATIVO SÃO SEBASTIÃO DO PARAÍSO - COMARCA; SAO SEBASTIAO DO PARAISO-PJ-03PJ 7.200,74 432,04 0,00 0,00 0,00 0,00 7.632,78 1.035,23 998,76 0,00 2.033,99 5.598,79 799,00 1.778,34 29/02/2016
944 496100 FABRICIO RESENDE GONCALVES OFICIAL DO MP ATIVO ENTRE-RIOS DE MINAS - COMARCA; ENTRE RIOS DE MINAS-PJ-UNPJ 4.668,87 1.454,95 0,00 0,00 0,00 0,00 6.123,82 843,72 664,98 0,00 1.508,70 4.615,12 799,00 2.721,18 29/02/2016
945 514900 FADUA MARIA DRUMOND CHEQUER FIGUEIREDO ANALISTA DO MP ATIVO ALMENARA - COMARCA; COORD REG INCLUSAO MOBILIZ VALE JEQUITINHONHA 5.792,74 432,04 0,00 0,00 0,00 0,00 6.224,78 839,61 507,29 0,00 1.346,90 4.877,88 2.063,00 0,00 29/02/2016
946 282500 FANNY FERREIRA MELO FAVERO DE FRAVET OFICIAL DO MP ATIVO ARAXÁ - COMARCA; ARAXA-PJ-03PJ 4.630,69 1.206,59 0,00 0,00 0,00 0,00 5.837,28 896,82 516,90 0,00 1.413,72 4.423,56 1.431,00 913,28 29/02/2016
947 540100 FATIMA CRISTINA POVOA DA COSTA OFICIAL DO MP ATIVO BELO HORIZONTE - COMARCA; BH-18PJ VIOLENCIA DOMESTICA-SECRETARIA 3.792,57 1.137,77 0,00 0,00 0,00 0,00 4.930,34 709,22 351,17 0,00 1.060,39 3.869,95 799,00 1.517,04 29/02/2016
948 382800 FATIMA DE OLIVEIRA COELHO E SILVA OFICIAL DO MP ATIVO BELO HORIZONTE - COMARCA; DIRETORIA DE ADMINISTRACAO FINANCEIRA 3.436,48 904,34 0,00 0,00 0,00 0,00 4.340,82 596,86 178,36 0,00 775,22 3.565,60 1.431,00 0,00 29/02/2016
949 398601 FELIPE ANTONIO HORTA DE PAULA ANALISTA DO MP ATIVO BELO HORIZONTE - COMARCA; PROC. JUSTICA DIR. DIFUSOS E COLETIVOS-SEC 5.842,66 0,00 0,00 0,00 0,00 0,00 5.842,66 642,69 560,63 0,00 1.203,32 4.639,34 799,00 0,00 29/02/2016
950 430900 FELIPE BOY VIEIRA ANALISTA DO MP ATIVO BELO HORIZONTE - COMARCA; CAO-DH APOIO COMUNITARIO-SEC ADM 6.384,51 818,53 0,00 0,00 0,00 0,00 7.203,04 990,42 839,11 0,00 1.829,53 5.373,51 799,00 0,00 29/02/2016
951 631700 FELIPE DE MORAIS SIMOES COELHO ANALISTA DO MP ATIVO BELO HORIZONTE - COMARCA; BH-18PJ VIOLENCIA DOMESTICA 3.887,14 0,00 0,00 0,00 1.606,97 0,00 5.494,11 563,74 495,69 0,00 1.059,43 4.434,68 799,00 304,08 29/02/2016
952 549100 FELIPE FERNANDES ALVIM ANALISTA DO MP ATIVO LAJINHA - COMARCA; LAJINHA-PJ-UNPJ 5.842,66 0,00 0,00 0,00 0,00 0,00 5.842,66 642,69 560,63 0,00 1.203,32 4.639,34 799,00 0,00 29/02/2016
953 487300 FELIPE FERNANDES SILVEIRA ASSESSOR ATIVO BELO HORIZONTE - COMARCA; DIVISAO DE MANUTENCAO PREDIAL 0,00 0,00 2.500,62 0,00 0,00 0,00 2.500,62 362,96 85,70 0,00 448,66 2.051,96 799,00 0,00 29/02/2016
954 620100 FELIPE GOMES DE AZEVEDO OFICIAL DO MP ATIVO BELO HORIZONTE - COMARCA; BH-18PJ VIOLENCIA DOMESTICA-SECRETARIA 2.920,66 0,00 0,00 0,00 0,00 0,00 2.920,66 344,22 50,43 0,00 394,65 2.526,01 799,00 0,00 29/02/2016
955 601600 FELIPE RODRIGUES DE SIQUEIRA ANALISTA DO MP ATIVO BELO HORIZONTE - COMARCA; BH-02PJ FAMILIA-SECRETARIA 5.842,66 0,00 0,00 0,00 0,00 0,00 5.842,66 878,26 560,63 0,00 1.438,89 4.403,77 799,00 2.141,52 29/02/2016
956 628900 FELIX FERNANDO JUNIO VIEIRA ANALISTA DO MP ATIVO CAETÉ - COMARCA; CAETE-PJ-02PJ 4.820,91 0,00 0,00 0,00 1.606,97 0,00 6.427,88 597,19 700,34 0,00 1.297,53 5.130,35 799,00 658,84 29/02/2016
957 544500 FELLIPE LEMOS MARCONDES BUENO ANALISTA DO MP ATIVO SÃO SEBASTIÃO DO PARAÍSO - COMARCA; SAO SEBASTIAO DO PARAISO-PJ-04PJ 5.842,66 0,00 0,00 0,00 0,00 0,00 5.842,66 642,69 560,63 0,00 1.203,32 4.639,34 4.304,60 321,35 29/02/2016
958 612600 FERNANDA ADRIANA DE PAULA GUIDO ANALISTA DO MP ATIVO PARACATU - COMARCA; PARACATU-PJ-02PJ 5.307,28 0,00 0,00 0,00 0,00 0,00 5.307,28 583,80 429,60 0,00 1.013,40 4.293,88 799,00 0,00 29/02/2016
959 508400 FERNANDA AGANETTI MATTOS DE OLIVEIRA ANALISTA DO MP ATIVO BELO HORIZONTE - COMARCA; BH-19PJ SAUDE 7.200,74 432,04 0,00 0,00 0,00 0,00 7.632,78 1.035,23 998,76 0,00 2.033,99 5.598,79 799,00 1.778,34 29/02/2016
960 453600 FERNANDA ALBERNAZ RABELO ANALISTA DO MP ATIVO BELO HORIZONTE - COMARCA; GABINETE DE PROCURADOR DE JUSTIÇA - SALA 616 7.435,23 743,52 0,00 0,00 0,00 0,00 8.178,75 899,66 1.132,39 0,00 2.032,05 6.146,70 799,00 0,00 29/02/2016
961 255600 FERNANDA ALINA DE ALMEIDA ANDRADE OFICIAL DO MP ATIVO BELO HORIZONTE - COMARCA; SUPRIN DE PLANEJAMENTO E COORDENACAO 6.432,09 1.286,42 0,00 0,00 0,00 0,00 7.718,51 849,04 1.019,74 0,00 1.868,78 5.849,73 799,00 0,00 29/02/2016
962 443200 FERNANDA ALMEIDA LOPES ANALISTA DO MP ATIVO CONTAGEM - COMARCA; CONTAGEM-PJ-23PJ 8.451,80 845,18 0,00 0,00 0,00 0,00 9.296,98 1.022,67 1.406,08 0,00 2.428,75 6.868,23 799,00 0,00 29/02/2016
963 281100 FERNANDA ANANIAS MEIRA ANALISTA DO MP ATIVO BELO HORIZONTE - COMARCA; BH-23PJ INFRACIONAL-ASS JURIDICA 8.038,24 2.115,33 0,00 0,00 0,00 0,00 10.153,57 1.396,12 1.538,94 0,00 2.935,06 7.218,51 799,00 0,00 29/02/2016
964 539000 FERNANDA BARBOSA ALVES ANALISTA DO MP ATIVO CANÁPOLIS - COMARCA; CANAPOLIS-PJ-SECRETARIA 5.842,66 0,00 0,00 0,00 0,00 0,00 5.842,66 642,69 560,63 0,00 1.203,32 4.639,34 799,00 0,00 29/02/2016
965 451200 FERNANDA BLOISE PRADO OFICIAL DO MP ATIVO BELO HORIZONTE - COMARCA; NUCLEO DE NEGOCIACAO DE CONFLITOS AMBIENTAIS 4.379,06 437,91 0,00 0,00 1.605,66 0,00 6.422,63 529,87 751,15 0,00 1.281,02 5.141,61 799,00 0,00 29/02/2016
966 427900 FERNANDA BRAGA CARNEIRO BICALHO ANALISTA DO MP ATIVO PEÇANHA - COMARCA; PECANHA-PJ-SECRETARIA 8.185,27 818,53 0,00 0,00 0,00 0,00 9.003,80 990,42 1.282,18 0,00 2.272,60 6.731,20 799,00 0,00 29/02/2016
967 507100 FERNANDA CABRINI VAZ MOTA ANALISTA DO MP ATIVO BELO HORIZONTE - COMARCA; ASSESSORIA JURIDICO-ADMINISTRATIVA 7.200,74 432,04 0,00 0,00 2.544,26 0,00 10.177,04 1.165,64 1.698,43 0,00 2.864,07 7.312,97 799,00 2.963,90 29/02/2016
968 259800 FERNANDA CALZAVARA DE SOUSA COORDENADOR/OFICIAL ATIVO BELO HORIZONTE - COMARCA; DIRET DE FORMACAO, APERFEIC. E POS-GRADUACAO 0,00 2.184,20 10.921,00 0,00 0,00 0,00 13.105,20 981,45 2.464,67 0,00 3.446,12 9.659,08 799,00 0,00 29/02/2016
969 550300 FERNANDA CAMARGOS CALDEIRA BRANT ANALISTA DO MP ATIVO CONTAGEM - COMARCA; CONTAGEM-PJ-10PJ 5.842,66 0,00 0,00 0,00 0,00 0,00 5.842,66 642,69 560,63 0,00 1.203,32 4.639,34 799,00 0,00 29/02/2016
970 494400 FERNANDA CAMPOS BARATA OFICIAL DO MP ATIVO JUIZ DE FORA - COMARCA; JUIZ DE FORA-PJ-08PJ 3.085,86 234,96 0,00 0,00 0,00 0,00 3.320,82 456,61 74,83 0,00 531,44 2.789,38 1.431,00 0,00 29/02/2016
971 555600 FERNANDA CAROLINE RIBEIRO ANALISTA DO MP ATIVO BELO HORIZONTE - COMARCA; EXTINTA - DIRETORIA DE CONTRATOS E CONVÊNIOS 5.842,66 0,00 0,00 0,00 1.947,55 0,00 7.790,21 642,69 1.096,21 0,00 1.738,90 6.051,31 799,00 0,00 29/02/2016
972 294500 FERNANDA COSTA FLORES OFICIAL DO MP ATIVO PARÁ DE MINAS - COMARCA; PARA DE MINAS-PJ-04PJ 5.299,99 1.394,73 0,00 0,00 0,00 0,00 6.694,72 920,52 666,41 0,00 1.586,93 5.107,79 799,00 0,00 29/02/2016
973 344500 FERNANDA CRISTINA DE SOUZA PAZ ASSESSOR ATIVO BELO HORIZONTE - COMARCA; CENTRAL DE APOIO TECN-SETOR DE MEIO AMBIENTE 0,00 0,00 4.175,17 0,00 0,00 0,00 4.175,17 547,16 274,63 0,00 821,79 3.353,38 1.431,00 0,00 29/02/2016
974 538100 FERNANDA CRISTINA DOS SANTOS ROSA MOREIRA OFICIAL DO MP ATIVO RIBEIRÃO DAS NEVES - COMARCA; RIBEIRAO DAS NEVES-PJ-09PJ 2.882,35 758,51 0,00 0,00 0,00 0,00 3.640,86 500,62 116,24 0,00 616,86 3.024,00 799,00 0,00 29/02/2016
975 337800 FERNANDA CRISTINA REIS ROLAND CLIMACO DA SILVA ASSESSOR/OFICIAL ATIVO BELO HORIZONTE - COMARCA; DIRETORIA-GERAL 0,00 1.860,89 9.304,45 0,00 0,00 0,00 11.165,34 905,23 1.952,17 0,00 2.857,40 8.307,94 799,00 0,00 29/02/2016
976 545400 FERNANDA CUNHA GUIMARAES ANALISTA DO MP ATIVO BELO HORIZONTE - COMARCA; EXTINTA - COORD DEFESA DO DIREITO DE FAMILIA 5.842,66 0,00 0,00 0,00 0,00 0,00 5.842,66 760,47 560,63 0,00 1.321,10 4.521,56 3.136,06 1.284,99 29/02/2016
977 429801 FERNANDA CUNHA PINHEIRO DA SILVA ANALISTA DO MP ATIVO BELO HORIZONTE - COMARCA; SUPERINTENDENCIA DE COMUNICACAO INTEGRADA 5.362,53 398,49 0,00 0,00 0,00 0,00 5.761,02 916,32 501,96 0,00 1.418,28 4.342,74 799,00 1.290,18 29/02/2016
978 408000 FERNANDA DAS NEVES RAMOS ANALISTA DO MP ATIVO BELO HORIZONTE - COMARCA; CENTRAL DE APOIO TECNICO-SETOR CONTABIL 6.867,60 872,70 0,00 0,00 0,00 0,00 7.740,30 1.155,87 968,83 0,00 2.124,70 5.615,60 4.638,88 1.260,15 29/02/2016
979 496000 FERNANDA DE ALMEIDA VIANA ASSESSOR/ANALISTA ATIVO BELO HORIZONTE - COMARCA; PROC JUST RECURSOS ESP E EXTRAORD CRIMINAIS 0,00 507,11 8.451,80 0,00 2.986,30 0,00 11.945,21 839,61 2.184,68 0,00 3.024,29 8.920,92 799,00 0,00 29/02/2016
980 266700 FERNANDA DE CASTRO LUCAS ASSESSOR/OFICIAL ATIVO BELO HORIZONTE - COMARCA; DIRET DE DESENV DE RECURSOS HUMANOS-DDRH 0,00 1.860,89 9.304,45 0,00 0,00 0,00 11.165,34 1.013,40 2.082,46 0,00 3.095,86 8.069,48 799,00 581,96 29/02/2016
981 433200 FERNANDA DE FIGUEIREDO NORTE ANALISTA DO MP ATIVO BELO HORIZONTE - COMARCA; ASSESS JUR DO CONS SUPERIOR DO MINISTERIO PUB 8.727,00 872,70 0,00 0,00 0,00 0,00 9.599,70 1.155,87 1.375,89 0,00 2.531,76 7.067,94 2.063,00 908,16 29/02/2016
982 419200 FERNANDA DE MIRANDA MARTINS SIMOES ANALISTA DO MP ATIVO UBERLÂNDIA - COMARCA; UBERLANDIA-PJ-19PJ 8.727,00 872,70 0,00 0,00 0,00 0,00 9.599,70 1.055,97 1.480,17 0,00 2.536,14 7.063,56 799,00 0,00 29/02/2016
983 441400 FERNANDA DE MORAIS PINTO ANALISTA DO MP ATIVO BELO HORIZONTE - COMARCA; PROC. JUSTICA DIR. DIFUSOS E COLETIVOS-SEC 8.185,27 818,53 0,00 0,00 0,00 0,00 9.003,80 1.444,19 1.334,32 0,00 2.778,51 6.225,29 799,00 4.125,20 29/02/2016
984 432200 FERNANDA DE MOURA GUIMARAES ANALISTA DO MP ATIVO BELO HORIZONTE - COMARCA; ASSESS TECNICO-JUR JUNTO AS PROC. DE JUST 8.451,80 845,18 0,00 0,00 0,00 0,00 9.296,98 1.022,67 1.406,08 0,00 2.428,75 6.868,23 1.431,00 0,00 29/02/2016
985 461800 FERNANDA DE OLIVEIRA SANTOS ANALISTA DO MP ATIVO JUIZ DE FORA - COMARCA; JUIZ DE FORA-PJ-21PJ 5.908,67 743,52 0,00 0,00 0,00 0,00 6.652,19 1.076,73 712,59 0,00 1.789,32 4.862,87 1.431,00 1.609,77 29/02/2016
986 432500 FERNANDA DE PAULA ABRANTES ANALISTA DO MP ATIVO BELO HORIZONTE - COMARCA; PROC JUST RECURSOS ESP E EXTRAORD CRIMINAIS 8.185,27 818,53 0,00 0,00 0,00 0,00 9.003,80 990,42 1.334,32 0,00 2.324,74 6.679,06 799,00 0,00 29/02/2016
987 431600 FERNANDA DIAS BARBOSA MENEZES ANALISTA DO MP ATIVO OURO BRANCO - COMARCA; OURO BRANCO-PJ-UNPJ 8.451,80 845,18 0,00 0,00 0,00 0,00 9.296,98 1.022,67 1.301,80 0,00 2.324,47 6.972,51 1.431,00 0,00 29/02/2016
988 162200 FERNANDA FERNANDES MONTEIRO ASSESSOR ATIVO BELO HORIZONTE - COMARCA; CAO-DH APOIO COMUNITARIO-SEC ADM 0,00 1.252,55 4.175,17 0,00 0,00 0,00 5.427,72 570,88 633,86 0,00 1.204,74 4.222,98 1.431,00 0,00 29/02/2016
989 512800 FERNANDA FERREIRA BARBOSA MOREIRA ANALISTA DO MP ATIVO IPATINGA - COMARCA; IPATINGA-PJ-05PJ 5.362,53 398,49 0,00 0,00 0,00 0,00 5.761,02 987,28 501,96 0,00 1.489,24 4.271,78 1.431,00 1.935,27 29/02/2016
990 329200 FERNANDA GABRIEL GUZELLA OFICIAL DO MP ATIVO BELO HORIZONTE - COMARCA; DIRET DE PLANOS PROJETOS E PROGRAMAS INST 6.641,51 1.328,30 0,00 0,00 0,00 0,00 7.969,81 876,68 1.081,25 0,00 1.957,93 6.011,88 799,00 0,00 29/02/2016
991 324200 FERNANDA GEORGIA NEVES ZAHAN OFICIAL DO MP ATIVO IPANEMA - COMARCA; IPANEMA-PJ-SECRETARIA 5.842,66 4.089,86 0,00 0,00 0,00 0,00 9.932,52 1.445,93 1.561,62 0,00 3.007,55 6.924,97 799,00 3.212,28 29/02/2016
992 548200 FERNANDA GONCALVES DE CARVALHO ZUZA OFICIAL DO MP ATIVO TUPACIGUARA - COMARCA; TUPACIGUARA-PJ-UNPJ 3.445,03 0,00 0,00 0,00 1.148,34 0,00 4.593,37 378,95 312,11 0,00 691,06 3.902,31 799,00 0,00 29/02/2016
993 355400 FERNANDA HELENA BASQUES OFICIAL DO MP ATIVO SABARÁ - COMARCA; SABARA-PJ-01PJ 6.229,29 622,93 0,00 0,00 0,00 0,00 6.852,22 753,74 807,72 0,00 1.561,46 5.290,76 799,00 0,00 29/02/2016
994 454800 FERNANDA IATAROLA BARBOSA DIAS ANALISTA DO MP ATIVO BARBACENA - COMARCA; BARBACENA-PJ-05PJ 5.799,48 743,52 0,00 0,00 0,00 0,00 6.543,00 899,66 630,42 0,00 1.530,08 5.012,92 799,00 0,00 29/02/2016
995 515500 FERNANDA LILIANE MARUGEIRO ANALISTA DO MP ATIVO VESPASIANO - COMARCA; VESPASIANO-PJ-04PJ 5.792,74 432,04 0,00 0,00 0,00 0,00 6.224,78 970,03 611,56 0,00 1.581,59 4.643,19 799,00 1.185,56 29/02/2016
996 392900 FERNANDA MAGALHAES SILVA COORDENADOR/ANALISTA ATIVO BELO HORIZONTE - COMARCA; DIRETORIA DE IMPRENSA 9.011,08 3.085,31 0,00 0,00 0,00 0,00 12.096,39 1.090,34 2.157,30 0,00 3.247,64 8.848,75 799,00 0,00 29/02/2016
997 409200 FERNANDA MAIA SANTIAGO ANALISTA DO MP ATIVO PIRAPORA - COMARCA; PIRAPORA-PJ-02PJ 6.973,67 697,37 0,00 0,00 0,00 0,00 7.671,04 885,87 1.008,13 0,00 1.894,00 5.777,04 799,00 382,41 29/02/2016
998 556500 FERNANDA OTERO COSTA ANALISTA DO MP ATIVO BELO HORIZONTE - COMARCA; ASSESS TECNICO-JUR JUNTO AS PROC. DE JUST 5.842,66 0,00 0,00 0,00 0,00 0,00 5.842,66 642,69 560,63 0,00 1.203,32 4.639,34 799,00 0,00 29/02/2016
999 615300 FERNANDA PATRICIA RIBEIRO MOTA OFICIAL DO MP ATIVO UBERABA - COMARCA; UBERABA-PJ-05PJ 3.129,28 0,00 0,00 0,00 0,00 0,00 3.129,28 344,22 66,08 0,00 410,30 2.718,98 799,00 0,00 29/02/2016
1000 619800 FERNANDA PINTO PEREIRA ANALISTA DO MP ATIVO UBERLÂNDIA - COMARCA; UBERLANDIA-PJ-20PJ 5.307,28 0,00 0,00 0,00 0,00 0,00 5.307,28 694,26 429,60 0,00 1.123,86 4.183,42 799,00 1.059,95 29/02/2016
1001 412900 FERNANDA PORTELA ROSA ANALISTA DO MP ATIVO BELO HORIZONTE - COMARCA; BH-08PJ JUIZADO ESPECIAL-SECRETARIA 6.807,06 872,70 0,00 0,00 0,00 0,00 7.679,76 1.110,28 1.073,03 0,00 2.183,31 5.496,45 799,00 493,74 29/02/2016
1002 274301 FERNANDA QUEIROZ PARREIRA ANALISTA DO MP ATIVO PATOS DE MINAS - COMARCA; COORD REG PJ DEF EDU DIR CRI ADO AL PAR NOROE 7.200,74 432,04 0,00 0,00 0,00 0,00 7.632,78 1.230,85 998,76 0,00 2.229,61 5.403,17 799,00 3.556,68 29/02/2016
1003 467900 FERNANDA QUEIROZ SIMOES GANNAM ANALISTA DO MP ATIVO SÃO LOURENÇO - COMARCA; SAO LOURENCO-PJ-02PJ 7.435,23 743,52 0,00 0,00 0,00 0,00 8.178,75 1.076,73 1.080,25 0,00 2.156,98 6.021,77 1.431,00 1.788,63 29/02/2016
1004 255500 FERNANDA SIMOES LOPES MENDES ANALISTA DO MP ATIVO BELO HORIZONTE - COMARCA; BH-17PJ PATRIMONIO PUBLICO-SECRETARIA 12.022,83 2.404,57 0,00 0,00 0,00 0,00 14.427,40 1.787,20 2.557,47 0,00 4.344,67 10.082,73 1.431,00 1.819,84 29/02/2016
1005 481700 FERNANDA VIANA FROES DA SILVA OFICIAL DO MP ATIVO GOVERNADOR VALADARES - COMARCA; GOVERNADOR VALADARES-PJ-09PJ 4.050,26 308,40 0,00 0,00 0,00 0,00 4.358,66 599,32 209,72 0,00 809,04 3.549,62 1.431,00 0,00 29/02/2016
1006 123900 FERNANDO ANTONIO FARIA ABREU ASSESSOR/ANALISTA ATIVO BELO HORIZONTE - COMARCA; PROCURADORIA-GERAL ADJUNTA ADMINISTRATIVA 21.517,63 24.987,15 0,00 0,00 0,00 3.351,82 49.856,60 3.351,82 7.510,20 16.033,67 26.895,69 22.960,91 799,00 0,00 29/02/2016
1007 416900 FERNANDO APARECIDO DA SILVA ANALISTA DO MP ATIVO BOM DESPACHO - COMARCA; BOM DESPACHO-PJ-01PJ 5.916,26 4.225,90 0,00 0,00 4.225,90 0,00 14.368,06 1.394,55 2.594,08 0,00 3.988,63 10.379,43 799,00 0,00 29/02/2016
1008 395900 FERNANDO AUGUSTO ETO LAGES ANALISTA DO MP ATIVO BELO HORIZONTE - COMARCA; CENTRAL DE APOIO TECN-SETOR DE MEIO AMBIENTE 9.011,08 901,11 0,00 0,00 3.304,06 0,00 13.216,25 1.193,46 2.465,27 0,00 3.658,73 9.557,52 799,00 937,47 29/02/2016
1009 380500 FERNANDO BONES COSTA OFICIAL DO MP ATIVO BELO HORIZONTE - COMARCA; EXTINTA - DIVISÃO DE MATERIAL PERMANENTE 4.521,68 452,17 0,00 0,00 0,00 0,00 4.973,85 547,12 359,88 0,00 907,00 4.066,85 799,00 0,00 29/02/2016
1010 500100 FERNANDO CEZAR PINTO ASSESSOR/OFICIAL ATIVO BELO HORIZONTE - COMARCA; EXTINTA - DIVISÃO DE MATERIAL PERMANENTE 0,00 507,11 8.451,80 0,00 0,00 0,00 8.958,91 544,39 1.392,50 0,00 1.936,89 7.022,02 1.431,00 0,00 29/02/2016
1011 346100 FERNANDO EUSTAQUIO CAMPOS UTSCH MOREIRA ANALISTA DO MP ATIVO BELO HORIZONTE - COMARCA; DIRETORIA DE REDES E BANCOS DE DADOS 7.989,68 1.024,32 0,00 0,00 0,00 0,00 9.014,00 1.239,43 1.112,24 0,00 2.351,67 6.662,33 799,00 0,00 29/02/2016
1012 103500 FERNANDO LUIZ DA SILVA JUNIOR COORDENADOR/OFICIAL ATIVO BELO HORIZONTE - COMARCA; DIVISAO DE ATENDIMENTO E CONSULTA JURIDICA 15.298,25 9.762,76 0,00 0,00 0,00 0,00 25.061,01 3.940,96 5.374,48 0,00 9.315,44 15.745,57 4.861,81 14.490,80 29/02/2016
1013 287300 FERNANDO MARCIO ALVES MARTINS OFICIAL DO MP ATIVO LEOPOLDINA - COMARCA; LEOPOLDINA-PJ-01PJ 4.630,88 1.096,01 0,00 0,00 0,00 0,00 5.726,89 791,79 361,69 0,00 1.153,48 4.573,41 799,00 621,96 29/02/2016
1014 262200 FERNANDO MARCIO RESENDE PEREIRA OFICIAL DO MP ATIVO BELO HORIZONTE - COMARCA; BH-12PJ JUIZO CRIMINAL-SECRETARIA 6.641,51 1.328,30 0,00 0,00 2.656,60 0,00 10.626,41 1.007,18 2.138,06 0,00 3.145,24 7.481,17 799,00 1.316,86 29/02/2016
1015 472900 FERNANDO RODRIGUES DE FREITAS ANALISTA DO MP ATIVO BELO HORIZONTE - COMARCA; BH-15PJ M AMB PAT HIST CULT-ASS TECNICA 5.908,67 743,52 0,00 0,00 0,00 0,00 6.652,19 1.017,70 660,45 0,00 1.678,15 4.974,04 799,00 1.073,18 29/02/2016
1016 421400 FERNANDO TEODORO MACIEL ANALISTA DO MP ATIVO SANTA VITÓRIA - COMARCA; SANTA VITORIA-PJ-UNPJ 8.185,27 818,53 0,00 0,00 0,00 0,00 9.003,80 990,42 1.282,18 0,00 2.272,60 6.731,20 1.431,00 0,00 29/02/2016
1017 446300 FERNANDO VITOR DE OLIVEIRA ANALISTA DO MP ATIVO MONTES CLAROS - COMARCA; COORD REG BACIA RIOS VERDE GRANDE E PARDO 6.592,40 845,18 0,00 0,00 0,00 0,00 7.437,58 1.022,67 894,74 0,00 1.917,41 5.520,17 799,00 0,00 29/02/2016
1018 639300 FILIPE ALMEIDA RODRIGUES ANALISTA DO MP ATIVO TIMÓTEO - COMARCA; TIMOTEO-04 PJ 3.735,10 0,00 0,00 0,00 0,00 0,00 3.735,10 513,58 128,43 0,00 642,01 3.093,09 799,00 0,00 29/02/2016
1019 617100 FILLIPE DA SILVA BRAGA ANALISTA DO MP ATIVO DIVINO - COMARCA; DIVINO-PJ-UNPJ 4.668,87 0,00 0,00 0,00 0,00 0,00 4.668,87 513,58 298,81 0,00 812,39 3.856,48 799,00 0,00 29/02/2016
1020 398400 FLAVIA ALVARES GUIMARAES OFICIAL DO MP ATIVO BELO HORIZONTE - COMARCA; CGMP-DIVIS DE APOIO FISC ORIENTACAO FUNCIONAL 4.805,28 584,27 0,00 0,00 0,00 0,00 5.389,55 773,84 374,80 0,00 1.148,64 4.240,91 799,00 608,04 29/02/2016
1021 398200 FLAVIA ALVES DE ASSUNCAO RODRIGUES ANALISTA DO MP ATIVO DIVINÓPOLIS - COMARCA; COORD REG DO MA DA BACIA DO ALTO SAO FRANC 8.451,80 845,18 0,00 0,00 0,00 0,00 9.296,98 1.022,67 1.406,08 0,00 2.428,75 6.868,23 799,00 0,00 29/02/2016
1022 318500 FLAVIA BEATRIZ NUNES CRUZ VIEIRA ANALISTA DO MP ATIVO BARBACENA - COMARCA; BARBACENA-PJ-SECRETARIA 8.118,27 2.115,33 0,00 0,00 0,00 0,00 10.233,60 1.528,17 1.456,67 0,00 2.984,84 7.248,76 1.431,00 1.200,42 29/02/2016
1023 496500 FLAVIA CARAM BORLIDO ANALISTA DO MP ATIVO BELO HORIZONTE - COMARCA; EXTINTA - DIVISAO DE SERVICOS GERAIS 7.200,74 432,04 0,00 0,00 0,00 0,00 7.632,78 1.230,85 998,76 0,00 2.229,61 5.403,17 799,00 3.754,27 29/02/2016
1024 534800 FLAVIA CONDE SOARES ANALISTA DO MP ATIVO BELO HORIZONTE - COMARCA; BH-13PJ JUÍZO DE TÓXICOS-ASSESSORIA JURIDICA 5.842,66 0,00 0,00 0,00 0,00 0,00 5.842,66 642,69 560,63 0,00 1.203,32 4.639,34 799,00 0,00 29/02/2016
1025 219500 FLAVIA CRISTINA ANCELMO OFICIAL DO MP ATIVO BELO HORIZONTE - COMARCA; BH-17PJ PATRIMONIO PUBLICO-SECRETARIA 7.200,74 2.160,22 0,00 0,00 3.120,32 0,00 12.481,28 1.616,46 2.279,82 0,00 3.896,28 8.585,00 799,00 5.333,99 29/02/2016
1026 329600 FLAVIA CRISTINA DE MATOS XAVIER ANALISTA DO MP ATIVO UBERABA - COMARCA; UBERABA-PJ-15PJ 10.576,63 3.172,99 0,00 0,00 0,00 0,00 13.749,62 2.095,22 2.391,58 0,00 4.486,80 9.262,82 799,00 5.297,70 29/02/2016
1027 207600 FLAVIA DE ANDRADE MANCINI ANALISTA DO MP ATIVO BELO HORIZONTE - COMARCA; ASSESSORIA JURIDICO-ADMINISTRATIVA 13.616,17 4.084,85 0,00 0,00 0,00 0,00 17.701,02 2.243,75 3.306,55 0,00 5.550,30 12.150,72 1.431,00 2.696,76 29/02/2016
1028 402801 FLAVIA MARIA DE RESENDE NASCIMENTO ANALISTA DO MP ATIVO SÃO JOÃO DEL REI - COMARCA; SAO JOAO DEL REI-PJ-04PJ 7.200,74 432,04 0,00 0,00 0,00 0,00 7.632,78 839,61 998,76 0,00 1.838,37 5.794,41 1.431,00 0,00 29/02/2016
1029 437500 FLAVIA MARIA TORRES MARCHETTI ANALISTA DO MP ATIVO BELO HORIZONTE - COMARCA; BH-18PJ VIOLENCIA DOMESTICA 8.185,27 818,53 0,00 0,00 3.001,27 0,00 12.005,07 990,42 2.055,39 0,00 3.045,81 8.959,26 2.063,00 0,00 29/02/2016
1030 386000 FLAVIA NEVES BRIGIDO OFICIAL DO MP ATIVO BELO HORIZONTE - COMARCA; PROMOT ESTADUAL DE DEF PATRI CULT E TUR DE MG 4.711,88 584,27 0,00 0,00 2.142,31 0,00 7.438,46 962,05 981,80 0,00 1.943,85 5.494,61 799,00 2.319,06 29/02/2016
1031 488600 FLAVIA PEREIRA COSTA ANALISTA DO MP ATIVO BELO HORIZONTE - COMARCA; CENTRAL DE APOIO TECNICO 7.200,74 432,04 0,00 0,00 0,00 0,00 7.632,78 839,61 998,76 0,00 1.838,37 5.794,41 1.431,00 0,00 29/02/2016
1032 365400 FLAVIA PEREIRA DA SILVA OFICIAL DO MP ATIVO BELO HORIZONTE - COMARCA; BH-15PJ M AMB 16PJ HAB URB-SECRETARIA 5.314,27 664,15 0,00 0,00 0,00 0,00 5.978,42 1.024,54 553,71 0,00 1.578,25 4.400,17 799,00 2.008,32 29/02/2016
1033 515400 FLAVIA RODRIGUES DE OLIVEIRA E SILVA PAIVA ANALISTA DO MP ATIVO CARATINGA - COMARCA; CARATINGA-PJ-05PJ 5.792,74 432,04 0,00 0,00 0,00 0,00 6.224,78 970,03 404,90 0,00 1.374,93 4.849,85 799,00 1.185,56 29/02/2016
1034 621600 FLAVIA SARMENTO RODRIGUES ANALISTA DO MP ATIVO BELO HORIZONTE - COMARCA; AUDITORIA INTERNA 4.820,91 0,00 0,00 0,00 0,00 0,00 4.820,91 630,64 329,26 0,00 959,90 3.861,01 5.493,81 1.267,63 29/02/2016
1035 535800 FLAVIA SILVA VALADAO OFICIAL DO MP ATIVO TRÊS CORACOES - COMARCA; TRES CORACOES-PJ-04PJ 3.445,03 0,00 0,00 0,00 0,00 0,00 3.445,03 378,95 76,67 0,00 455,62 2.989,41 1.431,00 0,00 29/02/2016
1036 515300 FLAVIA VIEIRA OLIVEIRA GOMES ANALISTA DO MP ATIVO BELO HORIZONTE - COMARCA; CAO-CRIMINAL-SECRETARIA 5.792,74 432,04 0,00 0,00 2.544,26 0,00 8.769,04 970,03 1.311,23 0,00 2.281,26 6.487,78 799,00 1.185,56 29/02/2016
1037 377500 FLAVIANA GONCALVES DE OLIVEIRA ANALISTA DO MP ATIVO IPATINGA - COMARCA; IPATINGA-PJ-02PJ 9.011,08 901,11 0,00 0,00 0,00 0,00 9.912,19 1.193,46 1.556,65 0,00 2.750,11 7.162,08 799,00 937,47 29/02/2016
1038 273100 FLAVIANE DOS SANTOS CASTRO OFICIAL DO MP ATIVO CAXAMBU - COMARCA; CAXAMBU-PJ-SECRETARIA 7.200,74 1.440,15 0,00 0,00 0,00 0,00 8.640,89 950,50 1.141,22 0,00 2.091,72 6.549,17 799,00 0,00 29/02/2016
1039 310600 FLAVIANE NAVES ALCANTARA ASSESSOR/OFICIAL ATIVO BELO HORIZONTE - COMARCA; COMB CRIMES PRAT POR AG POL MUN-SECRETARIA 0,00 1.690,36 8.451,80 0,00 0,00 0,00 10.142,16 920,52 1.666,59 0,00 2.587,11 7.555,05 1.431,00 0,00 29/02/2016
1040 378201 FLAVIANE RIBEIRO BORGES OFICIAL DO MP ATIVO SÃO GONÇALO DO SAPUCAÍ - COMARCA; SAO GONCALO DO SAPUCAI-PJ-02PJ 1.296,99 404,36 0,00 0,00 0,00 0,00 1.701,35 513,33 298,36 0,00 811,69 889,66 1.380,09 2.965,29 29/02/2016
1041 455800 FLAVIO ANTONIO RIBEIRO OFICIAL DO MP ATIVO BELO HORIZONTE - COMARCA; GRUPO ESP PROM PROC JUST DEF PROB ADM PAT PUB 4.043,58 404,36 0,00 0,00 1.482,65 0,00 5.930,59 681,86 627,00 0,00 1.308,86 4.621,73 799,00 1.750,80 29/02/2016
1042 458200 FLAVIO AUGUSTO BRAGA SOARES ANALISTA DO MP ATIVO BELO HORIZONTE - COMARCA; DIVISAO DE MANUTENCAO PREDIAL 7.435,23 743,52 0,00 0,00 2.726,25 0,00 10.905,00 1.135,75 1.882,11 0,00 3.017,86 7.887,14 799,00 2.146,36 29/02/2016
1043 516500 FLAVIO AUGUSTO RODRIGUES CORREA ANALISTA DO MP ATIVO BELO HORIZONTE - COMARCA; COORD REG BACIAS RIO VELHAS E PARAOPEBA 5.362,53 398,49 0,00 0,00 0,00 0,00 5.761,02 916,32 501,96 0,00 1.418,28 4.342,74 799,00 1.290,18 29/02/2016
1044 84300 FLAVIO DE FARIA BELTRAO OFICIAL DO MP ATIVO BELO HORIZONTE - COMARCA; DIRETORIA DE ADMINISTRACAO FINANCEIRA 13.217,24 13.518,02 0,00 0,00 0,00 0,00 26.735,26 3.351,82 4.860,40 2.358,37 10.570,59 16.164,67 799,00 0,00 29/02/2016
1045 266600 FLAVIO GUIMARAES LANA ANALISTA DO MP ATIVO BELO HORIZONTE - COMARCA; CENTRAL DE APOIO TECN-SETOR DE MEIO AMBIENTE 9.607,41 1.921,48 0,00 0,00 3.842,96 0,00 15.371,85 1.268,18 3.009,15 0,00 4.277,33 11.094,52 799,00 0,00 29/02/2016
1046 552600 FLAVIO HENRIQUE EVARISTO GOMES ASSESSOR/ANALISTA ATIVO BELO HORIZONTE - COMARCA; DIRETORIA DE SUPORTE E MANUTENCAO 0,00 0,00 8.451,80 0,00 0,00 0,00 8.451,80 642,69 1.278,15 0,00 1.920,84 6.530,96 799,00 0,00 29/02/2016
1047 640000 FLAVIO HENRIQUE PEREIRA VELOSO OFICIAL DO MP ATIVO BELO HORIZONTE - COMARCA; PROCON-MG-SECRETARIA DE FISCALIZACOES 3.030,62 0,00 0,00 0,00 0,00 0,00 3.030,62 333,37 59,49 0,00 392,86 2.637,76 799,00 0,00 29/02/2016
1048 241500 FLAVIO HENRIQUE SILVA MARTINS LAGE OFICIAL DO MP ATIVO BELO HORIZONTE - COMARCA; CAO-CRIANCAS E ADOLESCENTES-SECRETARIA 6.973,67 2.092,10 0,00 0,00 0,00 0,00 9.065,77 997,23 1.349,49 0,00 2.346,72 6.719,05 4.861,81 372,42 29/02/2016
1049 86700 FLAVIO LUCAS TOMAZ AGENTE DO MP ATIVO BELO HORIZONTE - COMARCA; BH-06PJ JUIZO CIVEL-SECRETARIA 5.842,66 4.089,86 0,00 0,00 0,00 0,00 9.932,52 1.183,78 1.134,11 0,00 2.317,89 7.614,63 799,00 829,14 29/02/2016
1050 407200 FLAVIO LUCIO MONTEIRO PENA ANALISTA DO MP ATIVO BELO HORIZONTE - COMARCA; DIRETORIA DE IMPRENSA 6.041,54 767,73 0,00 0,00 0,00 0,00 6.809,27 1.046,11 747,73 0,00 1.793,84 5.015,43 799,00 1.065,08 29/02/2016
1051 451700 FLAVIO MAGALHAES PEREIRA ANALISTA DO MP ATIVO BELO HORIZONTE - COMARCA; BH-12PJ JUIZO CRIMINAL-GAB 098PJ 7.435,23 743,52 0,00 0,00 0,00 0,00 8.178,75 899,66 1.132,39 0,00 2.032,05 6.146,70 799,00 0,00 29/02/2016
1052 481500 FLAVIO NEVES GUELBER DE MACEDO OFICIAL DO MP ATIVO SÃO JOÃO NEPOMUCENO - COMARCA; SAO JOAO NEPOMUCENO-PJ-02PJ 4.379,06 437,91 0,00 0,00 0,00 0,00 4.816,97 529,87 328,47 0,00 858,34 3.958,63 799,00 0,00 29/02/2016
1053 547500 FRANCELINO MOREIRA DA SILVA ANALISTA DO MP ATIVO BELO HORIZONTE - COMARCA; BH-10PJ EXECUÇÃO PENAL-SECRETARIA 5.307,28 0,00 0,00 0,00 1.769,09 0,00 7.076,37 583,80 916,10 0,00 1.499,90 5.576,47 2.063,00 0,00 29/02/2016
1054 278100 FRANCIANE MARY DE SOUZA DOMENICI DE BRITO E CASTRO ANALISTA DO MP ATIVO BELO HORIZONTE - COMARCA; BH-12PJ JUIZO CRIMINAL-GAB 083PJ 8.937,32 2.328,74 0,00 0,00 4.657,48 0,00 15.923,54 1.682,35 3.034,81 0,00 4.717,16 11.206,38 799,00 1.321,62 29/02/2016
1055 192501 FRANCIELLE REIS DE OLIVEIRA ANALISTA DO MP ATIVO PASSOS - COMARCA; PASSOS-PJ-04PJ 9.105,31 2.328,74 0,00 0,00 0,00 0,00 11.434,05 2.100,38 1.695,93 0,00 3.796,31 7.637,74 799,00 5.121,92 29/02/2016
1056 523600 FRANCINE MOURA LIMIRIO OFICIAL DO MP ATIVO UBERABA - COMARCA; UBERABA-PJ-02PJ 3.341,92 254,46 0,00 0,00 0,00 0,00 3.596,38 494,50 110,48 0,00 604,98 2.991,40 4.861,81 304,71 29/02/2016
1057 467200 FRANCINI RENNO ANALISTA DO MP ATIVO CASSIA - COMARCA; CASSIA-PJ-02PJ 7.435,23 743,52 0,00 0,00 0,00 0,00 8.178,75 1.076,73 1.132,39 0,00 2.209,12 5.969,63 799,00 1.609,77 29/02/2016
1058 189300 FRANCIS BERNARDO DO NASCIMENTO OFICIAL DO MP ATIVO VARGINHA - COMARCA; VARGINHA-PJ-05PJ 10.243,18 3.072,95 0,00 0,00 0,00 0,00 13.316,13 1.603,31 2.285,49 0,00 3.888,80 9.427,33 2.063,00 1.259,46 29/02/2016
1059 207800 FRANCISCO CAMPOS PIRES DE MORAIS ANALISTA DO MP ATIVO BELO HORIZONTE - COMARCA; CENTRAL DE APOIO TECN-SETOR DE MEIO AMBIENTE 11.472,19 4.589,48 0,00 0,00 0,00 0,00 16.061,67 2.354,29 2.841,72 0,00 5.196,01 10.865,66 799,00 1.514,86 29/02/2016
1060 424200 FRANCISCO DE FREITAS JUNIOR ANALISTA DO MP ATIVO MONTE AZUL - COMARCA; MONTE AZUL-PJ-UNPJ 8.185,27 818,53 0,00 0,00 0,00 0,00 9.003,80 990,42 1.334,32 0,00 2.324,74 6.679,06 799,00 0,00 29/02/2016
1061 607700 FRANCISCO EDUARDO DE CASTRO ANALISTA DO MP ATIVO BELO HORIZONTE - COMARCA; DIR ANALISES TECNOLOGIA INTELIGENCIA 4.878,48 0,00 0,00 0,00 0,00 0,00 4.878,48 749,69 316,92 0,00 1.066,61 3.811,87 799,00 972,74 29/02/2016
1062 204600 FRANCISCO FERREIRA NOVAIS OFICIAL DO MP ATIVO IPATINGA - COMARCA; IPATINGA-PJ-08PJ 8.451,80 3.380,72 0,00 0,00 0,00 0,00 11.832,52 1.859,40 1.922,37 0,00 3.781,77 8.050,75 799,00 5.071,08 29/02/2016
1063 60500 FRANCISCO OLIMPIO TEIXEIRA AGENTE DO MP ATIVO BELO HORIZONTE - COMARCA; EXTINTA - DIVISAO DE TRANSPORTES 4.977,82 4.480,04 0,00 0,00 0,00 1.209,32 10.667,18 1.209,32 1.997,54 0,00 3.206,86 7.460,32 799,00 1.536,00 29/02/2016
1064 411600 FRANCISCO PAIVA BRITO ANALISTA DO MP ATIVO BELO HORIZONTE - COMARCA; TRIBUNAL DO JURI-07 PJ-02 TRIBUNAL 7.677,29 767,73 0,00 0,00 0,00 0,00 8.445,02 1.016,82 1.197,56 0,00 2.214,38 6.230,64 799,00 798,81 29/02/2016
1065 515800 FRANCISCO RAFAEL DA SILVA NETO ANALISTA DO MP ATIVO SACRAMENTO - COMARCA; SACRAMENTO-PJ-01PJ 6.032,93 361,98 0,00 0,00 0,00 0,00 6.394,91 832,38 539,38 0,00 1.371,76 5.023,15 3.356,96 1.406,58 29/02/2016
1066 515200 FRANCISLEI ELIAS GONCALVES OFICIAL DO MP ATIVO PASSOS - COMARCA; PASSOS-PJ-07PJ 3.387,29 848,20 0,00 0,00 1.696,40 0,00 5.931,89 835,10 451,55 0,00 1.286,65 4.645,24 5.493,81 2.807,33 29/02/2016
1067 443600 FRANCISLEI MARTINS DE SOUSA ANALISTA DO MP ATIVO TIMÓTEO - COMARCA; TIMOTEO-PJ-01PJ 6.549,52 818,53 0,00 0,00 3.001,27 0,00 10.369,32 1.262,68 1.709,84 0,00 2.972,52 7.396,80 5.493,81 2.847,54 29/02/2016
1068 424500 FREDERICO AUGUSTO COBRA MULLER ANALISTA DO MP ATIVO POUSO ALEGRE - COMARCA; POUSO ALEGRE-PJ-02PJ 8.185,27 818,53 0,00 0,00 0,00 0,00 9.003,80 990,42 1.334,32 0,00 2.324,74 6.679,06 799,00 0,00 29/02/2016
1069 473100 FREDERICO AUGUSTO LIMA FELICIO ANALISTA DO MP ATIVO CONCEIÇÃO DO MATO DENTRO - COMARCA; CONCEICAO DO MATO DENTRO-PJ-UNPJ 7.435,23 743,52 0,00 0,00 0,00 0,00 8.178,75 1.017,70 1.132,39 0,00 2.150,09 6.028,66 799,00 1.073,18 29/02/2016
1070 318100 FREDERICO BIANCHINI JOVIANO DOS SANTOS ASSESSOR/OFICIAL ATIVO BELO HORIZONTE - COMARCA; PROMOT ESTADUAL DE DEF PATRI CULT E TUR DE MG 0,00 1.690,36 8.451,80 0,00 0,00 0,00 10.142,16 657,07 1.739,04 0,00 2.396,11 7.746,05 1.768,07 0,00 29/02/2016
1071 124200 FREDERICO DE SOUZA ROCHA OFICIAL DO MP ATIVO ESPINOSA - COMARCA; ESPINOSA-PJ-SECRETARIA 11.276,58 9.021,26 0,00 0,00 0,00 0,00 20.297,84 2.443,97 3.994,26 0,00 6.438,23 13.859,61 899,48 1.920,12 29/02/2016
1072 177100 FREDERICO FERNANDES DE ANDRADE OFICIAL DO MP ATIVO BELO HORIZONTE - COMARCA; SUPERINTENDENCIA DE TECNOLOGIA DA INFORMACAO 6.457,98 2.618,10 0,00 0,00 0,00 0,00 9.076,08 1.247,96 1.283,37 0,00 2.531,33 6.544,75 799,00 0,00 29/02/2016
1073 456200 FREDERICO FERNANDES PASSOS ANALISTA DO MP ATIVO BELO HORIZONTE - COMARCA; DIRETORIA DE REDES E BANCOS DE DADOS 5.908,67 743,52 0,00 0,00 0,00 0,00 6.652,19 1.194,78 712,59 0,00 1.907,37 4.744,82 799,00 2.682,95 29/02/2016
1074 400900 FREDERICO LUCIANO BORGES REIS ANALISTA DO MP ATIVO BELO HORIZONTE - COMARCA; DIRETORIA DE SISTEMAS DE INFORMACAO 6.807,06 872,70 0,00 0,00 0,00 0,00 7.679,76 1.055,97 952,18 0,00 2.008,15 5.671,61 799,00 0,00 29/02/2016
1075 466200 FREDERICO LUIS FERNANDES ANALISTA DO MP ATIVO BELO HORIZONTE - COMARCA; BH-12PJ JUIZO CRIMINAL-GAB 106PJ 7.435,23 743,52 0,00 0,00 0,00 0,00 8.178,75 1.076,73 1.080,25 0,00 2.156,98 6.021,77 799,00 1.609,77 29/02/2016
1076 419700 FREDERICO MECKLER SANTOS ANALISTA DO MP ATIVO CLÁUDIO - COMARCA; CLAUDIO-PJ-UNPJ 8.451,80 845,18 0,00 0,00 0,00 0,00 9.296,98 1.022,67 1.406,08 0,00 2.428,75 6.868,23 799,00 0,00 29/02/2016
1077 257100 FULVIA HERONVILLE DA SILVA OFICIAL DO MP ATIVO BELO HORIZONTE - COMARCA; COORD DE CONTROLE DA CONSTITUCIONALIDADE 7.435,23 1.487,05 0,00 0,00 0,00 0,00 8.922,28 1.074,31 1.262,23 0,00 2.336,54 6.585,74 799,00 844,17 29/02/2016
1078 621700 GABRIEL ANDRADE SOUZA GROSSI RIBEIRO OFICIAL DO MP ATIVO BETIM - COMARCA; BETIM-PJ-SECRETARIA 3.028,26 0,00 0,00 0,00 0,00 0,00 3.028,26 398,48 58,50 0,00 456,98 2.571,28 799,00 493,30 29/02/2016
1079 613600 GABRIEL BASTOS MEIRELES ANALISTA DO MP ATIVO BELO HORIZONTE - COMARCA; BH-16PJ HABITACAO E URBANISMO 4.820,91 0,00 0,00 0,00 0,00 0,00 4.820,91 530,30 329,26 0,00 859,56 3.961,3